[[{"header":{"parameterUnit":"m.s-1","parameterCategory":1,"la1":31.0,"la2":29.5877,"lo1":-88.7671,"lo2":-86.6584,"dy":0.0162,"dx":0.0185,"nx":115,"ny":88,"refTime":"2024-09-01T18:00:00:Z","depth":0,"parameterNumber":2,"parameterNumberName":"U-component_of_WINDS"},"data":[0.0,0.0,0.0,0.0,0.0,0.0,0.0,0.0,0.0,0.0,0.0,0.0,0.0,0.0,0.0,0.0,0.0,0.0,0.0,0.0,0.0,0.0,0.0,0.0,0.0,0.0,0.0,0.0,0.0,0.0,0.0,0.0,0.0,0.0,0.0,0.0,0.0,0.0,0.0,0.0,0.0,0.0,0.0,0.0,0.0,0.0,0.0,0.0,0.0,0.0,0.0,0.0,0.0,0.0,0.0,0.0,0.0,0.0,0.0,0.0,0.0,0.0,0.0,0.0,0.0,0.0,0.0,0.0,0.0,0.0,0.0,0.0,0.0,0.0,0.0,0.0,0.0,0.0,0.0,0.0,0.0,0.0,0.0,0.0,0.0,0.0,0.0,0.0,0.0,0.0,0.0,0.0,0.0,0.0,0.0,0.0,0.0,0.0,0.0,0.0,0.0,0.0,0.0,0.0,0.0,0.0,0.0,0.0,0.0,0.0,0.0,0.0,0.0,0.0,0.0,0.0,0.0,0.0,0.0,0.0,0.0,0.0,0.0,0.0,0.0,0.0,0.0,0.0,0.0,0.0,0.0,0.0,0.0,0.0,0.0,0.0,0.0,0.0,0.0,0.0,0.0,0.0,0.0,0.0,0.0,0.0,0.0,0.0,0.0,0.0,0.0,0.0,0.0,0.0,0.0,0.0,0.0,0.0,0.0,0.0,0.0,0.0,0.0,0.0,0.0,0.0,0.0,0.0,0.0,0.0,0.0,0.0,0.0,0.0,0.0,0.0,0.0,0.0,0.0,0.0,0.0,0.0,0.0,0.0,0.0,0.0,0.0,0.0,0.0,0.0,0.0,0.0,0.0,0.0,0.0,0.0,0.0,0.0,0.0,0.0,0.0,0.0,0.0,0.0,0.0,0.0,0.0,0.0,0.0,0.0,0.0,0.0,0.0,0.0,0.0,0.0,0.0,0.0,0.0,0.0,0.0,0.0,0.0,0.0,0.0,0.0,0.0,0.0,0.0,0.0,0.0,0.0,0.0,0.0,0.0,0.0,0.0,0.0,0.0,0.0,0.0,0.0,0.0,0.0,0.0,0.0,0.0,0.0,0.0,0.0,0.0,0.0,0.0,0.0,0.0,0.0,0.0,0.0,0.0,0.0,0.0,0.0,0.0,0.0,0.0,0.0,0.0,0.0,0.0,0.0,0.0,0.0,0.0,0.0,0.0,0.0,0.0,0.0,0.0,0.0,0.0,0.0,0.0,0.0,0.0,0.0,0.0,0.0,0.0,0.0,0.0,0.0,0.0,0.0,0.0,0.0,0.0,0.0,0.0,0.0,0.0,0.0,0.0,0.0,0.0,0.0,0.0,0.0,0.0,0.0,0.0,0.0,0.0,0.0,0.0,0.0,0.0,0.0,0.0,0.0,0.0,0.0,0.0,0.0,0.0,0.0,0.0,0.0,0.0,0.0,0.0,0.0,0.0,0.0,0.0,0.0,0.0,0.0,0.0,0.0,0.0,0.0,0.0,0.0,0.0,0.0,0.0,0.0,0.0,0.0,0.0,0.0,0.0,0.0,0.0,0.0,0.0,0.0,0.0,0.0,0.0,0.0,0.0,0.0,0.0,0.0,0.0,0.0,0.0,0.0,0.0,0.0,0.0,0.0,0.0,0.0,0.0,0.0,0.0,0.0,0.0,0.0,0.0,0.0,0.0,0.0,0.0,0.0,0.0,0.0,0.0,0.0,0.0,0.0,0.0,0.0,0.0,0.0,0.0,0.0,0.0,0.0,0.0,0.0,0.0,0.0,0.0,0.0,0.0,0.0,0.0,0.0,0.0,0.0,0.0,0.0,0.0,0.0,0.0,0.0,0.0,0.0,0.0,0.0,0.0,0.0,0.0,0.0,0.0,0.0,0.0,0.0,0.0,0.0,0.0,0.0,0.0,0.0,0.0,0.0,0.0,0.0,0.0,0.0,0.0,0.0,0.0,0.0,0.0,0.0,0.0,0.0,0.0,0.0,0.0,0.0,0.0,0.0,0.0,0.0,0.0,0.0,0.0,0.0,0.0,0.0,0.0,0.0,0.0,0.0,0.0,0.0,0.0,0.0,0.0,0.0,0.0,0.0,0.0,0.0,0.0,0.0,0.0,0.0,0.0,0.0,0.0,0.0,0.0,0.0,0.0,0.0,0.0,0.0,0.0,0.0,0.0,0.0,0.0,0.0,0.0,0.0,0.0,0.0,0.0,0.0,0.0,0.0,0.0,0.0,0.0,0.0,0.0,0.0,0.0,0.0,0.0,0.0,0.0,0.0,0.0,0.0,0.0,0.0,0.0,0.0,0.0,0.0,0.0,0.0,0.0,0.0,0.0,0.0,0.0,0.0,0.0,0.0,0.0,0.0,0.0,0.0,0.0,0.0,0.0,0.0,0.0,0.0,0.0,0.0,0.0,0.0,0.0,0.0,0.0,0.0,0.0,0.0,0.0,0.0,0.0,0.0,0.0,0.0,0.0,0.0,0.0,0.0,0.0,0.0,0.0,0.0,0.0,0.0,0.0,0.0,0.0,0.0,0.0,0.0,0.0,0.0,0.0,0.0,0.0,0.0,0.0,0.0,0.0,0.0,0.0,0.0,0.0,0.0,0.0,0.0,0.0,0.0,0.0,0.0,0.0,0.0,0.0,0.0,0.0,0.0,0.0,0.0,0.0,0.0,0.0,0.0,0.0,0.0,0.0,0.0,0.0,0.0,0.0,0.0,0.0,0.0,0.0,0.0,0.0,0.0,0.0,0.0,0.0,0.0,0.0,0.0,0.0,0.0,0.0,0.0,0.0,0.0,0.0,0.0,0.0,0.0,0.0,0.0,0.0,0.0,0.0,0.0,0.0,0.0,0.0,0.0,0.0,0.0,0.0,0.0,0.0,0.0,0.0,0.0,0.0,0.0,0.0,0.0,0.0,0.0,0.0,0.0,0.0,0.0,0.0,0.0,0.0,0.0,0.0,0.0,0.0,0.0,0.0,0.0,0.0,0.0,0.0,0.0,0.0,0.0,0.0,0.0,0.0,0.0,0.0,0.0,0.0,0.0,0.0,0.0,0.0,0.0,0.0,0.0,0.0,0.0,0.0,0.0,0.0,0.0,0.0,0.0,0.0,0.0,0.0,0.0,0.0,0.0,0.0,0.0,0.0,0.0,0.0,0.0,0.0,0.0,0.0,0.0,0.0,0.0,0.0,0.0,0.0,0.0,0.0,0.0,0.0,0.0,0.0,0.0,0.0,0.0,0.0,0.0,0.0,0.0,0.0,0.0,0.0,0.0,0.0,0.0,0.0,0.0,0.0,0.0,0.0,0.0,0.0,0.0,0.0,0.0,0.0,0.0,0.0,0.0,0.0,0.0,0.0,0.0,0.0,0.0,0.0,0.0,0.0,0.0,0.0,0.0,0.0,0.0,0.0,0.0,0.0,0.0,0.0,0.0,0.0,0.0,0.0,0.0,0.0,0.0,0.0,0.0,0.0,0.0,0.0,0.0,0.0,0.0,0.0,0.0,0.0,0.0,0.0,0.0,0.0,0.0,0.0,0.0,0.0,0.0,0.0,0.0,0.0,0.0,0.0,0.0,0.0,0.0,0.0,0.0,0.0,0.0,0.0,0.0,0.0,0.0,0.0,0.0,0.0,0.0,0.0,0.0,0.0,0.0,0.0,0.0,0.0,0.0,0.0,0.0,0.0,0.0,0.0,0.0,0.0,0.0,0.0,0.0,0.0,0.0,0.0,0.0,0.0,0.0,0.0,0.0,0.0,0.0,0.0,0.0,0.0,0.0,0.0,0.0,0.0,0.0,0.0,0.0,0.0,0.0,0.0,0.0,0.0,0.0,0.0,0.0,0.0,0.0,0.0,0.0,0.0,0.0,0.0,0.0,0.0,0.0,0.0,0.0,0.0,0.0,0.0,0.0,0.0,0.0,0.0,0.0,0.0,0.0,0.0,0.0,0.0,0.0,0.0,0.0,0.0,0.0,0.0,0.0,0.0,0.0,0.0,0.0,0.0,0.0,0.0,0.0,0.0,0.0,0.0,0.0,0.0,0.0,0.0,0.0,0.0,0.0,0.0,0.0,0.0,0.0,0.0,0.0,0.0,0.0,0.0,0.0,0.0,0.0,0.0,0.0,0.0,0.0,0.0,0.0,0.0,0.0,0.0,0.0,0.0,0.0,0.0,0.0,0.0,0.0,0.0,0.0,0.0,0.0,0.0,0.0,0.0,0.0,0.0,0.0,0.0,0.0,0.0,0.0,-2.2486,0.0,0.0,0.0,0.0,0.0,0.0,0.0,0.0,0.0,0.0,0.0,0.0,0.0,0.0,0.0,0.0,0.0,0.0,0.0,0.0,0.0,0.0,0.0,0.0,0.0,0.0,0.0,0.0,0.0,0.0,0.0,0.0,0.0,0.0,0.0,0.0,0.0,0.0,0.0,0.0,0.0,0.0,0.0,0.0,0.0,0.0,0.0,0.0,0.0,0.0,0.0,0.0,0.0,0.0,0.0,0.0,0.0,0.0,0.0,0.0,0.0,0.0,0.0,0.0,0.0,0.0,0.0,0.0,0.0,0.0,0.0,0.0,0.0,0.0,0.0,0.0,0.0,0.0,0.0,0.0,0.0,0.0,0.0,0.0,0.0,0.0,0.0,0.0,0.0,0.0,0.0,0.0,0.0,0.0,0.0,0.0,0.0,0.0,0.0,0.0,0.0,0.0,0.0,0.0,0.0,0.0,0.0,0.0,0.0,0.0,-2.5576,-2.5532,-2.5055,-2.4321,-2.3272,0.0,0.0,0.0,0.0,0.0,0.0,0.0,0.0,0.0,0.0,0.0,0.0,0.0,0.0,0.0,0.0,0.0,0.0,0.0,0.0,0.0,0.0,0.0,0.0,0.0,0.0,0.0,0.0,0.0,0.0,0.0,0.0,0.0,0.0,0.0,0.0,0.0,0.0,0.0,0.0,0.0,0.0,0.0,0.0,0.0,0.0,0.0,0.0,0.0,0.0,0.0,0.0,0.0,0.0,0.0,0.0,0.0,0.0,0.0,0.0,0.0,0.0,0.0,0.0,0.0,0.0,0.0,0.0,0.0,0.0,0.0,0.0,0.0,0.0,0.0,0.0,0.0,0.0,0.0,0.0,0.0,0.0,0.0,0.0,0.0,0.0,0.0,0.0,0.0,0.0,0.0,0.0,0.0,0.0,0.0,0.0,0.0,0.0,0.0,0.0,0.0,0.0,0.0,0.0,0.0,0.0,0.0,0.0,0.0,0.0,0.0,0.0,-2.5473,-2.4793,-2.3507,0.0,0.0,0.0,0.0,0.0,0.0,0.0,0.0,0.0,0.0,0.0,0.0,0.0,0.0,0.0,0.0,0.0,0.0,0.0,0.0,0.0,0.0,0.0,0.0,0.0,0.0,0.0,0.0,0.0,0.0,0.0,0.0,0.0,0.0,0.0,0.0,0.0,0.0,0.0,0.0,0.0,0.0,0.0,0.0,0.0,0.0,0.0,0.0,0.0,0.0,0.0,0.0,0.0,0.0,0.0,0.0,0.0,0.0,0.0,0.0,0.0,0.0,0.0,0.0,0.0,0.0,0.0,0.0,0.0,0.0,0.0,0.0,0.0,0.0,0.0,0.0,0.0,0.0,0.0,0.0,0.0,0.0,0.0,0.0,0.0,0.0,0.0,0.0,0.0,0.0,0.0,0.0,0.0,0.0,0.0,0.0,0.0,0.0,0.0,0.0,0.0,0.0,0.0,0.0,0.0,0.0,0.0,0.0,0.0,0.0,-2.5605,-2.5601,-2.547,0.0,-2.2641,0.0,0.0,0.0,0.0,0.0,0.0,0.0,0.0,0.0,0.0,0.0,0.0,0.0,0.0,0.0,0.0,0.0,0.0,0.0,0.0,0.0,0.0,0.0,0.0,0.0,0.0,0.0,0.0,0.0,0.0,0.0,0.0,0.0,0.0,0.0,0.0,0.0,0.0,0.0,0.0,0.0,0.0,0.0,0.0,0.0,0.0,0.0,0.0,0.0,0.0,0.0,0.0,0.0,0.0,0.0,0.0,0.0,0.0,0.0,0.0,0.0,0.0,0.0,0.0,0.0,0.0,0.0,0.0,0.0,0.0,0.0,0.0,0.0,0.0,0.0,0.0,0.0,0.0,0.0,0.0,0.0,0.0,0.0,0.0,0.0,0.0,0.0,0.0,0.0,0.0,0.0,0.0,0.0,0.0,0.0,0.0,0.0,0.0,0.0,0.0,0.0,0.0,0.0,0.0,0.0,0.0,0.0,0.0,0.0,0.0,-2.5605,-2.5611,-2.5356,-2.4326,0.0,0.0,0.0,0.0,0.0,0.0,0.0,0.0,0.0,0.0,0.0,0.0,0.0,0.0,0.0,0.0,0.0,0.0,0.0,0.0,0.0,0.0,0.0,0.0,0.0,0.0,0.0,0.0,0.0,0.0,0.0,0.0,0.0,0.0,0.0,0.0,0.0,0.0,0.0,0.0,0.0,0.0,0.0,0.0,0.0,0.0,0.0,0.0,0.0,0.0,0.0,0.0,0.0,0.0,0.0,0.0,0.0,0.0,0.0,0.0,0.0,0.0,0.0,0.0,0.0,0.0,0.0,0.0,0.0,0.0,0.0,0.0,0.0,0.0,0.0,0.0,0.0,0.0,0.0,0.0,0.0,0.0,0.0,0.0,0.0,0.0,0.0,0.0,0.0,0.0,0.0,0.0,0.0,0.0,0.0,0.0,0.0,0.0,0.0,0.0,0.0,0.0,0.0,0.0,0.0,0.0,0.0,0.0,0.0,0.0,-2.5531,-2.5585,-2.5537,-2.5269,-2.4246,-2.2477,0.0,0.0,0.0,0.0,0.0,0.0,0.0,0.0,0.0,0.0,0.0,0.0,0.0,0.0,0.0,0.0,0.0,0.0,0.0,0.0,0.0,0.0,0.0,0.0,0.0,0.0,0.0,0.0,0.0,0.0,0.0,0.0,0.0,0.0,0.0,0.0,0.0,0.0,0.0,0.0,0.0,0.0,0.0,0.0,0.0,0.0,0.0,0.0,0.0,0.0,0.0,0.0,0.0,0.0,0.0,0.0,0.0,0.0,0.0,0.0,0.0,0.0,0.0,0.0,0.0,0.0,0.0,0.0,0.0,0.0,0.0,0.0,0.0,0.0,0.0,0.0,0.0,0.0,0.0,0.0,0.0,0.0,0.0,0.0,0.0,0.0,0.0,0.0,0.0,0.0,0.0,0.0,0.0,0.0,0.0,0.0,0.0,0.0,0.0,0.0,0.0,0.0,0.0,0.0,0.0,0.0,0.0,0.0,-2.5232,-2.5498,-2.5541,-2.5437,-2.5217,-2.4258,0.0,0.0,0.0,0.0,0.0,0.0,0.0,0.0,0.0,0.0,0.0,0.0,0.0,0.0,0.0,0.0,0.0,0.0,0.0,0.0,0.0,0.0,0.0,0.0,0.0,0.0,0.0,0.0,0.0,0.0,0.0,0.0,0.0,0.0,0.0,0.0,0.0,0.0,0.0,0.0,0.0,0.0,0.0,0.0,0.0,0.0,0.0,0.0,0.0,0.0,0.0,0.0,0.0,0.0,0.0,0.0,0.0,0.0,0.0,0.0,0.0,0.0,0.0,0.0,0.0,0.0,0.0,0.0,0.0,0.0,0.0,0.0,0.0,0.0,0.0,0.0,0.0,0.0,0.0,0.0,0.0,0.0,0.0,0.0,0.0,0.0,0.0,0.0,0.0,0.0,0.0,0.0,0.0,0.0,0.0,0.0,0.0,0.0,0.0,0.0,0.0,0.0,0.0,0.0,0.0,0.0,0.0,0.0,0.0,-2.5197,-2.5458,-2.5763,-2.6196,-2.5505,-2.427,0.0,0.0,0.0,0.0,0.0,0.0,0.0,0.0,0.0,0.0,0.0,0.0,0.0,0.0,0.0,0.0,0.0,0.0,0.0,0.0,0.0,0.0,0.0,0.0,0.0,0.0,0.0,0.0,0.0,0.0,0.0,0.0,0.0,0.0,0.0,0.0,0.0,0.0,0.0,0.0,0.0,0.0,0.0,0.0,0.0,0.0,0.0,0.0,0.0,0.0,0.0,0.0,0.0,0.0,0.0,0.0,0.0,0.0,0.0,0.0,0.0,0.0,0.0,0.0,0.0,0.0,0.0,0.0,0.0,0.0,0.0,0.0,0.0,0.0,0.0,0.0,0.0,0.0,0.0,0.0,0.0,0.0,0.0,0.0,0.0,0.0,0.0,0.0,0.0,0.0,0.0,0.0,0.0,0.0,0.0,0.0,0.0,0.0,0.0,0.0,0.0,0.0,0.0,0.0,0.0,0.0,0.0,0.0,0.0,-2.5689,0.0,-2.6456,0.0,-2.5953,-2.4573,0.0,0.0,0.0,0.0,0.0,0.0,0.0,0.0,0.0,0.0,0.0,0.0,0.0,0.0,0.0,0.0,0.0,0.0,0.0,0.0,0.0,0.0,0.0,0.0,0.0,0.0,0.0,0.0,0.0,0.0,0.0,0.0,0.0,0.0,0.0,0.0,0.0,0.0,0.0,0.0,0.0,0.0,0.0,0.0,0.0,0.0,0.0,0.0,0.0,0.0,0.0,0.0,0.0,0.0,0.0,0.0,0.0,0.0,0.0,0.0,0.0,0.0,0.0,0.0,0.0,0.0,0.0,0.0,0.0,0.0,0.0,0.0,0.0,0.0,0.0,0.0,0.0,0.0,0.0,0.0,0.0,0.0,0.0,0.0,0.0,0.0,0.0,0.0,0.0,0.0,0.0,0.0,0.0,0.0,0.0,0.0,0.0,0.0,0.0,0.0,0.0,0.0,0.0,0.0,0.0,0.0,0.0,0.0,-2.4007,-2.6723,-2.7643,-2.767,-2.68,-2.6567,-2.5235,0.0,0.0,0.0,0.0,0.0,0.0,0.0,0.0,0.0,0.0,0.0,0.0,0.0,0.0,0.0,0.0,0.0,0.0,0.0,0.0,0.0,0.0,0.0,0.0,0.0,0.0,0.0,0.0,0.0,0.0,0.0,0.0,0.0,0.0,0.0,0.0,0.0,0.0,0.0,0.0,0.0,0.0,0.0,0.0,0.0,0.0,0.0,0.0,0.0,0.0,0.0,0.0,0.0,0.0,0.0,0.0,0.0,0.0,0.0,0.0,0.0,0.0,0.0,0.0,0.0,0.0,0.0,0.0,0.0,0.0,0.0,0.0,0.0,0.0,0.0,0.0,0.0,0.0,0.0,0.0,0.0,0.0,0.0,0.0,0.0,0.0,0.0,0.0,0.0,0.0,0.0,0.0,0.0,0.0,0.0,0.0,0.0,0.0,0.0,0.0,0.0,0.0,0.0,0.0,0.0,0.0,0.0,0.0,0.0,-2.855,-2.8798,-2.9062,-2.9257,-2.7995,-2.6374,0.0,0.0,0.0,0.0,0.0,0.0,0.0,0.0,0.0,0.0,0.0,0.0,0.0,0.0,0.0,0.0,0.0,0.0,0.0,0.0,0.0,0.0,0.0,0.0,0.0,0.0,0.0,0.0,0.0,0.0,0.0,0.0,0.0,0.0,0.0,0.0,0.0,0.0,0.0,0.0,0.0,0.0,0.0,0.0,0.0,0.0,0.0,0.0,0.0,0.0,0.0,0.0,0.0,0.0,0.0,0.0,0.0,0.0,0.0,0.0,0.0,0.0,0.0,0.0,0.0,0.0,0.0,0.0,0.0,0.0,0.0,0.0,0.0,0.0,0.0,0.0,0.0,0.0,0.0,0.0,0.0,0.0,0.0,0.0,0.0,0.0,0.0,0.0,0.0,0.0,0.0,0.0,0.0,0.0,0.0,0.0,0.0,0.0,0.0,0.0,0.0,0.0,0.0,0.0,0.0,0.0,0.0,0.0,0.0,-3.0801,-3.1108,-3.131,-3.1448,-2.9996,-2.8105,-2.5811,0.0,0.0,0.0,0.0,0.0,0.0,0.0,0.0,0.0,0.0,0.0,0.0,0.0,0.0,0.0,0.0,0.0,0.0,0.0,0.0,0.0,0.0,0.0,0.0,0.0,0.0,0.0,0.0,0.0,0.0,0.0,0.0,0.0,0.0,0.0,0.0,0.0,0.0,0.0,0.0,0.0,0.0,0.0,0.0,0.0,0.0,0.0,0.0,0.0,0.0,0.0,0.0,0.0,0.0,0.0,0.0,0.0,0.0,0.0,0.0,0.0,0.0,0.0,0.0,0.0,0.0,0.0,0.0,0.0,0.0,0.0,0.0,0.0,0.0,0.0,0.0,0.0,0.0,0.0,0.0,0.0,0.0,0.0,0.0,0.0,0.0,0.0,0.0,0.0,0.0,0.0,0.0,0.0,0.0,0.0,0.0,0.0,0.0,0.0,0.0,0.0,0.0,0.0,0.0,0.0,0.0,0.0,0.0,-3.3472,-3.4341,-3.4302,-3.3253,-3.2262,-3.0198,0.0,0.0,0.0,0.0,0.0,0.0,0.0,0.0,0.0,0.0,0.0,0.0,0.0,0.0,0.0,0.0,0.0,0.0,0.0,0.0,0.0,0.0,0.0,0.0,0.0,0.0,0.0,0.0,0.0,0.0,0.0,0.0,0.0,0.0,0.0,0.0,0.0,0.0,0.0,0.0,0.0,0.0,0.0,0.0,0.0,0.0,0.0,0.0,0.0,0.0,0.0,0.0,0.0,0.0,0.0,0.0,0.0,0.0,0.0,0.0,0.0,0.0,0.0,0.0,0.0,0.0,0.0,0.0,0.0,0.0,0.0,0.0,0.0,0.0,0.0,0.0,0.0,0.0,0.0,0.0,0.0,0.0,0.0,0.0,0.0,0.0,0.0,0.0,0.0,0.0,0.0,0.0,0.0,0.0,0.0,0.0,0.0,0.0,0.0,0.0,0.0,0.0,0.0,0.0,0.0,0.0,0.0,0.0,0.0,-3.6052,-3.7602,-3.7261,-3.5092,-3.344,-3.1308,0.0,0.0,0.0,0.0,0.0,0.0,0.0,0.0,0.0,0.0,0.0,0.0,0.0,0.0,0.0,0.0,0.0,0.0,0.0,0.0,0.0,0.0,0.0,0.0,0.0,0.0,0.0,0.0,0.0,0.0,0.0,0.0,0.0,0.0,0.0,0.0,0.0,0.0,0.0,0.0,0.0,0.0,0.0,0.0,0.0,0.0,0.0,0.0,0.0,0.0,0.0,0.0,0.0,0.0,0.0,0.0,0.0,0.0,0.0,0.0,0.0,0.0,0.0,0.0,0.0,0.0,0.0,0.0,0.0,0.0,0.0,0.0,0.0,0.0,0.0,0.0,0.0,0.0,0.0,0.0,0.0,0.0,0.0,0.0,0.0,0.0,0.0,0.0,0.0,0.0,0.0,0.0,0.0,0.0,0.0,0.0,0.0,0.0,0.0,0.0,0.0,0.0,0.0,0.0,0.0,0.0,0.0,0.0,-3.3988,-3.7127,-3.884,-3.8941,-3.738,-3.5556,-3.3222,0.0,0.0,0.0,0.0,0.0,0.0,0.0,0.0,0.0,0.0,0.0,0.0,0.0,0.0,0.0,0.0,0.0,0.0,0.0,0.0,0.0,0.0,0.0,0.0,0.0,0.0,0.0,0.0,0.0,0.0,0.0,0.0,0.0,0.0,0.0,0.0,0.0,0.0,0.0,0.0,0.0,0.0,0.0,0.0,0.0,0.0,0.0,0.0,0.0,0.0,0.0,0.0,0.0,0.0,0.0,0.0,0.0,0.0,0.0,0.0,0.0,0.0,0.0,0.0,0.0,0.0,0.0,0.0,0.0,0.0,0.0,0.0,0.0,0.0,0.0,0.0,0.0,0.0,0.0,0.0,0.0,0.0,0.0,0.0,0.0,0.0,0.0,0.0,0.0,0.0,0.0,0.0,0.0,0.0,0.0,0.0,0.0,0.0,0.0,0.0,0.0,0.0,0.0,0.0,0.0,0.0,0.0,0.0,-3.4649,-3.7285,-3.899,-3.9818,-3.9706,-3.7901,-3.5347,0.0,0.0,0.0,0.0,0.0,0.0,0.0,0.0,0.0,0.0,0.0,0.0,0.0,0.0,0.0,0.0,0.0,0.0,0.0,0.0,0.0,0.0,0.0,0.0,0.0,0.0,0.0,0.0,0.0,0.0,0.0,0.0,0.0,0.0,0.0,0.0,0.0,0.0,0.0,0.0,0.0,0.0,0.0,0.0,0.0,0.0,0.0,0.0,0.0,0.0,0.0,0.0,0.0,0.0,0.0,0.0,0.0,0.0,0.0,0.0,0.0,0.0,0.0,0.0,0.0,0.0,0.0,0.0,0.0,0.0,0.0,0.0,0.0,0.0,0.0,0.0,0.0,0.0,0.0,0.0,0.0,0.0,0.0,0.0,0.0,0.0,0.0,0.0,0.0,0.0,0.0,0.0,0.0,0.0,0.0,0.0,0.0,0.0,0.0,0.0,0.0,0.0,0.0,0.0,0.0,0.0,0.0,0.0,-3.5568,-3.8162,-3.991,-4.0784,-4.0701,-3.8234,-3.5618,0.0,0.0,0.0,0.0,0.0,0.0,0.0,0.0,0.0,0.0,0.0,0.0,0.0,0.0,0.0,0.0,0.0,0.0,0.0,0.0,0.0,0.0,0.0,0.0,0.0,0.0,0.0,0.0,0.0,0.0,0.0,0.0,0.0,0.0,0.0,0.0,0.0,0.0,0.0,0.0,0.0,0.0,0.0,0.0,0.0,0.0,0.0,0.0,-2.6787,0.0,0.0,0.0,0.0,0.0,0.0,0.0,0.0,0.0,0.0,0.0,0.0,0.0,0.0,0.0,0.0,0.0,0.0,0.0,0.0,0.0,0.0,0.0,0.0,0.0,0.0,0.0,0.0,0.0,0.0,0.0,0.0,0.0,0.0,0.0,0.0,0.0,0.0,0.0,0.0,0.0,0.0,0.0,0.0,0.0,0.0,0.0,0.0,0.0,0.0,0.0,0.0,0.0,0.0,0.0,0.0,0.0,0.0,0.0,-3.6871,-3.9038,-4.0407,-4.1087,-4.0967,-3.8843,-3.642,0.0,0.0,0.0,0.0,0.0,0.0,0.0,0.0,0.0,0.0,0.0,0.0,0.0,0.0,0.0,0.0,0.0,0.0,0.0,0.0,0.0,0.0,0.0,0.0,0.0,0.0,0.0,0.0,0.0,0.0,0.0,0.0,0.0,0.0,0.0,0.0,0.0,0.0,0.0,0.0,0.0,0.0,0.0,0.0,0.0,0.0,0.0,0.0,0.0,0.0,0.0,0.0,0.0,0.0,0.0,0.0,0.0,0.0,0.0,0.0,0.0,0.0,0.0,0.0,0.0,0.0,0.0,0.0,0.0,0.0,0.0,0.0,0.0,0.0,0.0,0.0,0.0,0.0,0.0,0.0,0.0,0.0,0.0,0.0,0.0,0.0,0.0,0.0,0.0,0.0,0.0,0.0,0.0,0.0,0.0,0.0,0.0,0.0,0.0,0.0,0.0,0.0,0.0,0.0,0.0,0.0,0.0,-3.5256,-3.7977,-3.972,-4.0663,-4.1043,-4.0886,-3.923,-3.7052,-3.4416,0.0,0.0,0.0,0.0,0.0,0.0,0.0,0.0,0.0,0.0,0.0,0.0,0.0,0.0,0.0,0.0,0.0,0.0,0.0,0.0,0.0,0.0,0.0,0.0,0.0,0.0,0.0,0.0,0.0,0.0,0.0,0.0,0.0,0.0,0.0,0.0,0.0,0.0,-2.5917,-2.8203,0.0,0.0,0.0,0.0,0.0,0.0,0.0,0.0,-3.1449,0.0,0.0,0.0,0.0,0.0,0.0,0.0,0.0,0.0,0.0,0.0,0.0,0.0,0.0,0.0,0.0,0.0,0.0,0.0,0.0,0.0,0.0,0.0,0.0,0.0,0.0,0.0,0.0,0.0,0.0,0.0,0.0,0.0,0.0,0.0,0.0,0.0,0.0,0.0,0.0,0.0,0.0,0.0,0.0,0.0,0.0,0.0,0.0,0.0,0.0,0.0,0.0,0.0,0.0,0.0,0.0,-3.1689,-3.5269,-3.796,-3.9754,-4.0644,-4.0738,-4.001,-3.8383,-3.6264,-3.369,0.0,0.0,0.0,0.0,0.0,0.0,0.0,0.0,0.0,0.0,0.0,0.0,0.0,0.0,0.0,0.0,0.0,0.0,0.0,0.0,0.0,0.0,0.0,0.0,0.0,0.0,0.0,0.0,0.0,0.0,0.0,0.0,0.0,0.0,0.0,0.0,0.0,0.0,0.0,-3.0609,-3.2184,0.0,0.0,0.0,0.0,0.0,0.0,0.0,0.0,-3.1495,0.0,0.0,0.0,0.0,0.0,0.0,0.0,0.0,0.0,0.0,0.0,0.0,0.0,0.0,0.0,0.0,0.0,0.0,0.0,0.0,0.0,0.0,0.0,0.0,0.0,0.0,0.0,0.0,0.0,0.0,0.0,0.0,0.0,0.0,0.0,0.0,0.0,0.0,0.0,0.0,0.0,0.0,0.0,0.0,0.0,0.0,0.0,0.0,0.0,0.0,0.0,0.0,0.0,0.0,0.0,-3.2972,-3.6153,-3.8441,-3.9754,-4.0206,-4.0038,-3.918,-3.7519,-3.5624,0.0,0.0,0.0,0.0,0.0,0.0,0.0,0.0,0.0,0.0,0.0,0.0,0.0,0.0,0.0,0.0,0.0,0.0,0.0,0.0,0.0,0.0,0.0,0.0,0.0,0.0,0.0,0.0,0.0,0.0,0.0,0.0,0.0,0.0,0.0,0.0,0.0,0.0,0.0,0.0,-3.1851,-3.3743,-3.3936,0.0,0.0,0.0,0.0,0.0,0.0,-3.3876,-3.3443,0.0,0.0,0.0,0.0,0.0,0.0,0.0,0.0,0.0,0.0,0.0,0.0,0.0,0.0,0.0,0.0,0.0,0.0,0.0,0.0,0.0,0.0,0.0,0.0,0.0,0.0,0.0,0.0,0.0,0.0,0.0,0.0,0.0,0.0,0.0,0.0,0.0,0.0,0.0,0.0,0.0,0.0,0.0,0.0,0.0,0.0,0.0,0.0,0.0,0.0,0.0,0.0,0.0,0.0,0.0,-3.3884,-3.6692,-3.8579,-3.9468,-3.9534,-3.914,-3.833,-3.6632,-3.4838,0.0,0.0,0.0,0.0,0.0,0.0,0.0,0.0,0.0,0.0,0.0,0.0,0.0,0.0,0.0,0.0,0.0,0.0,0.0,0.0,0.0,0.0,0.0,0.0,0.0,0.0,0.0,0.0,0.0,0.0,0.0,0.0,0.0,0.0,0.0,0.0,0.0,0.0,0.0,0.0,0.0,-3.5254,-3.6426,-3.6699,0.0,0.0,0.0,0.0,-3.6222,-3.595,0.0,0.0,0.0,0.0,0.0,0.0,0.0,0.0,0.0,0.0,0.0,0.0,0.0,0.0,0.0,0.0,0.0,0.0,0.0,0.0,0.0,0.0,0.0,0.0,0.0,0.0,0.0,0.0,0.0,0.0,0.0,0.0,0.0,0.0,0.0,0.0,0.0,0.0,0.0,0.0,0.0,0.0,0.0,0.0,0.0,0.0,0.0,0.0,0.0,0.0,0.0,0.0,0.0,0.0,0.0,0.0,-3.3021,-3.5756,-3.7607,-3.8508,-3.8614,-3.8239,-3.7381,-3.5729,-3.3664,0.0,0.0,0.0,0.0,0.0,0.0,0.0,0.0,0.0,0.0,0.0,0.0,0.0,0.0,0.0,0.0,0.0,0.0,0.0,0.0,0.0,0.0,0.0,0.0,0.0,0.0,0.0,0.0,0.0,0.0,0.0,0.0,0.0,0.0,0.0,0.0,0.0,0.0,0.0,0.0,0.0,-3.7242,-3.8997,-3.9316,-3.9323,0.0,0.0,-3.7214,-3.797,-3.68,0.0,0.0,0.0,0.0,0.0,0.0,0.0,0.0,0.0,0.0,0.0,0.0,0.0,0.0,0.0,0.0,0.0,0.0,0.0,0.0,0.0,0.0,0.0,0.0,0.0,0.0,0.0,0.0,0.0,0.0,0.0,0.0,0.0,0.0,0.0,0.0,0.0,0.0,0.0,0.0,0.0,0.0,0.0,0.0,0.0,0.0,0.0,0.0,0.0,0.0,0.0,0.0,0.0,0.0,0.0,-3.0837,-3.3545,-3.5795,-3.7143,-3.7536,-3.7627,-3.724,-3.6421,-3.4753,-3.2878,0.0,0.0,0.0,0.0,0.0,0.0,0.0,0.0,0.0,0.0,0.0,0.0,0.0,0.0,0.0,0.0,0.0,0.0,0.0,0.0,0.0,0.0,0.0,0.0,0.0,0.0,0.0,0.0,0.0,0.0,0.0,0.0,0.0,0.0,0.0,0.0,0.0,0.0,0.0,0.0,0.0,0.0,-4.0034,-4.0058,0.0,0.0,0.0,-3.8696,-3.903,0.0,0.0,0.0,0.0,0.0,0.0,0.0,0.0,0.0,0.0,0.0,0.0,0.0,0.0,0.0,0.0,0.0,0.0,0.0,0.0,0.0,0.0,0.0,0.0,0.0,0.0,0.0,0.0,0.0,0.0,0.0,0.0,0.0,0.0,0.0,0.0,0.0,0.0,0.0,0.0,0.0,0.0,0.0,0.0,0.0,0.0,0.0,0.0,0.0,0.0,0.0,0.0,0.0,0.0,0.0,0.0,0.0,-3.3731,-3.5599,-3.6545,-3.6563,-3.6609,-3.6367,-3.5741,-3.4081,0.0,0.0,0.0,0.0,0.0,0.0,0.0,0.0,0.0,0.0,0.0,0.0,0.0,0.0,0.0,0.0,0.0,0.0,0.0,0.0,0.0,0.0,0.0,0.0,0.0,0.0,0.0,-2.3217,0.0,0.0,0.0,0.0,0.0,0.0,0.0,0.0,0.0,0.0,0.0,0.0,0.0,0.0,-3.7564,-4.0876,-4.082,-4.0699,0.0,0.0,-4.0033,-3.9986,-3.9108,-3.7912,0.0,0.0,0.0,0.0,0.0,0.0,0.0,0.0,0.0,0.0,0.0,0.0,0.0,0.0,0.0,0.0,0.0,0.0,0.0,0.0,0.0,0.0,0.0,0.0,0.0,0.0,0.0,0.0,0.0,0.0,0.0,0.0,0.0,0.0,0.0,0.0,0.0,0.0,0.0,0.0,0.0,0.0,0.0,0.0,0.0,0.0,0.0,0.0,0.0,0.0,0.0,0.0,0.0,0.0,0.0,-3.2763,-3.4628,-3.5643,-3.5684,-3.5693,-3.5676,-3.5579,-3.3974,-3.2696,0.0,0.0,0.0,0.0,0.0,0.0,0.0,0.0,0.0,0.0,0.0,0.0,0.0,0.0,0.0,0.0,0.0,0.0,0.0,0.0,0.0,0.0,0.0,0.0,0.0,0.0,0.0,0.0,0.0,0.0,0.0,0.0,0.0,0.0,0.0,0.0,0.0,0.0,0.0,0.0,0.0,-3.9121,-4.1839,-4.2226,-4.2236,0.0,0.0,-4.1012,-4.099,-3.9585,-3.8184,-3.7256,0.0,0.0,0.0,0.0,0.0,0.0,0.0,0.0,0.0,0.0,0.0,0.0,0.0,0.0,0.0,0.0,0.0,0.0,0.0,0.0,0.0,0.0,0.0,0.0,0.0,0.0,0.0,0.0,0.0,0.0,0.0,0.0,0.0,0.0,0.0,0.0,0.0,0.0,0.0,0.0,0.0,0.0,0.0,0.0,0.0,0.0,0.0,0.0,0.0,0.0,0.0,0.0,0.0,-3.0769,-3.2641,-3.4442,-3.5379,-3.5407,-3.5422,-3.5429,-3.5429,-3.4282,-3.3051,0.0,0.0,0.0,0.0,0.0,0.0,0.0,0.0,0.0,0.0,0.0,0.0,0.0,0.0,0.0,0.0,0.0,0.0,0.0,0.0,0.0,0.0,0.0,0.0,0.0,0.0,0.0,0.0,-2.7311,-2.7524,-2.7545,0.0,0.0,0.0,0.0,0.0,0.0,0.0,0.0,0.0,0.0,-3.8775,-4.1918,-4.1933,0.0,0.0,-4.1665,-4.1116,-4.1111,-3.9688,-3.8266,-3.7406,-3.4836,0.0,0.0,0.0,0.0,0.0,0.0,0.0,0.0,0.0,0.0,0.0,0.0,0.0,0.0,0.0,0.0,0.0,0.0,0.0,0.0,0.0,0.0,0.0,0.0,0.0,0.0,0.0,0.0,0.0,0.0,0.0,0.0,0.0,0.0,0.0,0.0,0.0,0.0,0.0,0.0,0.0,0.0,0.0,0.0,0.0,0.0,0.0,0.0,0.0,0.0,0.0,0.0,-3.0703,-3.2526,-3.432,-3.5256,-3.5253,-3.5218,-3.5209,-3.519,-3.438,-3.3406,0.0,0.0,0.0,0.0,0.0,0.0,0.0,0.0,0.0,0.0,0.0,0.0,0.0,0.0,0.0,0.0,0.0,0.0,0.0,0.0,0.0,0.0,0.0,0.0,0.0,0.0,0.0,0.0,-2.7978,-2.7988,-2.7988,0.0,0.0,0.0,0.0,0.0,0.0,0.0,0.0,0.0,0.0,-3.8916,-4.1603,-4.1501,-4.1308,-4.1932,-4.1503,-4.1014,-4.074,-3.951,-3.8299,-3.7439,0.0,0.0,0.0,0.0,0.0,0.0,0.0,0.0,0.0,0.0,0.0,0.0,0.0,0.0,0.0,0.0,0.0,0.0,0.0,0.0,0.0,0.0,0.0,0.0,0.0,0.0,0.0,0.0,0.0,0.0,-2.5338,0.0,0.0,0.0,0.0,0.0,0.0,0.0,0.0,0.0,0.0,0.0,0.0,0.0,0.0,0.0,0.0,0.0,0.0,0.0,0.0,0.0,0.0,-3.0672,-3.2405,-3.4182,-3.5119,-3.5096,-3.5043,-3.4988,-3.4969,-3.4219,-3.3779,-3.3669,0.0,0.0,0.0,0.0,0.0,0.0,0.0,0.0,0.0,0.0,0.0,0.0,0.0,0.0,0.0,0.0,0.0,0.0,0.0,0.0,0.0,0.0,0.0,0.0,0.0,0.0,-2.7955,-2.7975,-2.8025,0.0,0.0,0.0,0.0,0.0,0.0,0.0,0.0,0.0,0.0,-3.9041,-4.0009,-4.0987,-4.1101,-4.1069,-4.1108,-4.1069,-4.0775,-3.995,-3.9133,-3.8294,0.0,0.0,0.0,0.0,0.0,0.0,0.0,0.0,0.0,0.0,0.0,0.0,0.0,0.0,0.0,0.0,0.0,0.0,0.0,0.0,0.0,0.0,0.0,0.0,0.0,0.0,0.0,-2.8364,-2.8718,0.0,0.0,0.0,0.0,0.0,0.0,0.0,0.0,0.0,0.0,0.0,-3.2572,-3.3369,0.0,0.0,0.0,0.0,0.0,0.0,0.0,0.0,0.0,0.0,0.0,0.0,-3.0662,-3.238,-3.4092,-3.4936,-3.484,-3.4762,-3.4682,-3.4609,-3.4354,-3.3708,-3.2618,0.0,0.0,0.0,0.0,0.0,0.0,0.0,0.0,0.0,0.0,0.0,0.0,0.0,0.0,0.0,0.0,0.0,0.0,0.0,0.0,0.0,0.0,0.0,0.0,0.0,-2.8838,0.0,0.0,0.0,0.0,0.0,0.0,0.0,0.0,0.0,0.0,0.0,-3.6708,-3.8889,-3.9482,-3.9836,-4.0179,-4.0233,-4.0049,0.0,0.0,0.0,0.0,0.0,0.0,0.0,0.0,0.0,0.0,0.0,0.0,0.0,0.0,-3.4336,-3.3203,-3.3223,-3.3437,-3.3418,0.0,0.0,0.0,0.0,0.0,0.0,0.0,0.0,0.0,0.0,0.0,0.0,0.0,0.0,-3.1252,0.0,-2.9723,0.0,0.0,0.0,0.0,0.0,0.0,0.0,0.0,-3.5593,-3.6141,-3.5771,-3.6551,-3.6407,0.0,-3.5471,-3.3808,0.0,0.0,0.0,0.0,0.0,0.0,0.0,0.0,-3.0929,-3.2373,-3.3979,-3.474,-3.4615,-3.4517,-3.4427,-3.4328,-3.4328,-3.3705,-3.2406,-3.1396,-3.0198,0.0,0.0,0.0,0.0,0.0,0.0,0.0,0.0,0.0,0.0,0.0,0.0,0.0,0.0,0.0,0.0,0.0,0.0,0.0,0.0,0.0,0.0,0.0,-2.9634,0.0,0.0,0.0,0.0,0.0,0.0,0.0,0.0,0.0,-3.6421,-3.7178,-3.835,-4.0206,-4.0226,-3.9979,-3.9754,0.0,0.0,0.0,0.0,0.0,0.0,0.0,-3.7698,-3.7973,-3.7803,-3.7641,-3.7704,-3.7271,-3.689,-3.691,0.0,0.0,-3.5859,-3.5859,-3.6055,-3.6055,-3.5801,-3.543,-3.4863,-3.451,-3.4387,0.0,0.0,0.0,0.0,0.0,0.0,0.0,0.0,-3.5321,-3.5048,0.0,-3.257,0.0,0.0,0.0,0.0,0.0,-3.211,0.0,0.0,-3.7986,-3.8811,-3.8891,-3.959,-3.9209,-3.7825,-3.7728,-3.6828,-3.5167,-3.3103,0.0,0.0,0.0,0.0,0.0,0.0,-3.145,-3.2373,-3.3828,-3.458,-3.4484,-3.4293,-3.4197,-3.4185,-3.4185,-3.3814,-3.3066,-3.3025,-3.1916,-2.9439,-2.9217,0.0,0.0,0.0,0.0,0.0,0.0,0.0,0.0,0.0,0.0,0.0,0.0,0.0,0.0,0.0,0.0,0.0,0.0,0.0,0.0,-2.9812,0.0,0.0,0.0,0.0,0.0,0.0,0.0,0.0,0.0,0.0,-3.8897,-3.9242,-3.9977,-4.1686,0.0,0.0,0.0,0.0,-3.9381,-3.8512,-3.8376,-3.8097,-3.7296,-3.7844,-3.8101,-3.7343,0.0,0.0,-3.8585,-3.8619,-3.8677,-3.8663,-3.8706,-3.8397,-3.7597,-3.8047,-3.8535,-3.8555,-3.7891,-3.7402,-3.7285,-3.6581,-3.6302,-4.1821,0.0,0.0,0.0,0.0,-3.7864,-3.8164,-3.7803,-3.7685,-3.7465,-3.698,-3.4729,0.0,0.0,0.0,0.0,0.0,0.0,-3.6494,-3.852,-4.0192,-4.0749,-4.0331,-4.0533,-4.0159,-3.9246,-3.8718,-3.7952,-3.6924,-3.632,-3.45,-3.1554,0.0,0.0,0.0,0.0,-3.226,-3.3097,-3.3985,-3.4393,-3.4221,-3.4061,-3.3959,-3.3921,-3.3959,-3.3874,-3.364,-3.3149,-3.2544,-3.1787,-3.009,0.0,0.0,0.0,0.0,0.0,0.0,0.0,0.0,0.0,0.0,0.0,0.0,0.0,0.0,0.0,0.0,0.0,0.0,0.0,-3.1396,-3.1775,-3.1922,0.0,0.0,0.0,0.0,0.0,0.0,0.0,0.0,0.0,-4.0568,-4.0471,-4.0432,0.0,0.0,-4.0432,-3.9636,-3.9544,-3.9251,-3.8399,-3.8262,0.0,0.0,-3.8077,-3.8387,-3.8752,-3.9592,-4.0213,-4.0278,-4.0307,-4.0342,-4.0381,-4.0393,-4.0285,-4.0057,-3.9726,-3.9551,-3.9512,-3.9316,-3.8926,-3.8359,-3.8007,-3.7907,-4.5621,-4.3369,-4.2318,-4.1398,-4.071,-4.1335,-4.1339,-4.0902,-4.0334,-3.9824,-3.9256,-3.7056,-3.5913,-3.5603,-3.446,0.0,0.0,0.0,-3.8313,-4.0077,-4.0872,-4.1233,-4.121,-4.0968,-4.0522,-3.9852,-3.9451,-3.882,-3.8048,-3.7761,-3.6676,-3.4737,0.0,0.0,-3.1984,-3.2422,-3.2876,-3.3381,-3.3979,-3.4245,-3.408,-3.3965,-3.3847,-3.3807,-3.3847,-3.3855,-3.3855,-3.3408,-3.3004,-3.2672,-3.1212,-2.9862,0.0,0.0,0.0,0.0,0.0,0.0,0.0,0.0,0.0,0.0,0.0,-2.5663,-2.6366,0.0,0.0,0.0,-3.0069,-3.1732,-3.388,-3.3757,0.0,0.0,0.0,0.0,0.0,0.0,0.0,-3.8599,-3.9015,-3.9761,-4.1206,-4.0833,-4.0575,-4.1038,-4.0819,-4.0326,-3.9541,0.0,-3.9142,-3.8297,-3.8163,-3.8157,-3.8156,-3.8453,-3.8974,-3.9823,-4.0411,-4.0824,-4.0917,-4.0953,-4.0981,-4.1039,-4.1066,-4.1067,-4.1103,-4.0679,-4.0389,-4.041,-4.041,-4.0234,-3.9726,-3.9628,-3.9588,-4.8409,-4.8429,-4.619,-4.504,-4.4698,-4.4689,-4.4325,-4.3732,-4.2996,-4.2068,-4.096,-3.9296,-3.8143,-3.7403,-3.6945,0.0,-3.806,-3.8413,-3.9449,-4.0925,-4.0521,-4.0744,-4.1524,-4.0941,-4.0349,-3.9792,-3.9797,-3.9423,-3.867,-3.797,-3.7559,-3.7429,-3.5412,-3.3572,-3.2128,-3.2854,-3.3283,-3.3283,-3.3804,-3.4093,-3.4074,-3.3895,-3.3788,-3.3775,-3.3775,-3.3793,-3.3793,-3.3726,-3.3342,-3.2615,-3.2388,-3.1179,-2.884,0.0,0.0,0.0,0.0,0.0,0.0,0.0,0.0,0.0,0.0,0.0,0.0,0.0,0.0,0.0,-3.2972,0.0,-3.6307,-3.576,0.0,0.0,0.0,-3.6731,-3.685,-3.8363,-3.9768,-4.0841,0.0,0.0,-4.1138,-4.0622,-4.053,-4.143,-4.0941,-4.0227,-3.9495,-3.9466,-3.9198,-3.8503,-3.8337,-3.8311,-3.8491,-3.9031,-3.9739,-4.0468,-4.0681,-4.0706,-4.0771,-4.0708,-4.0824,-4.0832,-4.0831,-4.0752,-4.0846,-4.074,-4.0906,-4.0839,-4.0957,-4.1016,-4.0762,-4.0664,-4.0584,-4.8875,-4.9017,-4.8532,-4.7578,-4.6334,-4.6402,-4.5674,-4.442,-4.3692,-4.2708,-4.1508,-3.9792,-3.8604,-3.7837,-3.782,-3.8367,-3.9299,-3.9494,-3.9931,-4.0525,-4.0518,-4.0517,-4.0452,-3.986,-3.96,-3.9619,-3.9079,-3.8792,-3.8673,-3.8505,-3.7786,-3.6626,-3.6118,-3.5127,-3.367,-3.3271,-3.3078,-3.3078,-3.3104,-3.3358,-3.3868,-3.3834,-3.378,-3.3726,-3.3726,-3.3698,-3.3643,-3.3577,-3.3447,-3.3176,-3.2491,-3.1459,-3.0166,-2.8812,0.0,0.0,0.0,0.0,0.0,0.0,0.0,0.0,0.0,-2.7938,-2.9883,0.0,-3.1869,0.0,-3.5275,-3.6836,-3.7869,-3.7796,0.0,0.0,-3.8603,-3.9142,-3.9205,-4.0189,-4.1037,-4.146,-4.1392,-4.1217,-4.0952,-4.0844,-4.0683,-4.0441,-4.0376,-4.0309,-4.021,-4.0226,-4.0173,-3.9954,-3.9865,-3.9923,-3.9903,-4.0077,-4.0303,-4.0571,-4.0624,-4.0653,-4.0707,-4.0228,-3.9865,-3.9864,-3.9364,-3.9022,-3.9082,-3.9082,-3.914,-3.9183,-3.9702,-3.9999,-3.9375,-3.9219,-3.9219,-4.8712,-4.9005,-4.9222,-4.8524,-4.7283,-4.7089,-4.6369,-4.5261,-4.3664,-4.2535,-4.1702,-4.0235,-3.9365,-3.894,-3.9078,-3.9436,-3.998,-4.0162,-4.0181,-4.0021,-3.9909,-3.9626,-3.9189,-3.8706,-3.8616,-3.8873,-3.8601,-3.8494,-3.8609,-3.8658,-3.8065,-3.6868,-3.6511,-3.5399,-3.3561,-3.3105,-3.274,-3.2381,-3.2588,-3.3038,-3.3675,-3.3712,-3.352,-3.3104,-3.3054,-3.2848,-3.2423,-3.2306,-3.2224,-3.2151,-3.1834,-3.1235,-3.0376,-2.9649,-2.8691,0.0,0.0,0.0,0.0,0.0,0.0,0.0,0.0,0.0,0.0,0.0,-3.4249,-3.6231,-3.7728,-3.8964,-3.9882,-4.0281,-4.0423,-4.0195,-4.0938,-4.1317,-4.105,-4.1809,-4.2414,-4.2652,-4.2389,-4.195,-4.1285,-4.0953,-4.0521,-3.9864,-3.9927,-4.012,-4.0362,-4.0405,-4.0422,-4.0444,-4.0452,-4.046,-4.0495,-4.05,-4.0523,-4.0558,-4.0546,-4.0472,-4.0137,-3.9721,-3.9322,-3.9019,-3.8577,-3.8277,-3.8354,-3.8393,-3.835,-3.8079,-3.8337,-3.8625,-3.8612,-3.8613,-3.8613,-4.8213,-4.8623,-4.8976,-4.8578,-4.7694,-4.7094,-4.6497,-4.5837,-4.3312,-4.1971,-4.1525,-4.0535,-4.0113,-4.0096,-4.0213,-4.0263,-4.0288,-4.0527,-4.0185,-3.9392,-3.896,-3.8498,-3.7892,-3.7618,-3.7667,-3.7967,-3.8219,-3.8399,-3.8476,-3.859,-3.8233,-3.7364,-3.6648,-3.5073,-3.268,-3.2685,-3.2342,-3.1549,-3.2296,-3.3003,-3.3559,-3.3563,-3.3174,-3.2446,-3.2272,-3.1854,-3.1026,-3.0848,-3.0731,-3.0662,-3.1062,-3.0917,-3.0129,-3.0594,-3.0197,0.0,-2.8579,0.0,0.0,0.0,0.0,0.0,0.0,0.0,0.0,-3.4791,-3.72,-3.9133,-4.0125,-4.1067,-4.2049,-4.281,-4.2975,-4.2341,-4.2869,-4.3032,-4.2513,-4.3024,-4.3549,-4.38,-4.313,-4.2397,-4.1679,-4.0947,-4.0219,-3.9589,-3.9568,-3.9777,-4.011,-4.0224,-4.0289,-4.0353,-4.0274,-4.0089,-4.0016,-4.0065,-4.005,-4.0096,-4.0046,-3.9919,-3.9244,-3.9001,-3.8733,-3.8177,-3.7866,-3.7796,-3.7953,-3.7951,-3.777,-3.7136,-3.7071,-3.7336,-3.7945,-3.8125,-3.8281,-4.7591,-4.8097,-4.8476,-4.8162,-4.7403,-4.6324,-4.5535,-4.4853,-4.3107,-4.163,-4.0442,-4.0189,-4.0113,-4.0113,-4.0121,-4.0121,-4.0121,-4.0188,-3.9532,-3.8291,-3.8328,-3.777,-3.6849,-3.6948,-3.7262,-3.7667,-3.7967,-3.8203,-3.8415,-3.8512,-3.7857,-3.656,-3.6358,-3.5027,-3.265,0.0,0.0,0.0,-3.2598,-3.336,-3.3437,-3.3327,-3.3163,-3.2943,-3.2224,0.0,-3.1474,-3.1241,-3.1047,-3.0948,-3.1481,0.0,0.0,0.0,0.0,0.0,0.0,0.0,0.0,0.0,0.0,0.0,-3.5196,-3.5667,-3.5326,-3.7758,-3.9812,-4.0926,-4.1995,-4.3027,-4.3903,-4.4223,-4.4153,-4.3633,-4.3672,-4.3551,-4.3014,-4.3087,-4.3251,-4.3373,-4.2797,-4.2092,-4.1393,-4.07,-3.9983,-3.93,-3.9285,-3.9452,-3.9609,-3.9897,-4.0147,-4.0129,-3.9661,-3.9026,-3.8408,-3.8386,-3.8495,-3.8389,-3.8385,-3.8381,-3.8257,-3.7668,-3.7259,-3.7057,-3.6473,-3.6086,-3.6151,-3.6172,-3.629,-3.6087,-3.6138,-3.6216,-3.6456,-3.6502,-3.6484,-4.7004,0.0,-4.8053,-4.7589,0.0,-4.5673,-4.4545,-4.3148,-4.2153,-4.0971,-3.9824,-3.9884,-3.9858,-3.9824,-3.9935,-3.9986,-4.0011,-4.007,-3.9308,-3.7967,-3.805,-3.7456,-3.6255,-3.6553,-3.6895,-3.7262,-3.7631,-3.7932,-3.8203,-3.8336,-3.7831,-3.6753,-3.6351,-3.5096,-3.3044,-3.2407,-3.191,-3.1498,-3.2216,-3.2718,-3.3052,-3.2943,-3.2686,-3.2216,0.0,0.0,0.0,0.0,0.0,0.0,0.0,0.0,0.0,0.0,0.0,-3.1981,-3.2547,-3.3215,-3.3944,-3.4663,-3.5385,-3.6129,-3.7242,-3.7874,-3.7735,-3.9388,-4.0793,-4.1708,-4.2741,-4.3562,-4.4137,-4.4325,-4.4159,-4.3599,-4.3573,-4.3353,-4.2812,-4.2785,-4.2899,-4.2922,-4.2467,-4.1806,-4.1052,-4.0441,-3.9755,-3.9039,-3.905,-3.9016,-3.8805,-3.9354,-3.9757,-3.9388,-3.8737,-3.8127,-3.7773,-3.7712,-3.7736,-3.7795,-3.7827,-3.7705,-3.7413,-3.6998,-3.6608,-3.6252,-3.5784,-3.5515,-3.5547,-3.5614,-3.567,-3.5732,-3.5811,-3.5885,-3.5953,-3.5983,-3.6013,-4.6528,-4.7331,-4.772,-4.6981,-4.5489,-4.5176,-4.3664,-4.1383,0.0,0.0,0.0,-3.9494,-3.9494,-3.9415,-3.9651,-3.9807,-3.9858,-4.0011,-3.9285,-3.7922,-3.795,-3.7274,-3.601,-3.6255,-3.655,-3.6838,-3.728,-3.7631,-3.7915,-3.8139,-3.7856,-3.7153,-3.6477,-3.5287,-3.3614,-3.2609,-3.2043,-3.1931,-3.1771,-3.2067,-3.2763,-3.2699,-3.2403,-3.1809,-3.1532,-3.101,-3.0283,-3.0092,-2.9968,-2.988,-3.1011,-3.1661,-3.1712,-3.2886,-3.366,-3.3791,-3.4489,-3.5233,-3.5955,-3.6738,-3.7523,-3.8244,-3.8836,-3.9246,-3.9422,-4.024,-4.1074,-4.1888,-4.2836,-4.3499,-4.3715,-4.3863,-4.3668,-4.3023,-4.3059,-4.2871,-4.2234,-4.2295,-4.242,-4.2343,-4.1847,-4.1252,-4.0454,-3.9858,-3.9362,-3.8789,-3.8641,-3.8465,-3.7905,-3.839,-3.8733,-3.8085,-3.7471,-3.7126,-3.7033,-3.7005,-3.7184,-3.7075,-3.7175,-3.71,-3.6635,-3.6446,-3.6192,-3.5652,-3.5486,-3.5488,-3.5489,-3.5547,-3.5596,-3.5676,-3.5728,-3.5803,-3.5859,-3.5929,-3.5984,-4.6315,-4.7384,-4.7375,-4.6534,-4.5134,-4.4946,-4.3102,-4.0252,-3.9927,-3.9523,-3.905,-3.8969,-3.8996,-3.9094,-3.9249,-3.9461,-3.9729,-3.9858,-3.921,0.0,-3.7889,-3.7187,-3.5873,-3.5997,-3.6233,-3.6568,-3.6856,-3.7207,-3.7631,-3.7846,-3.7623,-3.6998,-3.6832,-3.5802,-3.4038,-3.3491,-3.2879,-3.2109,-3.2177,-3.2529,-3.3176,-3.303,-3.3196,-3.3646,-3.2886,-3.2427,-3.2286,-3.2078,-3.1995,-3.1975,-3.269,-3.3123,-3.3139,-3.3901,-3.4624,-3.5261,-3.6045,-3.6789,-3.7533,-3.8278,-3.9005,-3.9723,-3.9893,-3.9714,-3.9163,-4.0441,-4.135,-4.1537,-4.2431,-4.3064,-4.3139,-4.3212,-4.2996,-4.2438,-4.2428,-4.2288,-4.1741,-4.177,-4.1658,-4.1261,-4.0578,-3.9979,-3.9391,-3.8774,-3.8401,-3.8281,-3.783,-3.7415,-3.6906,-3.6967,-3.6857,-3.6302,-3.6028,-3.5716,-3.5407,-3.5177,-3.539,-3.5362,-3.553,-3.5666,-3.5621,-3.5587,-3.5542,-3.5436,-3.5412,-3.5427,-3.5462,-3.5509,-3.5509,-3.5538,-3.5554,-3.5626,-3.5573,-3.5652,-3.5836,-4.5279,-4.6508,-4.661,-4.5858,-4.4448,-4.2966,-4.1209,-3.9394,-3.8761,-3.849,-3.8399,-3.8343,-3.8343,-3.8427,-3.8717,-3.9034,-3.9319,-3.925,-3.8715,-3.781,-3.7459,-3.6728,-3.5774,-3.5822,-3.5997,-3.6216,-3.655,-3.6836,-3.7166,-3.7447,-3.7434,-3.7148,-3.6719,-3.5705,-3.4305,-3.398,-3.3617,-3.3062,-3.2309,-3.2258,-3.2964,-3.2846,-3.313,-3.3834,-3.3419,-3.3202,-3.3202,-3.3043,-3.2944,-3.2944,-3.3613,-3.3998,-3.4015,-3.4692,-3.5453,-3.6214,-3.6975,-3.7719,-3.843,-3.9174,-3.9757,-4.0079,-4.0113,-3.9977,-3.9639,-4.0612,-4.129,-4.1307,-4.181,-4.2125,-4.2125,-4.1909,-4.1604,-4.1326,-4.1405,-4.1386,-4.1192,-4.1232,-4.1081,-4.0541,-3.9914,-3.9299,-3.8712,-3.8115,-3.7611,-3.7353,-3.6583,-3.5879,-3.5591,-3.5307,-3.5258,-3.5429,-3.5186,-3.4811,-3.4495,-3.4517,-3.4615,-3.472,-3.4849,-3.4955,-3.5073,-3.5126,-3.522,-3.5273,-3.5324,-3.5335,-3.5391,-3.5434,-3.5283,-3.4867,-3.489,-3.4828,-3.4483,-3.4373,-3.4622,-4.4222,-4.5687,-4.5745,-4.5019,-4.3605,-4.1096,-3.9492,-3.8663,-3.7806,-3.7474,-3.7519,-3.7565,-3.7608,-3.7725,-3.8128,-3.8528,-3.8789,-3.8572,-3.8137,-3.759,-3.7017,-3.636,-3.5645,-3.5706,-3.5839,-3.5975,-3.6272,-3.6506,-3.6713,-3.6989,-3.7164,-3.7135,-3.6528,-3.5652,-3.4596,-3.4419,-3.4169,-3.3785,-3.265,-3.2376,-3.3114,-3.3083,-3.3383,-3.4061,-3.4083,-3.4041,-3.4041,-3.3956,-3.3892,-3.3909,-3.4438,-3.4742,-3.4759,-3.5295,-3.5932,-3.6715,-3.7412,-3.8215,-3.91,-3.9674,-4.002,-4.0011,-4.0011,-3.9995,-4.0045,-4.0535,-4.0915,-4.095,-4.1061,-4.1112,-4.1087,-4.0729,-4.0395,-4.0395,-4.051,-4.0641,-4.0607,-4.0621,-4.0395,-3.9792,-3.9142,-3.8527,-3.8011,-3.7577,-3.7058,-3.6254,-3.5263,-3.4631,-3.4411,-3.3952,-3.4101,-3.4547,-3.4468,-3.4204,-3.4161,-3.4257,-3.4351,-3.4409,-3.4583,-3.471,-3.4821,-3.4936,-3.5029,-3.5098,-3.5185,-3.5226,-3.5254,-3.5109,-3.4827,-3.4351,-3.4103,-3.3786,-3.3348,-3.3058,-3.3268,-4.362,-4.508,-4.488,-4.4076,-4.279,-4.0424,-3.8924,-3.8019,-3.731,-3.6723,-3.6445,-3.6569,-3.6754,-3.7027,-3.7356,-3.7841,-3.8306,-3.8089,-3.7722,-3.7295,-3.6827,-3.6205,-3.5548,-3.5594,-3.5706,-3.5817,-3.5975,-3.617,-3.6343,-3.6489,-3.6609,-3.6655,-3.6539,-3.6021,-3.5203,-3.4929,-3.4455,-3.3666,-3.3371,-3.366,-3.4436,-3.4406,-3.4663,-3.5385,-3.5402,-3.5419,-3.5334,-3.5397,-3.538,-3.5397,-3.543,-3.5481,-3.5481,-3.5492,-3.5834,-3.6558,-3.7203,-3.8137,-3.9444,-3.9705,-3.9729,-3.9713,-3.9713,-3.9729,-3.9729,-3.9796,-3.9933,-4.0147,-4.0231,-4.0265,-4.0197,-4.0172,-4.0163,-4.0146,-4.0263,-4.033,-4.0269,-3.988,-3.9281,-3.8625,-3.8045,-3.7284,-3.6894,-3.6721,-3.6383,-3.5509,-3.461,-3.3946,-3.3563,-3.3498,-3.3509,-3.3733,-3.3771,-3.3952,-3.3998,-3.4055,-3.4161,-3.4221,-3.4358,-3.4484,-3.4594,-3.4687,-3.478,-3.4889,-3.4964,-3.5028,-3.4867,-3.4628,-3.4133,-3.3654,-3.3252,-3.2904,-3.2866,-3.2396,-3.2372,-4.2299,-4.3904,-4.3737,-4.3036,-4.1802,-4.0078,-3.8667,-3.749,-3.6784,-3.6243,-3.5926,-3.5925,-3.6132,-3.6492,-3.6861,-3.7254,-3.7587,-3.7067,-3.6796,-3.6706,-3.5966,-3.5512,-3.5417,-3.5498,-3.5594,-3.5684,-3.58,-3.591,-3.6019,-3.6229,-3.6335,-3.6377,-3.6335,-3.6053,-3.5591,-3.5484,-3.5227,-3.4808,-3.4726,-3.4878,-3.5142,-3.4764,-3.4844,-3.5515,-3.5616,-3.5616,-3.5616,-3.5616,-3.5616,-3.5616,-3.5616,-3.5577,-3.5543,-3.5514,-3.5765,-3.6363,-3.7336,-3.8343,-3.9325,-3.9408,-3.9425,-3.9425,-3.9345,-3.9265,-3.9292,-3.9212,-3.9249,-3.9451,-3.9687,-3.9858,-3.9841,-3.9935,-3.9986,-3.9986,-4.0087,-4.0188,-4.0171,-3.9576,-3.8918,-3.8229,-3.7524,-3.6835,-3.6242,-3.559,-3.5105,-3.462,-3.3846,-3.306,-3.2898,-3.3019,-3.3111,-3.3268,-3.3459,-3.3643,-3.3793,-3.3908,-3.3985,-3.4036,-3.4136,-3.4276,-3.4305,-3.4397,-3.4498,-3.4639,-3.472,-3.4584,-3.4187,-3.4013,-3.3636,-3.2858,-3.1835,-3.1288,-3.1392,-3.1176,-3.124,-4.1084,-4.2501,-4.2446,-4.1866,-4.091,-3.957,-3.8229,-3.703,-3.6321,-3.5911,-3.5688,-3.5604,-3.575,-3.6148,-3.643,-3.6769,-3.7007,-3.6469,-3.62,-3.6204,-3.5448,-3.5153,-3.5261,-3.5423,-3.5543,-3.56,-3.5689,-3.5734,-3.5756,-3.591,-3.6036,-3.6036,-3.6036,-3.5949,-3.5773,-3.5734,-3.5689,-3.5622,-3.5616,-3.5616,-3.5532,-3.5081,-3.5064,-3.5549,-3.5616,-3.5616,-3.5616,-3.5616,-3.5616,-3.5616,-3.5616,-3.5554,-3.5492,-3.5446,-3.5646,-3.6232,-3.7107,-3.8051,-3.8897,-3.8963,-3.8952,-3.8909,-3.8816,-3.8733,-3.8678,-3.8611,-3.8595,-3.8706,-3.9061,-3.9276,-3.9556,-3.9703,-3.9772,-3.9798,-3.9926,-3.9969,-3.9952,-3.9193,-3.8374,-3.7879,-3.6981,-3.6339,-3.5798,-3.4808,-3.3999,-3.4152,-3.312,-3.2266,-3.247,-3.2602,-3.2716,-3.2914,-3.3101,-3.3342,-3.3587,-3.3739,-3.3788,-3.3855,-3.3947,-3.4023,-3.4049,-3.4161,-3.4245,-3.4386,-3.445,-3.4228,-3.3688,-3.3411,-3.2712,-3.1335,-3.0494,-3.023,-3.0416,-3.0318,-3.0393,-4.0173,-4.1329,-4.0988,-4.0592,-3.9962,-3.8605,-3.7452,-3.6584,-3.599,-3.572,-3.572,-3.5688,-3.5831,-3.6068,-3.6242,-3.6523,-3.692,-3.6658,-3.6362,-3.6082,-3.5754,-3.5448,-3.5145,-3.536,-3.5543,-3.56,-3.5622,-3.5622,-3.5622,-3.5644,-3.5622,-3.5644,-3.5684,-3.5644,-3.5639,-3.5622,-3.5622,-3.56,-3.5616,-3.5616,-3.56,-3.5549,-3.5515,-3.56,-3.5616,-3.5616,-3.5616,-3.5616,-3.5616,-3.5616,-3.5616,-3.5571,-3.5492,-3.5261,-3.5513,-3.6277,-3.6371,-3.6972,-3.8193,-3.842,-3.8331,-3.8201,-3.81,-3.8071,-3.7956,-3.7915,-3.7915,-3.7943,-3.8071,-3.8439,-3.9017,-3.9292,-3.9458,-3.9484,-3.9642,-3.9703,-3.9687,-3.8464,-3.7676,-3.7332,-3.6303,-3.5541,-3.5509,-3.432,-3.3696,-3.3514,-3.2676,-3.1893,-3.2073,-3.2231,-3.2352,-3.2522,-3.2702,-3.297,-3.3368,-3.3545,-3.3615,-3.3698,-3.3762,-3.3829,-3.3895,-3.3972,-3.4036,-3.4111,-3.4185,-3.3922,-3.3246,-3.2411,-3.1419,-3.0518,-3.0134,-2.9932,-2.9988,-3.0101,-3.0194,-3.9991,-4.0629,-4.0724,-4.0391,-3.9719,-3.8726,-3.7723,-3.6772,-3.5997,-3.572,-3.572,-3.5831,-3.6085,-3.6476,-3.6585,-3.6662,-3.6646,-3.6444,-3.6365,-3.6266,-3.5651,-3.5414,-3.561,-3.5455,-3.5452,-3.5577,-3.5616,-3.5616,-3.5616,-3.5616,-3.5616,-3.5616,-3.5616,-3.5616,-3.5616,-3.5616,-3.5616,-3.5616,-3.5616,-3.5616,-3.5616,-3.5616,-3.5616,-3.5616,-3.5616,-3.5616,-3.5616,-3.5616,-3.5616,-3.5616,-3.5616,-3.5549,-3.5388,-3.5281,-3.5705,-3.6605,-3.6584,-3.6837,-3.7597,-3.7669,-3.761,-3.7506,-3.7328,-3.7208,-3.7118,-3.7074,-3.7043,-3.7134,-3.7194,-3.7431,-3.7927,-3.8511,-3.8931,-3.8942,-3.9104,-3.9222,-3.9,-3.8074,-3.7211,-3.692,-3.5834,-3.4885,-3.4453,-3.3684,-3.3021,-3.2699,-3.1958,-3.1604,-3.169,-3.1802,-3.1912,-3.2109,-3.2301,-3.2487,-3.2669,-3.3129,-3.3368,-3.3502,-3.3587,-3.3629,-3.3698,-3.3748,-3.3829,-3.3895,-3.3959,-3.3494,-3.2715,-3.1229,-3.0263,-2.9979,-2.9617,-2.9699,-2.9725,-2.9888,-2.9992,-4.0083,-4.0076,-4.0335,-4.009,-3.9428,-3.8834,-3.7913,-3.6874,-3.6295,-3.5963,-3.5925,-3.6116,-3.6492,-3.6922,-3.7133,-3.7147,-3.7012,-3.6798,-3.673,-3.6713,-3.6142,-3.6032,-3.6282,-3.6117,-3.5977,-3.5949,-3.5701,-3.5616,-3.5616,-3.5616,-3.5616,-3.5616,-3.5616,-3.5616,-3.5616,-3.5616,-3.5616,-3.5616,-3.5616,-3.5616,-3.5616,-3.5616,-3.5616,-3.5616,-3.5616,-3.5616,-3.5616,-3.5616,-3.5616,-3.5616,-3.5616,-3.5588,-3.5589,-3.5695,-3.6091,-3.6777,-3.6648,-3.6693,-3.7053,-3.7059,-3.6952,-3.6876,-3.6677,-3.6538,-3.6476,-3.6383,-3.6383,-3.6476,-3.6538,-3.6646,-3.6937,-3.7506,-3.8001,-3.8258,-3.8556,-3.8608,-3.8374,-3.7423,-3.6528,-3.5796,-3.5028,-3.4267,-3.3716,-3.3115,-3.2541,-3.1989,-3.1409,-3.1148,-3.1349,-3.1445,-3.1559,-3.1711,-3.1912,-3.2038,-3.2197,-3.2537,-3.2925,-3.3096,-3.3313,-3.3371,-3.3459,-3.353,-3.3597,-3.3684,-3.34,-3.2873,-3.182,-3.0279,-2.9606,-2.9355,-2.9392,-2.9492,-2.957,-2.9672,-2.9779,-4.048,-3.9802,-3.9696,-3.9491,-3.9066,-3.8761,-3.7933,-3.6875,-3.6664,-3.6438,-3.6178,-3.6523,-3.6906,-3.7371,-3.7711,-3.7927,-3.7956,-3.7751,-3.746,-3.7198,-3.728,-3.7311,-3.7286,-3.7268,-3.7093,-3.6755,-3.6011,-3.565,-3.5718,-3.565,-3.5616,-3.5616,-3.5616,-3.565,-3.565,-3.5718,-3.5701,-3.5802,-3.5853,-3.5769,-3.5633,-3.5785,-3.5836,-3.5769,-3.5785,-3.5802,-3.5735,-3.565,-3.5633,-3.5684,-3.5684,-3.5845,-3.6278,-3.6519,-3.6722,-3.6794,-3.6498,-3.6418,-3.6646,-3.6569,-3.6399,-3.6305,-3.6196,-3.6116,-3.6037,-3.6005,-3.6005,-3.6037,-3.6132,-3.6196,-3.6242,-3.6461,-3.6892,-3.7553,-3.7886,-3.7814,-3.7182,-3.6453,-3.5433,-3.4236,-3.3797,-3.3627,-3.3072,-3.2518,-3.1991,-3.1467,-3.1024,-3.0794,-3.1055,-3.1134,-3.1288,-3.1443,-3.1578,-3.1673,-3.1802,-3.1983,-3.2335,-3.2651,-3.2912,-3.3086,-3.3178,-3.325,-3.3324,-3.3361,-3.2865,-3.2329,-3.1568,-3.0143,-2.9333,-2.9071,-2.9189,-2.9275,-2.9351,-2.9444,-2.9541,-4.0958,-4.0177,-3.9676,-3.9412,-3.9228,-3.8707,-3.7952,-3.7158,-3.6872,-3.6498,-3.6319,-3.6646,-3.7163,-3.7711,-3.8075,-3.8359,-3.8556,-3.8403,-3.8246,-3.8082,-3.7807,-3.7768,-3.7918,-3.7669,-3.753,-3.7425,-3.6789,-3.6417,-3.6315,-3.591,-3.5616,-3.5616,-3.5633,-3.5887,-3.64,-3.6434,-3.6637,-3.7144,-3.7172,-3.7172,-3.7195,-3.7172,-3.7195,-3.7195,-3.7195,-3.7195,-3.7144,-3.6174,-3.591,-3.64,-3.6434,-3.6794,-3.7419,-3.7484,-3.74,-3.7355,-3.6938,-3.6551,-3.6337,-3.6101,-3.5926,-3.5847,-3.5782,-3.5701,-3.5683,-3.5651,-3.5683,-3.5651,-3.5701,-3.575,-3.5863,-3.5879,-3.6242,-3.6785,-3.7118,-3.7028,-3.6269,-3.5259,-3.4207,-3.3334,-3.3044,-3.262,-3.1942,-3.151,-3.1228,-3.0548,-3.0282,-3.0363,-3.0634,-3.0794,-3.0915,-3.1131,-3.1232,-3.1349,-3.1485,-3.1617,-3.1859,-3.2179,-3.2453,-3.2687,-3.2816,-3.2928,-3.3021,-3.2844,-3.2339,-3.1707,-3.0926,-3.0044,-2.9138,-2.8827,-2.8922,-2.9003,-2.9082,-2.9192,-2.9291,-4.0853,-4.01,-3.946,-3.9228,-3.9256,-3.8808,-3.8322,-3.7768,-3.7327,-3.6927,-3.6687,-3.6923,-3.7401,-3.7886,-3.8307,-3.8544,-3.8722,-3.8611,-3.8544,-3.8407,-3.8231,-3.8251,-3.8574,-3.8213,-3.8068,-3.8063,-3.7527,-3.7195,-3.7178,-3.6721,-3.6445,-3.6462,-3.6445,-3.6705,-3.7161,-3.7212,-3.7466,-3.7872,-3.7865,-3.7898,-3.7905,-3.7898,-3.7898,-3.7882,-3.7882,-3.7898,-3.7838,-3.6918,-3.6688,-3.7161,-3.7455,-3.7906,-3.8362,-3.8299,-3.8122,-3.77,-3.7207,-3.6662,-3.6179,-3.5831,-3.5621,-3.5621,-3.5554,-3.5489,-3.5489,-3.5537,-3.5572,-3.5572,-3.5668,-3.5701,-3.5688,-3.572,-3.5863,-3.6084,-3.6445,-3.6198,-3.5361,-3.4076,-3.3178,-3.2612,-3.2465,-3.1878,-3.112,-3.0905,-3.0527,-2.9761,-2.9661,-2.9924,-3.0236,-3.0443,-3.063,-3.0794,-3.0935,-3.1058,-3.1176,-3.1312,-3.1447,-3.1711,-3.1984,-3.2197,-3.2352,-3.2505,-3.2587,-3.2341,-3.1918,-3.1225,-3.0474,-2.9386,-2.8487,-2.8582,-2.8657,-2.8743,-2.8827,-2.8945,-2.906,-4.0229,-3.9627,-3.9025,-3.8907,-3.9068,-3.906,-3.8752,-3.8352,-3.8092,-3.7615,-3.7272,-3.7327,-3.7569,-3.7931,-3.829,-3.8472,-3.8556,-3.8511,-3.8315,-3.8173,-3.825,-3.8569,-3.8987,-3.8847,-3.8791,-3.8706,-3.819,-3.7942,-3.7867,-3.7682,-3.7882,-3.7631,-3.7597,-3.7882,-3.7891,-3.7949,-3.8,-3.8227,-3.8176,-3.8176,-3.8176,-3.8142,-3.8142,-3.8176,-3.8193,-3.821,-3.821,-3.8091,-3.799,-3.8075,-3.8599,-3.8881,-3.879,-3.9032,-3.8723,-3.7943,-3.7251,-3.6616,-3.61,-3.5701,-3.5522,-3.5522,-3.5489,-3.5489,-3.5522,-3.5653,-3.5735,-3.5767,-3.5894,-3.5958,-3.5816,-3.5752,-3.5688,-3.5497,-3.567,-3.5309,-3.4225,-3.3016,-3.2303,-3.2096,-3.2033,-3.1732,-3.0536,-3.0619,-3.0086,-2.9454,-2.9277,-2.9483,-2.9832,-3.0027,-3.0279,-3.0447,-3.0572,-3.0757,-3.0878,-3.1035,-3.1157,-3.1312,-3.1579,-3.1748,-3.1966,-3.2109,-3.2214,-3.1948,-3.15,-3.0785,-3.0029,-2.9087,-2.8397,-2.8295,-2.8375,-2.8466,-2.8569,-2.8682,-2.8767,-3.9282,-3.9398,-3.869,-3.8575,-3.887,-3.9017,-3.8841,-3.8457,-3.8471,-3.7989,-3.7405,-3.7513,-3.7649,-3.7791,-3.7976,-3.8144,-3.8173,-3.8116,-3.7915,-3.7653,-3.7653,-3.8173,-3.8887,-3.9196,-3.9289,-3.9172,-3.8656,-3.8405,-3.8371,-3.7944,-3.7692,-3.7591,-3.7725,-3.7976,-3.8444,-3.8562,-3.8923,-3.9428,-3.952,-3.9445,-3.9445,-3.9445,-3.952,-3.9495,-3.9462,-3.9445,-3.9503,-3.9495,-3.9242,-3.8802,-3.9436,-3.9699,-3.9376,-3.9176,-3.8706,-3.7927,-3.7163,-3.6554,-3.6068,-3.5668,-3.5489,-3.5489,-3.5489,-3.5569,-3.5653,-3.5846,-3.5958,-3.6053,-3.6242,-3.6289,-3.6116,-3.5959,-3.5602,-3.4866,-3.4602,-3.4137,-3.3319,-3.2472,-3.1826,-3.1683,-3.1668,-3.1302,-3.0764,-3.0247,-2.9852,-2.9302,-2.8996,-2.8928,-2.9296,-2.9544,-2.9782,-3.0,-3.0172,-3.0384,-3.0572,-3.0733,-3.0871,-3.0975,-3.1157,-3.1351,-3.1598,-3.182,-3.1911,-3.1862,-3.1255,-3.0556,-2.9955,-2.9176,-2.8717,-2.8145,-2.8081,-2.8178,-2.8268,-2.8375,-2.8448,-3.8158,-3.8678,-3.8289,-3.8359,-3.8701,-3.8907,-3.8903,-3.8811,-3.8722,-3.8398,-3.7879,-3.7597,-3.7639,-3.7694,-3.7664,-3.7578,-3.7592,-3.7519,-3.7282,-3.6967,-3.6983,-3.7565,-3.8298,-3.8832,-3.9067,-3.9195,-3.892,-3.88,-3.8768,-3.8411,-3.8235,-3.8252,-3.8202,-3.8529,-3.9041,-3.9177,-3.9446,-3.9902,-4.0062,-4.0113,-4.0113,-4.0062,-3.9995,-3.9995,-3.9986,-3.9918,-3.9918,-3.9918,-3.975,-3.9589,-3.98,-3.9884,-3.9616,-3.9158,-3.8583,-3.7844,-3.7104,-3.6507,-3.6037,-3.5668,-3.5489,-3.5522,-3.5569,-3.5653,-3.5831,-3.6085,-3.6336,-3.6492,-3.6723,-3.6723,-3.6446,-3.5982,-3.5198,-3.433,-3.3622,-3.3096,-3.269,-3.2119,-3.1686,-3.1524,-3.1466,-3.127,-3.0681,-3.0162,-2.9633,-2.9139,-2.8646,-2.8657,-2.8795,-2.9029,-2.9266,-2.9515,-2.9716,-2.9897,-3.0113,-3.0284,-3.0489,-3.0613,-3.0834,-3.0998,-3.1254,-3.1504,-3.1615,-3.1515,-3.0932,-3.0437,-2.9955,-2.9363,-2.8628,-2.8196,-2.8017,-2.7856,-2.794,-2.8003,-2.8101,-3.6968,-3.7685,-3.7929,-3.8221,-3.8587,-3.8767,-3.9002,-3.9239,-3.9003,-3.8727,-3.8489,-3.7842,-3.7737,-3.7745,-3.7467,-3.7122,-3.6969,-3.6938,-3.6616,-3.6383,-3.643,-3.6876,-3.7608,-3.8042,-3.8371,-3.8606,-3.8832,-3.8887,-3.8842,-3.8912,-3.8989,-3.8803,-3.8879,-3.9146,-3.9219,-3.9428,-3.9687,-3.9816,-3.9961,-4.0011,-3.9986,-3.9884,-3.9807,-3.9755,-3.9609,-3.9582,-3.9582,-3.9609,-3.9662,-3.9978,-3.991,-3.9746,-3.9484,-3.904,-3.8444,-3.7743,-3.7059,-3.6476,-3.6037,-3.5701,-3.5489,-3.5522,-3.5621,-3.5799,-3.6022,-3.6399,-3.6754,-3.6982,-3.7282,-3.7252,-3.6858,-3.5876,-3.4881,-3.4016,-3.3126,-3.2602,-3.2288,-3.1854,-3.1496,-3.1496,-3.1496,-3.1182,-3.073,-3.0183,-2.9689,-2.9383,-2.886,-2.8639,-2.8633,-2.87,-2.8897,-2.9059,-2.9243,-2.9403,-2.9633,-2.9837,-3.0032,-3.0225,-3.0489,-3.0695,-3.0925,-3.1159,-3.131,-3.1217,-3.0931,-3.0647,-3.0293,-2.9575,-2.8835,-2.8246,-2.8044,-2.7776,-2.7576,-2.763,-2.7713,-3.6264,-3.7625,-3.7634,-3.815,-3.887,-3.8855,-3.9031,-3.9424,-3.9311,-3.9028,-3.8717,-3.8478,-3.8272,-3.805,-3.7536,-3.7182,-3.6997,-3.6613,-3.6242,-3.6053,-3.5894,-3.6101,-3.6677,-3.7222,-3.7682,-3.7915,-3.8173,-3.8298,-3.8327,-3.8311,-3.8327,-3.8327,-3.8355,-3.8511,-3.8777,-3.9023,-3.9309,-3.9563,-3.972,-3.9764,-3.9755,-3.9625,-3.9494,-3.9329,-3.9115,-3.9077,-3.9131,-3.9158,-3.9239,-3.9408,-3.954,-3.952,-3.9272,-3.886,-3.8303,-3.7639,-3.6968,-3.6383,-3.6005,-3.5716,-3.5489,-3.5522,-3.5621,-3.5816,-3.6148,-3.6585,-3.7058,-3.7462,-3.777,-3.7725,-3.7279,-3.6238,-3.5138,-3.4136,-3.323,-3.2435,-3.1869,-3.16,-3.1511,-3.1496,-3.1496,-3.1451,-3.1285,-3.0824,-3.0289,-2.9713,-2.9219,-2.8797,-2.8639,-2.8594,-2.8605,-2.8795,-2.892,-2.9106,-2.9205,-2.9416,-2.9639,-2.9815,-3.0087,-3.0279,-3.0518,-3.0784,-3.0918,-3.1038,-3.1108,-3.0794,-3.0498,-3.0127,-2.9448,-2.8784,-2.8167,-2.7975,-2.7799,-2.7621,-2.7509,-3.6312,-3.7796,-3.8408,-3.9064,-3.9654,-3.9511,-3.9602,-3.9777,-3.9493,-3.9266,-3.8977,-3.8712,-3.8525,-3.8368,-3.7749,-3.7294,-3.6821,-3.6196,-3.5829,-3.5748,-3.5668,-3.575,-3.5943,-3.6368,-3.6784,-3.7164,-3.7358,-3.746,-3.7504,-3.7533,-3.7533,-3.7578,-3.7608,-3.7841,-3.8144,-3.8483,-3.8816,-3.9131,-3.9372,-3.9461,-3.9451,-3.9265,-3.8996,-3.8717,-3.8495,-3.8427,-3.8567,-3.8567,-3.8623,-3.8717,-3.8854,-3.8996,-3.8903,-3.8472,-3.7931,-3.7328,-3.6739,-3.6211,-3.591,-3.5651,-3.5489,-3.5489,-3.5621,-3.5894,-3.6227,-3.6708,-3.7252,-3.7727,-3.8062,-3.8144,-3.7722,-3.6609,-3.5495,-3.4374,-3.3363,-3.2449,-3.1748,-3.1496,-3.1539,-3.1612,-3.1655,-3.1683,-3.1573,-3.1306,-3.101,-3.0453,-2.9577,-2.9141,-2.8941,-2.8832,-2.8563,-2.8621,-2.87,-2.8803,-2.8873,-2.9044,-2.9273,-2.947,-2.9627,-2.9804,-2.9989,-3.0246,-3.051,-3.0699,-3.0902,-3.0931,-3.0639,-3.0306,-2.9989,-2.9454,-2.8898,-2.8492,-2.8271,-2.8305,-2.8099,-3.6987,-3.8306,-3.955,-4.0285,-4.0603,-4.0379,-4.0271,-4.0277,-3.9828,-3.9529,-3.9334,-3.8781,-3.8737,-3.8632,-3.811,-3.7398,-3.6643,-3.6097,-3.5794,-3.5584,-3.5522,-3.5619,-3.5718,-3.5831,-3.6022,-3.6476,-3.6646,-3.6754,-3.6814,-3.6784,-3.6845,-3.686,-3.6967,-3.7208,-3.7506,-3.7899,-3.8286,-3.8623,-3.8854,-3.8963,-3.8963,-3.8761,-3.8427,-3.7969,-3.7725,-3.7725,-3.7841,-3.7883,-3.7927,-3.7956,-3.7927,-3.8071,-3.8116,-3.7931,-3.7403,-3.6906,-3.6461,-3.6085,-3.5784,-3.5604,-3.5489,-3.5489,-3.5606,-3.5847,-3.6227,-3.6754,-3.7282,-3.7857,-3.8246,-3.8488,-3.8124,-3.7252,-3.605,-3.4883,-3.3708,-3.2673,-3.1883,-3.1585,-3.1583,-3.1727,-3.1798,-3.1855,-3.1916,-3.1778,-3.1554,-3.119,-3.0264,-2.9562,-2.9401,-2.9115,-2.8855,-2.8668,-2.8771,-2.87,-2.8732,-2.8842,-2.9052,-2.9082,-2.9259,-2.9335,-2.9477,-2.9683,-2.9968,-3.0447,-3.0658,-3.067,-3.0664,-3.0403,-3.0127,-2.9883,-2.9484,-2.8952,-2.8872,-2.9012,-2.8659,-3.8254,-3.9633,-4.0139,-4.0747,-4.1361,-4.1083,-4.0733,-4.0405,-4.0277,-3.9918,-3.9403,-3.9254,-3.92,-3.905,-3.8577,-3.7648,-3.6772,-3.6369,-3.6055,-3.5711,-3.5636,-3.5701,-3.5731,-3.5761,-3.5769,-3.578,-3.6096,-3.6364,-3.6305,-3.6321,-3.6321,-3.6305,-3.6383,-3.6569,-3.6892,-3.7208,-3.7623,-3.7972,-3.8185,-3.8254,-3.8226,-3.8071,-3.7754,-3.7207,-3.6967,-3.6967,-3.7087,-3.7117,-3.7193,-3.7328,-3.7193,-3.7103,-3.7118,-3.7194,-3.7013,-3.6677,-3.6258,-3.5894,-3.5623,-3.5572,-3.5489,-3.5522,-3.5621,-3.5816,-3.6196,-3.6677,-3.7222,-3.787,-3.8415,-3.8711,-3.8528,-3.7821,-3.6954,-3.5753,-3.451,-3.3439,-3.2511,-3.1884,-3.1627,-3.1784,-3.1912,-3.2066,-3.2195,-3.2319,-3.2291,-3.2018,-3.1416,-3.0658,-3.0242,-2.9753,-2.9202,-2.9029,-2.892,-2.8779,-2.8653,-2.874,-2.8858,-2.8795,-2.8865,-2.8912,-2.902,-2.9136,-2.9438,-2.9837,-3.0182,-3.0356,-3.0336,-3.0315,-3.0177,-2.9869,-2.9579,-2.9321,-2.9314,-2.9288,-2.8969,-3.9522,-4.0646,-4.1328,-4.188,-4.2258,-4.193,-4.1443,-4.0905,-4.0546,-3.9964,-3.9414,-3.9228,-3.9104,-3.8884,-3.8641,-3.7887,-3.7183,-3.6837,-3.6603,-3.6354,-3.6425,-3.6391,-3.628,-3.6294,-3.6189,-3.6156,-3.6246,-3.6144,-3.5889,-3.5829,-3.5861,-3.5846,-3.5894,-3.607,-3.6336,-3.6677,-3.6983,-3.7284,-3.7431,-3.7474,-3.7474,-3.7312,-3.6921,-3.6616,-3.6352,-3.6367,-3.6492,-3.6554,-3.6585,-3.6662,-3.6585,-3.6476,-3.6399,-3.632,-3.6274,-3.6148,-3.591,-3.5589,-3.5379,-3.5311,-3.5359,-3.5359,-3.5507,-3.5686,-3.599,-3.6445,-3.7118,-3.7927,-3.8455,-3.8777,-3.8694,-3.8258,-3.7361,-3.6133,-3.4918,-3.3801,-3.2839,-3.2002,-3.1775,-3.1841,-3.1996,-3.2234,-3.2664,-3.281,-3.2966,-3.279,-3.241,-3.1789,-3.1118,-3.0462,-2.9799,-2.9405,-2.9273,-2.9129,-2.8943,-2.8889,-2.8858,-2.874,-2.8581,-2.8629,-2.8605,-2.8732,-2.8858,-2.9081,-2.9451,-2.9843,-3.0016,-2.9956,-2.9899,-2.9889,-2.9807,-2.9687,-2.9636,-2.9493,-2.9228,-4.0646,-4.1603,-4.2389,-4.285,-4.2986,-4.2737,-4.2102,-4.1331,-4.0771,-3.9951,-3.9039,-3.8907,-3.8701,-3.8478,-3.8316,-3.801,-3.7455,-3.7199,-3.7074,-3.6971,-3.7045,-3.7085,-3.6976,-3.6886,-3.6628,-3.6216,-3.6189,-3.6054,-3.5703,-3.5576,-3.5508,-3.5504,-3.5589,-3.572,-3.5958,-3.6211,-3.6414,-3.6585,-3.6693,-3.6753,-3.6708,-3.6476,-3.6289,-3.6116,-3.5973,-3.5973,-3.6101,-3.6133,-3.6133,-3.6133,-3.6101,-3.6053,-3.5814,-3.5554,-3.5377,-3.5379,-3.5344,-3.5115,-3.4949,-3.4983,-3.5096,-3.5148,-3.5326,-3.5507,-3.5831,-3.6352,-3.7058,-3.8014,-3.8539,-3.8722,-3.8667,-3.8387,-3.763,-3.6513,-3.5191,-3.3935,-3.3079,-3.2345,-3.176,-3.1826,-3.2066,-3.2373,-3.2773,-3.316,-3.3313,-3.3358,-3.3013,-3.2458,-3.1794,-3.1206,-3.0551,-2.9938,-2.9655,-2.9515,-2.9357,-2.9175,-2.9059,-2.8897,-2.8661,-2.8518,-2.8429,-2.8348,-2.8462,-2.8574,-2.8818,-2.9189,-2.9393,-2.9611,-2.9565,-2.9648,-2.9919,-2.9961,-2.9704,-2.9681,-2.9587,-4.1437,-4.2295,-4.2581,-4.293,-4.3235,-4.3185,-4.2375,-4.1216,-4.1014,-4.006,-3.8553,-3.8389,-3.815,-3.7924,-3.7901,-3.7653,-3.7367,-3.7317,-3.7256,-3.7105,-3.7072,-3.7002,-3.6643,-3.6378,-3.6382,-3.615,-3.5904,-3.5682,-3.5563,-3.557,-3.5505,-3.54,-3.5395,-3.5424,-3.5838,-3.5997,-3.5958,-3.6226,-3.632,-3.6335,-3.6303,-3.608,-3.592,-3.5823,-3.5711,-3.5694,-3.5808,-3.578,-3.572,-3.5752,-3.5752,-3.5606,-3.5344,-3.5115,-3.4702,-3.452,-3.4534,-3.4683,-3.4467,-3.4582,-3.475,-3.4868,-3.5115,-3.5362,-3.5799,-3.6368,-3.7072,-3.7828,-3.8315,-3.8611,-3.86,-3.8448,-3.7895,-3.6882,-3.5528,-3.4482,-3.3577,-3.2511,-3.197,-3.1784,-3.1968,-3.2401,-3.2812,-3.324,-3.3575,-3.3641,-3.3575,-3.3006,-3.2406,-3.1733,-3.1041,-3.0364,-3.0027,-2.9913,-2.9826,-2.9627,-2.9364,-2.9159,-2.8834,-2.8542,-2.8365,-2.8275,-2.8094,-2.8235,-2.8414,-2.855,-2.8772,-2.8958,-2.9129,-2.9289,-2.9409,-2.9544,-2.9607,-2.9673,-2.9647,-4.1296,-4.2433,-4.2714,-4.305,-4.3305,-4.3305,-4.2494,-4.1273,-4.095,-3.9883,-3.8339,-3.7825,-3.7404,-3.6964,-3.6847,-3.6863,-3.6944,-3.7229,-3.7502,-3.7521,-3.75,-3.7441,-3.7279,-3.6954,-3.6618,-3.6065,-3.5903,-3.5593,-3.5534,-3.5612,-3.5726,-3.5707,-3.5672,-3.5741,-3.598,-3.6094,-3.6225,-3.6411,-3.6589,-3.6703,-3.6667,-3.647,-3.6287,-3.6272,-3.5941,-3.5778,-3.5707,-3.5383,-3.5264,-3.5249,-3.5249,-3.5184,-3.5016,-3.4735,-3.4351,-3.3831,-3.3722,-3.3736,-3.3805,-3.4059,-3.4264,-3.452,-3.4835,-3.5297,-3.5799,-3.6258,-3.6891,-3.7743,-3.8046,-3.8303,-3.846,-3.8375,-3.7915,-3.7056,-3.5821,-3.4894,-3.3925,-3.287,-3.2137,-3.1983,-3.1885,-3.2267,-3.257,-3.2834,-3.3235,-3.3582,-3.3636,-3.3405,-3.2695,-3.1941,-3.1276,-3.0605,-3.0405,-3.0321,-3.0236,-3.0108,-2.981,-2.9544,-2.9159,-2.8834,-2.847,-2.8268,-2.8128,-2.788,-2.7875,-2.8033,-2.8189,-2.8398,-2.8614,-2.8724,-2.8818,-2.8881,-2.8943,-2.9058,-2.908,-4.0788,-4.2007,-4.2607,-4.2996,-4.325,-4.329,-4.244,-4.1077,-4.0757,-3.9523,-3.793,-3.7017,-3.631,-3.5831,-3.579,-3.6084,-3.648,-3.694,-3.7443,-3.7825,-3.7938,-3.7753,-3.731,-3.6996,-3.645,-3.599,-3.552,-3.5236,-3.5188,-3.537,-3.5736,-3.5985,-3.5898,-3.6035,-3.6261,-3.6431,-3.6533,-3.6495,-3.6734,-3.6808,-3.6748,-3.6643,-3.6588,-3.645,-3.6215,-3.5888,-3.5815,-3.5522,-3.521,-3.5224,-3.5355,-3.538,-3.5278,-3.4978,-3.4531,-3.3952,-3.3561,-3.3115,-3.3225,-3.3403,-3.3695,-3.4113,-3.462,-3.5297,-3.5799,-3.6116,-3.6507,-3.7403,-3.7772,-3.8062,-3.825,-3.8148,-3.774,-3.7048,-3.6102,-3.5185,-3.4258,-3.3322,-3.2482,-3.2153,-3.2002,-3.1877,-3.2159,-3.233,-3.2776,-3.3377,-3.3585,-3.3604,-3.2942,-3.2089,-3.1534,-3.0882,-3.0672,-3.0597,-3.0568,-3.0464,-3.0215,-2.9941,-2.955,-2.9143,-2.8811,-2.8422,-2.8162,-2.789,-2.759,-2.7448,-2.7545,-2.785,-2.8088,-2.8097,-2.8131,-2.8125,-2.8207,-2.8352,-2.8519,-3.9952,-4.0901,-4.1966,-4.2648,-4.3021,-4.3195,-4.2346,-4.0787,-4.0393,-3.8974,-3.6892,-3.5871,-3.5059,-3.4729,-3.4977,-3.5345,-3.579,-3.6443,-3.69,-3.7211,-3.7341,-3.7095,-3.6744,-3.6191,-3.5629,-3.5195,-3.4853,-3.4607,-3.4555,-3.4874,-3.5189,-3.5399,-3.5804,-3.615,-3.6426,-3.6617,-3.674,-3.6699,-3.6783,-3.6633,-3.6525,-3.6425,-3.6374,-3.628,-3.6072,-3.5892,-3.5892,-3.5669,-3.554,-3.554,-3.5603,-3.5653,-3.5418,-3.5174,-3.4725,-3.4053,-3.3369,-3.2905,-3.2705,-3.2858,-3.3297,-3.3908,-3.4587,-3.5297,-3.572,-3.6038,-3.6476,-3.6967,-3.7389,-3.773,-3.7847,-3.7788,-3.7417,-3.6917,-3.6121,-3.5355,-3.4545,-3.3907,-3.3109,-3.2496,-3.2139,-3.193,-3.1647,-3.1831,-3.2203,-3.2792,-3.3172,-3.3185,-3.2844,-3.2133,-3.17,-3.1237,-3.0916,-3.0804,-3.0827,-3.0692,-3.0489,-3.0284,-2.993,-2.9534,-2.9166,-2.8764,-2.8341,-2.79,-2.76,-2.7269,-2.6933,-2.7074,-2.7229,-2.7346,-2.7423,-2.7429,-2.7464,-2.7575,-2.7854,-3.9114,-3.9952,-4.0944,-4.191,-4.2835,-4.2905,-4.2031,-4.0642,-3.9852,-3.8062,-3.5561,-3.4812,-3.4272,-3.4105,-3.4134,-3.4551,-3.5046,-3.5277,-3.595,-3.6362,-3.6455,-3.627,-3.5871,-3.5426,-3.4895,-3.4494,-3.4147,-3.3966,-3.3995,-3.4369,-3.4653,-3.5004,-3.5575,-3.6162,-3.6488,-3.6736,-3.6946,-3.7147,-3.7071,-3.6914,-3.6905,-3.6755,-3.6628,-3.6476,-3.5972,-3.5728,-3.5569,-3.5167,-3.5129,-3.5175,-3.53,-3.5356,-3.5325,-3.5027,-3.4575,-3.3937,-3.3294,-3.2732,-3.2283,-3.2438,-3.2909,-3.3914,-3.462,-3.5198,-3.5591,-3.5911,-3.629,-3.6708,-3.7075,-3.7315,-3.7522,-3.7358,-3.7027,-3.6676,-3.6122,-3.5429,-3.486,-3.4279,-3.3704,-3.303,-3.2404,-3.1944,-3.1619,-3.1309,-3.173,-3.2203,-3.254,-3.2729,-3.2396,-3.2183,-3.1772,-3.1534,-3.1227,-3.1008,-3.1024,-3.0907,-3.0807,-3.0555,-3.0309,-2.9908,-2.9483,-2.9028,-2.859,-2.8107,-2.7549,-2.7074,-2.6709,-2.6406,-2.6433,-2.6604,-2.6669,-2.668,-2.6745,-2.6823,-2.7097,-3.8245,-3.9024,-3.9908,-4.11,-4.2307,-4.247,-4.1774,-4.0521,-3.9458,-3.7332,-3.4535,-3.4034,-3.3641,-3.3471,-3.3416,-3.367,-3.4134,-3.4496,-3.5032,-3.5359,-3.5521,-3.5386,-3.5141,-3.4716,-3.423,-3.3894,-3.3641,-3.3513,-3.3513,-3.3781,-3.4069,-3.4505,-3.5156,-3.5689,-3.6342,-3.6623,-3.6964,-3.7161,-3.7081,-3.6861,-3.678,-3.657,-3.6399,-3.6146,-3.5631,-3.5336,-3.5123,-3.4852,-3.4701,-3.4815,-3.4917,-3.4901,-3.481,-3.4603,-3.4253,-3.3741,-3.3146,-3.2685,-3.2319,-3.2313,-3.288,-3.3825,-3.4486,-3.5034,-3.5444,-3.5767,-3.6101,-3.6476,-3.6708,-3.6877,-3.7103,-3.6891,-3.6646,-3.6321,-3.6087,-3.5497,-3.5232,-3.4771,-3.4163,-3.3576,-3.2991,-3.2449,-3.1613,-3.1246,-3.1129,-3.1571,-3.1877,-3.2106,-3.2017,-3.1873,-3.182,-3.1654,-3.1554,-3.1353,-3.1208,-3.1304,-3.1316,-3.0773,-3.0531,-3.0199,-2.9772,-2.9319,-2.8716,-2.8076,-2.7479,-2.689,-2.6377,-2.5934,-2.5852,-2.5892,-2.592,-2.5906,-2.596,-2.6068,-2.6283,-3.7315,-3.8258,-3.9024,-4.0199,-4.1563,-4.1922,-4.1461,-4.0359,-3.8959,-3.6823,-3.4302,-3.3547,-3.3038,-3.2797,-3.2754,-3.2859,-3.3116,-3.3615,-3.4066,-3.433,-3.4538,-3.4564,-3.4356,-3.4021,-3.3768,-3.3428,-3.3313,-3.324,-3.3154,-3.3411,-3.3598,-3.3839,-3.4391,-3.5008,-3.5923,-3.6201,-3.6189,-3.6071,-3.6031,-3.5911,-3.579,-3.5588,-3.5507,-3.5305,-3.5034,-3.4777,-3.4629,-3.4549,-3.4457,-3.4605,-3.4888,-3.4929,-3.4834,-3.4847,-3.4588,-3.4136,-3.3498,-3.3086,-3.2849,-3.2726,-3.3115,-3.3788,-3.4432,-3.4901,-3.521,-3.5509,-3.5784,-3.6132,-3.6242,-3.6399,-3.6445,-3.6414,-3.6227,-3.6038,-3.5816,-3.564,-3.5359,-3.5155,-3.4562,-3.4044,-3.3683,-3.319,-3.2087,-3.1244,-3.0833,-3.0903,-3.1249,-3.1419,-3.1411,-3.1546,-3.1546,-3.1624,-3.1589,-3.169,-3.1605,-3.1883,-3.1792,-3.124,-3.0808,-3.0589,-3.0081,-2.9512,-2.8842,-2.81,-2.7424,-2.6837,-2.6082,-2.5342,-2.5244,-2.5132,-2.5104,-2.5104,-2.516,-2.53,-2.5536,-3.6474,-3.7281,-3.7808,-3.8747,-3.9897,-4.0788,-4.0646,-3.9522,-3.7491,-3.5637,-3.4405,-3.3343,-3.2723,-3.2463,-3.2133,-3.2033,-3.2108,-3.2196,-3.2618,-3.3207,-3.3488,-3.3628,-3.3598,-3.3598,-3.3398,-3.324,-3.3124,-3.3124,-3.3124,-3.3197,-3.3326,-3.3569,-3.3852,-3.4426,-3.5073,-3.5305,-3.5196,-3.5127,-3.5005,-3.4881,-3.4853,-3.4771,-3.4647,-3.4522,-3.4356,-3.4189,-3.4008,-3.4008,-3.405,-3.4189,-3.4481,-3.4439,-3.4356,-3.441,-3.4202,-3.3768,-3.3246,-3.2984,-3.2797,-3.2712,-3.3122,-3.3782,-3.4404,-3.483,-3.4934,-3.5195,-3.5474,-3.5699,-3.5857,-3.5987,-3.6116,-3.6006,-3.5847,-3.5784,-3.5671,-3.5572,-3.5382,-3.5285,-3.4928,-3.4463,-3.4054,-3.2887,-3.1773,-3.1007,-3.0526,-3.0075,-3.0316,-3.0581,-3.066,-3.1026,-3.1199,-3.1405,-3.1518,-3.1798,-3.2006,-3.2237,-3.2385,-3.2029,-3.1556,-3.1193,-3.0581,-2.9902,-2.9053,-2.8308,-2.7529,-2.6718,-2.5878,-2.5118,-2.4563,-2.4345,-2.4376,-2.4434,-2.4536,-2.4637,-2.478,-3.5403,-3.6225,-3.6671,-3.7428,-3.84,-3.9587,-3.9536,-3.8403,-3.6511,-3.52,-3.4341,-3.3321,-3.2579,-3.2118,-3.1605,-3.1193,-3.1193,-3.1327,-3.1548,-3.2171,-3.2643,-3.2914,-3.3129,-3.324,-3.3227,-3.3124,-3.3136,-3.3124,-3.3124,-3.3124,-3.321,-3.3326,-3.3441,-3.3768,-3.4176,-3.4301,-3.4371,-3.4343,-3.4246,-3.4217,-3.4147,-3.4021,-3.3894,-3.3738,-3.3569,-3.3398,-3.33,-3.3258,-3.33,-3.3484,-3.3569,-3.3569,-3.3569,-3.3526,-3.3356,-3.3,-3.2717,-3.2543,-3.252,-3.2682,-3.3053,-3.3513,-3.4367,-3.484,-3.4967,-3.5336,-3.5457,-3.5589,-3.5573,-3.5574,-3.5644,-3.5517,-3.5457,-3.5407,-3.5474,-3.5374,-3.5424,-3.5279,-3.5034,-3.4611,-3.3951,-3.2698,-3.155,-3.0807,-3.0204,-2.9734,-2.9331,-2.9572,-2.9834,-3.0225,-3.0631,-3.0957,-3.1404,-3.1794,-3.2165,-3.255,-3.2679,-3.2735,-3.2254,-3.1669,-3.1202,-3.0513,-2.9521,-2.8587,-2.7927,-2.7099,-2.5771,-2.492,-2.4437,-2.4001,-2.3763,-2.3809,-2.391,-2.4044,-2.4147,-3.4178,-3.5174,-3.5642,-3.6273,-3.7188,-3.8264,-3.8229,-3.7311,-3.6541,-3.5488,-3.4293,-3.3605,-3.2714,-3.1745,-3.1139,-3.0668,-3.0352,-3.0668,-3.0982,-3.1427,-3.2013,-3.2363,-3.2791,-3.3057,-3.3244,-3.3237,-3.3269,-3.3495,-3.325,-3.3287,-3.3275,-3.3187,-3.326,-3.3338,-3.3484,-3.3598,-3.3725,-3.3768,-3.3725,-3.3683,-3.3696,-3.3356,-3.3227,-3.3068,-3.281,-3.255,-3.2419,-3.2363,-3.2376,-3.2463,-3.255,-3.2506,-3.2519,-3.255,-3.2307,-3.2045,-3.1793,-3.1952,-3.211,-3.2308,-3.2659,-3.3027,-3.3908,-3.4623,-3.5015,-3.5145,-3.5253,-3.5299,-3.5294,-3.5166,-3.5053,-3.5033,-3.4978,-3.5053,-3.5192,-3.5243,-3.5341,-3.5195,-3.4964,-3.4491,-3.3851,-3.2821,-3.1707,-3.088,-2.9912,-2.9298,-2.8795,-2.8384,-2.8684,-2.9184,-2.9676,-3.0377,-3.0934,-3.1769,-3.2217,-3.2538,-3.2927,-3.3012,-3.2532,-3.2003,-3.1566,-3.1009,-3.0008,-2.9129,-2.851,-2.755,-2.6286,-2.519,-2.4324,-2.397,-2.3943,-2.3564,-2.3752,-2.3582,-2.3645,-3.2778,-3.3796,-3.4141,-3.4824,-3.5798,-3.6756,-3.7237,-3.7299,-3.6468,-3.5689,-3.5319,-3.3821,-3.2893,-3.2145,-3.0978,-3.0285,-2.9966,-2.9852,-3.017,-3.0724,-3.1632,-3.2094,-3.2654,-3.324,-3.3552,-3.3784,-3.396,-3.411,-3.4123,-3.3922,-3.3658,-3.3646,-3.3307,-3.3224,-3.3179,-3.324,-3.3283,-3.3326,-3.3326,-3.3326,-3.3227,-3.2982,-3.2766,-3.2463,-3.2057,-3.1793,-3.1617,-3.1415,-3.1427,-3.1596,-3.1472,-3.1415,-3.1661,-3.1504,-3.127,-3.1059,-3.1059,-3.1181,-3.1226,-3.1625,-3.1998,-3.2284,-3.2995,-3.3634,-3.4126,-3.4455,-3.4724,-3.4817,-3.4851,-3.4679,-3.4647,-3.4633,-3.4764,-3.4969,-3.5035,-3.4974,-3.503,-3.4861,-3.4544,-3.3859,-3.3255,-3.239,-3.1365,-3.0629,-2.9667,-2.8962,-2.8324,-2.7783,-2.7618,-2.8112,-2.8643,-2.9317,-3.0122,-3.0849,-3.1848,-3.2329,-3.2871,-3.3185,-3.2695,-3.2253,-3.1814,-3.1202,-3.036,-2.9562,-2.8796,-2.7867,-2.6832,-2.5845,-2.4901,-2.473,-2.4671,-2.4008,-2.3513,-2.3437,-2.3306,-3.1534,-3.2398,-3.2801,-3.3709,-3.4896,-3.5631,-3.6323,-3.673,-3.6333,-3.5987,-3.5592,-3.4421,-3.343,-3.2685,-3.1575,-3.0709,-3.0088,-3.0227,-3.0377,-3.0646,-3.161,-3.2297,-3.298,-3.3657,-3.4129,-3.4374,-3.45,-3.4542,-3.4675,-3.4462,-3.4173,-3.3847,-3.3495,-3.3294,-3.3187,-3.3124,-3.3124,-3.3124,-3.3124,-3.3038,-3.2853,-3.2624,-3.2276,-3.1925,-3.1371,-3.097,-3.0701,-3.0464,-3.0512,-3.0764,-3.0617,-3.0663,-3.0707,-3.0433,-3.0159,-2.9977,-2.992,-3.0011,-3.0114,-3.0476,-3.0869,-3.1303,-3.1777,-3.2215,-3.2995,-3.3552,-3.39,-3.4143,-3.4179,-3.4197,-3.4242,-3.4344,-3.4674,-3.4996,-3.4816,-3.4663,-3.4524,-3.4414,-3.3848,-3.3115,-3.234,-3.1516,-3.0746,-3.0075,-2.9296,-2.8366,-2.7567,-2.6978,-2.6834,-2.7107,-2.759,-2.8195,-2.9006,-2.9791,-3.0867,-3.19,-3.2453,-3.2779,-3.2725,-3.2311,-3.1984,-3.1509,-3.0773,-2.9876,-2.8937,-2.8066,-2.7244,-2.6499,-2.5721,-2.553,-2.5082,-2.4411,-2.3835,-2.353,-2.3387,-3.037,-3.1135,-3.171,-3.2873,-3.4237,-3.4823,-3.5356,-3.5908,-3.6096,-3.6047,-3.554,-3.5031,-3.4242,-3.3448,-3.2417,-3.1622,-3.1134,-3.1031,-3.1055,-3.0853,-3.2196,-3.2999,-3.3543,-3.423,-3.4693,-3.4756,-3.4939,-3.519,-3.4964,-3.4801,-3.4537,-3.3997,-3.3859,-3.3583,-3.3187,-3.3038,-3.3045,-3.3208,-3.3127,-3.3015,-3.2649,-3.2264,-3.1725,-3.1205,-3.0578,-2.9932,-2.9658,-2.9564,-2.9557,-2.98,-2.9964,-2.9905,-2.9747,-2.9424,-2.9107,-2.8929,-2.8836,-2.8771,-2.8967,-2.9279,-2.9658,-2.9977,-3.034,-3.0775,-3.1542,-3.2531,-3.2989,-3.3124,-3.3157,-3.3242,-3.3302,-3.3409,-3.3651,-3.4101,-3.427,-3.4139,-3.398,-3.3557,-3.2725,-3.2001,-3.1304,-3.0507,-2.9947,-2.9263,-2.8545,-2.7644,-2.6944,-2.6329,-2.6031,-2.6229,-2.6685,-2.7194,-2.8179,-2.9125,-3.015,-3.1106,-3.1825,-3.2165,-3.2415,-3.2435,-3.2153,-3.1677,-3.1198,-3.025,-2.9319,-2.8462,-2.7635,-2.7,-2.6358,-2.5813,-2.5325,-2.4698,-2.4194,-2.3782,-2.3341,-2.9396,-3.0057,-3.0981,-3.2095,-3.3162,-3.3747,-3.4397,-3.5066,-3.5368,-3.5713,-3.5953,-3.5404,-3.4888,-3.4354,-3.3301,-3.2536,-3.2242,-3.2078,-3.2137,-3.2355,-3.3143,-3.3731,-3.4198,-3.4894,-3.5257,-3.5458,-3.568,-3.5877,-3.573,-3.5466,-3.5019,-3.4492,-3.4179,-3.3677,-3.3195,-3.3046,-3.299,-3.3295,-3.3199,-3.2982,-3.2648,-3.2006,-3.1403,-3.0623,-2.9863,-2.9011,-2.8679,-2.8418,-2.8519,-2.8673,-2.8806,-2.8873,-2.8845,-2.8425,-2.8225,-2.8141,-2.7899,-2.781,-2.7899,-2.8207,-2.8549,-2.8874,-2.9187,-2.9566,-3.0215,-3.1291,-3.1892,-3.1975,-3.2093,-3.2221,-3.2339,-3.2456,-3.2654,-3.3212,-3.368,-3.3552,-3.3389,-3.2546,-3.1659,-3.091,-3.019,-2.9613,-2.9091,-2.8438,-2.7723,-2.7059,-2.6453,-2.5875,-2.534,-2.5328,-2.5835,-2.6462,-2.7632,-2.8608,-2.9504,-3.042,-3.1202,-3.1982,-3.2406,-3.2363,-3.2229,-3.1441,-3.07,-3.0391,-2.9711,-2.8794,-2.8081,-2.7656,-2.7046,-2.6192,-2.5493,-2.484,-2.4371,-2.3916,-2.3414,-2.8388,-2.8963,-2.9995,-3.1073,-3.2033,-3.2538,-3.325,-3.4017,-3.436,-3.4945,-3.5667,-3.5491,-3.5342,-3.5236,-3.4291,-3.367,-3.3457,-3.3279,-3.3182,-3.3389,-3.3966,-3.4422,-3.4993,-3.5524,-3.5771,-3.6019,-3.6169,-3.6342,-3.6329,-3.6107,-3.5629,-3.494,-3.4357,-3.3888,-3.3438,-3.3118,-3.3002,-3.3506,-3.3259,-3.2953,-3.2556,-3.1929,-3.1187,-3.0342,-2.9358,-2.8522,-2.812,-2.7937,-2.8119,-2.8304,-2.8512,-2.8573,-2.8502,-2.8174,-2.793,-2.7766,-2.7531,-2.7156,-2.7259,-2.7407,-2.7683,-2.7899,-2.8045,-2.842,-2.8398,-2.9326,-2.9988,-3.0145,-3.0561,-3.0758,-3.1189,-3.1366,-3.1945,-3.2487,-3.2772,-3.2816,-3.2476,-3.1889,-3.0943,-2.9986,-2.9343,-2.8811,-2.8172,-2.7284,-2.6689,-2.6235,-2.5684,-2.5306,-2.4819,-2.4555,-2.5052,-2.566,-2.6742,-2.773,-2.8595,-2.9602,-3.061,-3.1439,-3.2234,-3.2014,-3.1654,-3.0871,-3.0219,-2.995,-2.9575,-2.8993,-2.8368,-2.7749,-2.7069,-2.6154,-2.5503,-2.4945,-2.4447,-2.3889,-2.3236,-2.7476,-2.795,-2.8847,-2.9838,-3.0877,-3.1227,-3.1931,-3.2801,-3.325,-3.3845,-3.4665,-3.515,-3.5572,-3.5716,-3.55,-3.5074,-3.4687,-3.4459,-3.4226,-3.4399,-3.4922,-3.522,-3.5559,-3.6022,-3.6182,-3.6304,-3.6392,-3.6417,-3.6392,-3.6219,-3.59,-3.523,-3.4718,-3.4255,-3.3784,-3.3244,-3.2965,-3.3154,-3.3076,-3.2795,-3.2371,-3.1891,-3.1087,-3.0139,-2.9138,-2.8376,-2.7945,-2.7904,-2.8045,-2.8214,-2.8374,-2.8445,-2.8324,-2.8054,-2.7893,-2.7693,-2.7322,-2.7132,-2.7131,-2.7116,-2.7117,-2.7061,-2.7095,-2.7208,-2.7256,-2.7526,-2.8175,-2.8549,-2.9013,-2.9463,-2.9909,-3.0339,-3.0956,-3.1492,-3.1712,-3.1905,-3.1481,-3.1046,-3.0102,-2.9106,-2.8574,-2.8008,-2.7319,-2.6417,-2.5869,-2.5423,-2.4998,-2.4569,-2.427,-2.4182,-2.4388,-2.4887,-2.5609,-2.6586,-2.7704,-2.892,-3.0064,-3.0866,-3.1557,-3.1396,-3.1102,-3.0397,-2.9846,-2.952,-2.9127,-2.8654,-2.8,-2.7284,-2.6607,-2.5931,-2.5158,-2.4455,-2.3815,-2.3235,-2.2798,-2.6808,-2.7539,-2.7736,-2.8325,-2.9154,-2.9681,-3.0411,-3.1289,-3.2004,-3.2862,-3.3659,-3.4176,-3.4872,-3.5955,-3.5668,-3.5425,-3.5387,-3.5279,-3.5484,-3.5697,-3.5633,-3.5896,-3.61,-3.6245,-3.638,-3.6417,-3.6417,-3.6417,-3.6417,-3.6392,-3.6025,-3.5258,-3.4878,-3.4255,-3.3343,-3.2863,-3.2583,-3.2696,-3.2508,-3.2187,-3.2131,-3.1596,-3.0801,-2.9829,-2.8799,-2.8114,-2.7683,-2.7665,-2.7727,-2.7891,-2.816,-2.8278,-2.8242,-2.8016,-2.7858,-2.7752,-2.7375,-2.7188,-2.7141,-2.7152,-2.7073,-2.6882,-2.6959,-2.6934,-2.6853,-2.6699,-2.7071,-2.7156,-2.7573,-2.8034,-2.8434,-2.8795,-2.9326,-2.9863,-3.0223,-3.0406,-3.03,-2.9691,-2.8958,-2.8348,-2.7848,-2.7358,-2.6889,-2.6191,-2.5706,-2.5224,-2.4744,-2.4335,-2.4201,-2.4001,-2.3814,-2.4255,-2.4777,-2.5964,-2.7294,-2.8437,-2.9529,-3.0366,-3.0891,-3.0802,-3.0512,-3.0001,-2.9528,-2.9194,-2.8769,-2.8317,-2.76,-2.6871,-2.6092,-2.537,-2.4599,-2.3849,-2.3187,-2.2713,-2.23]},{"header":{"parameterUnit":"m.s-1","parameterCategory":1,"la1":31.0,"la2":29.5877,"lo1":-88.7671,"lo2":-86.6584,"dy":0.0162,"dx":0.0185,"nx":115,"ny":88,"refTime":"2024-09-01T18:00:00:Z","depth":0,"parameterNumber":3,"parameterNumberName":"V-component_of_WINDS"},"data":[0.0,0.0,0.0,0.0,0.0,0.0,0.0,0.0,0.0,0.0,0.0,0.0,0.0,0.0,0.0,0.0,0.0,0.0,0.0,0.0,0.0,0.0,0.0,0.0,0.0,0.0,0.0,0.0,0.0,0.0,0.0,0.0,0.0,0.0,0.0,0.0,0.0,0.0,0.0,0.0,0.0,0.0,0.0,0.0,0.0,0.0,0.0,0.0,0.0,0.0,0.0,0.0,0.0,0.0,0.0,0.0,0.0,0.0,0.0,0.0,0.0,0.0,0.0,0.0,0.0,0.0,0.0,0.0,0.0,0.0,0.0,0.0,0.0,0.0,0.0,0.0,0.0,0.0,0.0,0.0,0.0,0.0,0.0,0.0,0.0,0.0,0.0,0.0,0.0,0.0,0.0,0.0,0.0,0.0,0.0,0.0,0.0,0.0,0.0,0.0,0.0,0.0,0.0,0.0,0.0,0.0,0.0,0.0,0.0,0.0,0.0,0.0,0.0,0.0,0.0,0.0,0.0,0.0,0.0,0.0,0.0,0.0,0.0,0.0,0.0,0.0,0.0,0.0,0.0,0.0,0.0,0.0,0.0,0.0,0.0,0.0,0.0,0.0,0.0,0.0,0.0,0.0,0.0,0.0,0.0,0.0,0.0,0.0,0.0,0.0,0.0,0.0,0.0,0.0,0.0,0.0,0.0,0.0,0.0,0.0,0.0,0.0,0.0,0.0,0.0,0.0,0.0,0.0,0.0,0.0,0.0,0.0,0.0,0.0,0.0,0.0,0.0,0.0,0.0,0.0,0.0,0.0,0.0,0.0,0.0,0.0,0.0,0.0,0.0,0.0,0.0,0.0,0.0,0.0,0.0,0.0,0.0,0.0,0.0,0.0,0.0,0.0,0.0,0.0,0.0,0.0,0.0,0.0,0.0,0.0,0.0,0.0,0.0,0.0,0.0,0.0,0.0,0.0,0.0,0.0,0.0,0.0,0.0,0.0,0.0,0.0,0.0,0.0,0.0,0.0,0.0,0.0,0.0,0.0,0.0,0.0,0.0,0.0,0.0,0.0,0.0,0.0,0.0,0.0,0.0,0.0,0.0,0.0,0.0,0.0,0.0,0.0,0.0,0.0,0.0,0.0,0.0,0.0,0.0,0.0,0.0,0.0,0.0,0.0,0.0,0.0,0.0,0.0,0.0,0.0,0.0,0.0,0.0,0.0,0.0,0.0,0.0,0.0,0.0,0.0,0.0,0.0,0.0,0.0,0.0,0.0,0.0,0.0,0.0,0.0,0.0,0.0,0.0,0.0,0.0,0.0,0.0,0.0,0.0,0.0,0.0,0.0,0.0,0.0,0.0,0.0,0.0,0.0,0.0,0.0,0.0,0.0,0.0,0.0,0.0,0.0,0.0,0.0,0.0,0.0,0.0,0.0,0.0,0.0,0.0,0.0,0.0,0.0,0.0,0.0,0.0,0.0,0.0,0.0,0.0,0.0,0.0,0.0,0.0,0.0,0.0,0.0,0.0,0.0,0.0,0.0,0.0,0.0,0.0,0.0,0.0,0.0,0.0,0.0,0.0,0.0,0.0,0.0,0.0,0.0,0.0,0.0,0.0,0.0,0.0,0.0,0.0,0.0,0.0,0.0,0.0,0.0,0.0,0.0,0.0,0.0,0.0,0.0,0.0,0.0,0.0,0.0,0.0,0.0,0.0,0.0,0.0,0.0,0.0,0.0,0.0,0.0,0.0,0.0,0.0,0.0,0.0,0.0,0.0,0.0,0.0,0.0,0.0,0.0,0.0,0.0,0.0,0.0,0.0,0.0,0.0,0.0,0.0,0.0,0.0,0.0,0.0,0.0,0.0,0.0,0.0,0.0,0.0,0.0,0.0,0.0,0.0,0.0,0.0,0.0,0.0,0.0,0.0,0.0,0.0,0.0,0.0,0.0,0.0,0.0,0.0,0.0,0.0,0.0,0.0,0.0,0.0,0.0,0.0,0.0,0.0,0.0,0.0,0.0,0.0,0.0,0.0,0.0,0.0,0.0,0.0,0.0,0.0,0.0,0.0,0.0,0.0,0.0,0.0,0.0,0.0,0.0,0.0,0.0,0.0,0.0,0.0,0.0,0.0,0.0,0.0,0.0,0.0,0.0,0.0,0.0,0.0,0.0,0.0,0.0,0.0,0.0,0.0,0.0,0.0,0.0,0.0,0.0,0.0,0.0,0.0,0.0,0.0,0.0,0.0,0.0,0.0,0.0,0.0,0.0,0.0,0.0,0.0,0.0,0.0,0.0,0.0,0.0,0.0,0.0,0.0,0.0,0.0,0.0,0.0,0.0,0.0,0.0,0.0,0.0,0.0,0.0,0.0,0.0,0.0,0.0,0.0,0.0,0.0,0.0,0.0,0.0,0.0,0.0,0.0,0.0,0.0,0.0,0.0,0.0,0.0,0.0,0.0,0.0,0.0,0.0,0.0,0.0,0.0,0.0,0.0,0.0,0.0,0.0,0.0,0.0,0.0,0.0,0.0,0.0,0.0,0.0,0.0,0.0,0.0,0.0,0.0,0.0,0.0,0.0,0.0,0.0,0.0,0.0,0.0,0.0,0.0,0.0,0.0,0.0,0.0,0.0,0.0,0.0,0.0,0.0,0.0,0.0,0.0,0.0,0.0,0.0,0.0,0.0,0.0,0.0,0.0,0.0,0.0,0.0,0.0,0.0,0.0,0.0,0.0,0.0,0.0,0.0,0.0,0.0,0.0,0.0,0.0,0.0,0.0,0.0,0.0,0.0,0.0,0.0,0.0,0.0,0.0,0.0,0.0,0.0,0.0,0.0,0.0,0.0,0.0,0.0,0.0,0.0,0.0,0.0,0.0,0.0,0.0,0.0,0.0,0.0,0.0,0.0,0.0,0.0,0.0,0.0,0.0,0.0,0.0,0.0,0.0,0.0,0.0,0.0,0.0,0.0,0.0,0.0,0.0,0.0,0.0,0.0,0.0,0.0,0.0,0.0,0.0,0.0,0.0,0.0,0.0,0.0,0.0,0.0,0.0,0.0,0.0,0.0,0.0,0.0,0.0,0.0,0.0,0.0,0.0,0.0,0.0,0.0,0.0,0.0,0.0,0.0,0.0,0.0,0.0,0.0,0.0,0.0,0.0,0.0,0.0,0.0,0.0,0.0,0.0,0.0,0.0,0.0,0.0,0.0,0.0,0.0,0.0,0.0,0.0,0.0,0.0,0.0,0.0,0.0,0.0,0.0,0.0,0.0,0.0,0.0,0.0,0.0,0.0,0.0,0.0,0.0,0.0,0.0,0.0,0.0,0.0,0.0,0.0,0.0,0.0,0.0,0.0,0.0,0.0,0.0,0.0,0.0,0.0,0.0,0.0,0.0,0.0,0.0,0.0,0.0,0.0,0.0,0.0,0.0,0.0,0.0,0.0,0.0,0.0,0.0,0.0,0.0,0.0,0.0,0.0,0.0,0.0,0.0,0.0,0.0,0.0,0.0,0.0,0.0,0.0,0.0,0.0,0.0,0.0,0.0,0.0,0.0,0.0,0.0,0.0,0.0,0.0,0.0,0.0,0.0,0.0,0.0,0.0,0.0,0.0,0.0,0.0,0.0,0.0,0.0,0.0,0.0,0.0,0.0,0.0,0.0,0.0,0.0,0.0,0.0,0.0,0.0,0.0,0.0,0.0,0.0,0.0,0.0,0.0,0.0,0.0,0.0,0.0,0.0,0.0,0.0,0.0,0.0,0.0,0.0,0.0,0.0,0.0,0.0,0.0,0.0,0.0,0.0,0.0,0.0,0.0,0.0,0.0,0.0,0.0,0.0,0.0,0.0,0.0,0.0,0.0,0.0,0.0,0.0,0.0,0.0,0.0,0.0,0.0,0.0,0.0,0.0,0.0,0.0,0.0,0.0,0.0,0.0,0.0,0.0,0.0,0.0,0.0,0.0,0.0,0.0,0.0,0.0,0.0,0.0,0.0,0.0,0.0,0.0,0.0,0.0,0.0,0.0,0.0,0.0,0.0,0.0,0.0,0.0,0.0,0.0,0.0,0.0,0.0,0.0,0.0,0.0,0.0,0.0,0.0,0.0,0.0,0.0,0.0,0.0,0.0,0.0,0.0,0.0,0.0,0.0,0.0,0.0,0.0,0.0,0.0,0.0,0.0,0.0,0.0,0.0,0.0,0.0,0.0,0.0,0.0,0.0,0.0,0.0,0.0,0.0,0.0,0.0,0.0,0.0,0.0,0.0,0.0,0.0,0.0,0.0,0.0,0.0,-0.478,0.0,0.0,0.0,0.0,0.0,0.0,0.0,0.0,0.0,0.0,0.0,0.0,0.0,0.0,0.0,0.0,0.0,0.0,0.0,0.0,0.0,0.0,0.0,0.0,0.0,0.0,0.0,0.0,0.0,0.0,0.0,0.0,0.0,0.0,0.0,0.0,0.0,0.0,0.0,0.0,0.0,0.0,0.0,0.0,0.0,0.0,0.0,0.0,0.0,0.0,0.0,0.0,0.0,0.0,0.0,0.0,0.0,0.0,0.0,0.0,0.0,0.0,0.0,0.0,0.0,0.0,0.0,0.0,0.0,0.0,0.0,0.0,0.0,0.0,0.0,0.0,0.0,0.0,0.0,0.0,0.0,0.0,0.0,0.0,0.0,0.0,0.0,0.0,0.0,0.0,0.0,0.0,0.0,0.0,0.0,0.0,0.0,0.0,0.0,0.0,0.0,0.0,0.0,0.0,0.0,0.0,0.0,0.0,0.0,0.0,-0.0698,-0.2178,-0.316,-0.4124,-0.5026,0.0,0.0,0.0,0.0,0.0,0.0,0.0,0.0,0.0,0.0,0.0,0.0,0.0,0.0,0.0,0.0,0.0,0.0,0.0,0.0,0.0,0.0,0.0,0.0,0.0,0.0,0.0,0.0,0.0,0.0,0.0,0.0,0.0,0.0,0.0,0.0,0.0,0.0,0.0,0.0,0.0,0.0,0.0,0.0,0.0,0.0,0.0,0.0,0.0,0.0,0.0,0.0,0.0,0.0,0.0,0.0,0.0,0.0,0.0,0.0,0.0,0.0,0.0,0.0,0.0,0.0,0.0,0.0,0.0,0.0,0.0,0.0,0.0,0.0,0.0,0.0,0.0,0.0,0.0,0.0,0.0,0.0,0.0,0.0,0.0,0.0,0.0,0.0,0.0,0.0,0.0,0.0,0.0,0.0,0.0,0.0,0.0,0.0,0.0,0.0,0.0,0.0,0.0,0.0,0.0,0.0,0.0,0.0,0.0,0.0,0.0,0.0,-0.3128,-0.426,-0.5319,0.0,0.0,0.0,0.0,0.0,0.0,0.0,0.0,0.0,0.0,0.0,0.0,0.0,0.0,0.0,0.0,0.0,0.0,0.0,0.0,0.0,0.0,0.0,0.0,0.0,0.0,0.0,0.0,0.0,0.0,0.0,0.0,0.0,0.0,0.0,0.0,0.0,0.0,0.0,0.0,0.0,0.0,0.0,0.0,0.0,0.0,0.0,0.0,0.0,0.0,0.0,0.0,0.0,0.0,0.0,0.0,0.0,0.0,0.0,0.0,0.0,0.0,0.0,0.0,0.0,0.0,0.0,0.0,0.0,0.0,0.0,0.0,0.0,0.0,0.0,0.0,0.0,0.0,0.0,0.0,0.0,0.0,0.0,0.0,0.0,0.0,0.0,0.0,0.0,0.0,0.0,0.0,0.0,0.0,0.0,0.0,0.0,0.0,0.0,0.0,0.0,0.0,0.0,0.0,0.0,0.0,0.0,0.0,0.0,0.0,-0.014,-0.179,-0.2986,0.0,-0.575,0.0,0.0,0.0,0.0,0.0,0.0,0.0,0.0,0.0,0.0,0.0,0.0,0.0,0.0,0.0,0.0,0.0,0.0,0.0,0.0,0.0,0.0,0.0,0.0,0.0,0.0,0.0,0.0,0.0,0.0,0.0,0.0,0.0,0.0,0.0,0.0,0.0,0.0,0.0,0.0,0.0,0.0,0.0,0.0,0.0,0.0,0.0,0.0,0.0,0.0,0.0,0.0,0.0,0.0,0.0,0.0,0.0,0.0,0.0,0.0,0.0,0.0,0.0,0.0,0.0,0.0,0.0,0.0,0.0,0.0,0.0,0.0,0.0,0.0,0.0,0.0,0.0,0.0,0.0,0.0,0.0,0.0,0.0,0.0,0.0,0.0,0.0,0.0,0.0,0.0,0.0,0.0,0.0,0.0,0.0,0.0,0.0,0.0,0.0,0.0,0.0,0.0,0.0,0.0,0.0,0.0,0.0,0.0,0.0,0.0,-0.0056,-0.1651,-0.3705,-0.5143,0.0,0.0,0.0,0.0,0.0,0.0,0.0,0.0,0.0,0.0,0.0,0.0,0.0,0.0,0.0,0.0,0.0,0.0,0.0,0.0,0.0,0.0,0.0,0.0,0.0,0.0,0.0,0.0,0.0,0.0,0.0,0.0,0.0,0.0,0.0,0.0,0.0,0.0,0.0,0.0,0.0,0.0,0.0,0.0,0.0,0.0,0.0,0.0,0.0,0.0,0.0,0.0,0.0,0.0,0.0,0.0,0.0,0.0,0.0,0.0,0.0,0.0,0.0,0.0,0.0,0.0,0.0,0.0,0.0,0.0,0.0,0.0,0.0,0.0,0.0,0.0,0.0,0.0,0.0,0.0,0.0,0.0,0.0,0.0,0.0,0.0,0.0,0.0,0.0,0.0,0.0,0.0,0.0,0.0,0.0,0.0,0.0,0.0,0.0,0.0,0.0,0.0,0.0,0.0,0.0,0.0,0.0,0.0,0.0,0.0,0.1673,-0.0167,-0.2122,-0.437,-0.5681,-0.5839,0.0,0.0,0.0,0.0,0.0,0.0,0.0,0.0,0.0,0.0,0.0,0.0,0.0,0.0,0.0,0.0,0.0,0.0,0.0,0.0,0.0,0.0,0.0,0.0,0.0,0.0,0.0,0.0,0.0,0.0,0.0,0.0,0.0,0.0,0.0,0.0,0.0,0.0,0.0,0.0,0.0,0.0,0.0,0.0,0.0,0.0,0.0,0.0,0.0,0.0,0.0,0.0,0.0,0.0,0.0,0.0,0.0,0.0,0.0,0.0,0.0,0.0,0.0,0.0,0.0,0.0,0.0,0.0,0.0,0.0,0.0,0.0,0.0,0.0,0.0,0.0,0.0,0.0,0.0,0.0,0.0,0.0,0.0,0.0,0.0,0.0,0.0,0.0,0.0,0.0,0.0,0.0,0.0,0.0,0.0,0.0,0.0,0.0,0.0,0.0,0.0,0.0,0.0,0.0,0.0,0.0,0.0,0.0,0.3743,0.1867,-0.0529,-0.3405,-0.4873,-0.5628,0.0,0.0,0.0,0.0,0.0,0.0,0.0,0.0,0.0,0.0,0.0,0.0,0.0,0.0,0.0,0.0,0.0,0.0,0.0,0.0,0.0,0.0,0.0,0.0,0.0,0.0,0.0,0.0,0.0,0.0,0.0,0.0,0.0,0.0,0.0,0.0,0.0,0.0,0.0,0.0,0.0,0.0,0.0,0.0,0.0,0.0,0.0,0.0,0.0,0.0,0.0,0.0,0.0,0.0,0.0,0.0,0.0,0.0,0.0,0.0,0.0,0.0,0.0,0.0,0.0,0.0,0.0,0.0,0.0,0.0,0.0,0.0,0.0,0.0,0.0,0.0,0.0,0.0,0.0,0.0,0.0,0.0,0.0,0.0,0.0,0.0,0.0,0.0,0.0,0.0,0.0,0.0,0.0,0.0,0.0,0.0,0.0,0.0,0.0,0.0,0.0,0.0,0.0,0.0,0.0,0.0,0.0,0.0,0.0,0.371,0.075,-0.1717,-0.3623,-0.4929,-0.5575,0.0,0.0,0.0,0.0,0.0,0.0,0.0,0.0,0.0,0.0,0.0,0.0,0.0,0.0,0.0,0.0,0.0,0.0,0.0,0.0,0.0,0.0,0.0,0.0,0.0,0.0,0.0,0.0,0.0,0.0,0.0,0.0,0.0,0.0,0.0,0.0,0.0,0.0,0.0,0.0,0.0,0.0,0.0,0.0,0.0,0.0,0.0,0.0,0.0,0.0,0.0,0.0,0.0,0.0,0.0,0.0,0.0,0.0,0.0,0.0,0.0,0.0,0.0,0.0,0.0,0.0,0.0,0.0,0.0,0.0,0.0,0.0,0.0,0.0,0.0,0.0,0.0,0.0,0.0,0.0,0.0,0.0,0.0,0.0,0.0,0.0,0.0,0.0,0.0,0.0,0.0,0.0,0.0,0.0,0.0,0.0,0.0,0.0,0.0,0.0,0.0,0.0,0.0,0.0,0.0,0.0,0.0,0.0,0.0,0.2785,0.0,-0.2373,0.0,-0.4869,-0.5476,0.0,0.0,0.0,0.0,0.0,0.0,0.0,0.0,0.0,0.0,0.0,0.0,0.0,0.0,0.0,0.0,0.0,0.0,0.0,0.0,0.0,0.0,0.0,0.0,0.0,0.0,0.0,0.0,0.0,0.0,0.0,0.0,0.0,0.0,0.0,0.0,0.0,0.0,0.0,0.0,0.0,0.0,0.0,0.0,0.0,0.0,0.0,0.0,0.0,0.0,0.0,0.0,0.0,0.0,0.0,0.0,0.0,0.0,0.0,0.0,0.0,0.0,0.0,0.0,0.0,0.0,0.0,0.0,0.0,0.0,0.0,0.0,0.0,0.0,0.0,0.0,0.0,0.0,0.0,0.0,0.0,0.0,0.0,0.0,0.0,0.0,0.0,0.0,0.0,0.0,0.0,0.0,0.0,0.0,0.0,0.0,0.0,0.0,0.0,0.0,0.0,0.0,0.0,0.0,0.0,0.0,0.0,0.0,0.3615,0.0904,-0.0845,-0.239,-0.3677,-0.4774,-0.5278,0.0,0.0,0.0,0.0,0.0,0.0,0.0,0.0,0.0,0.0,0.0,0.0,0.0,0.0,0.0,0.0,0.0,0.0,0.0,0.0,0.0,0.0,0.0,0.0,0.0,0.0,0.0,0.0,0.0,0.0,0.0,0.0,0.0,0.0,0.0,0.0,0.0,0.0,0.0,0.0,0.0,0.0,0.0,0.0,0.0,0.0,0.0,0.0,0.0,0.0,0.0,0.0,0.0,0.0,0.0,0.0,0.0,0.0,0.0,0.0,0.0,0.0,0.0,0.0,0.0,0.0,0.0,0.0,0.0,0.0,0.0,0.0,0.0,0.0,0.0,0.0,0.0,0.0,0.0,0.0,0.0,0.0,0.0,0.0,0.0,0.0,0.0,0.0,0.0,0.0,0.0,0.0,0.0,0.0,0.0,0.0,0.0,0.0,0.0,0.0,0.0,0.0,0.0,0.0,0.0,0.0,0.0,0.0,0.0,0.0498,-0.132,-0.283,-0.4014,-0.4999,-0.5366,0.0,0.0,0.0,0.0,0.0,0.0,0.0,0.0,0.0,0.0,0.0,0.0,0.0,0.0,0.0,0.0,0.0,0.0,0.0,0.0,0.0,0.0,0.0,0.0,0.0,0.0,0.0,0.0,0.0,0.0,0.0,0.0,0.0,0.0,0.0,0.0,0.0,0.0,0.0,0.0,0.0,0.0,0.0,0.0,0.0,0.0,0.0,0.0,0.0,0.0,0.0,0.0,0.0,0.0,0.0,0.0,0.0,0.0,0.0,0.0,0.0,0.0,0.0,0.0,0.0,0.0,0.0,0.0,0.0,0.0,0.0,0.0,0.0,0.0,0.0,0.0,0.0,0.0,0.0,0.0,0.0,0.0,0.0,0.0,0.0,0.0,0.0,0.0,0.0,0.0,0.0,0.0,0.0,0.0,0.0,0.0,0.0,0.0,0.0,0.0,0.0,0.0,0.0,0.0,0.0,0.0,0.0,0.0,0.0,0.0,-0.1664,-0.3118,-0.428,-0.5121,-0.5368,-0.4988,0.0,0.0,0.0,0.0,0.0,0.0,0.0,0.0,0.0,0.0,0.0,0.0,0.0,0.0,0.0,0.0,0.0,0.0,0.0,0.0,0.0,0.0,0.0,0.0,0.0,0.0,0.0,0.0,0.0,0.0,0.0,0.0,0.0,0.0,0.0,0.0,0.0,0.0,0.0,0.0,0.0,0.0,0.0,0.0,0.0,0.0,0.0,0.0,0.0,0.0,0.0,0.0,0.0,0.0,0.0,0.0,0.0,0.0,0.0,0.0,0.0,0.0,0.0,0.0,0.0,0.0,0.0,0.0,0.0,0.0,0.0,0.0,0.0,0.0,0.0,0.0,0.0,0.0,0.0,0.0,0.0,0.0,0.0,0.0,0.0,0.0,0.0,0.0,0.0,0.0,0.0,0.0,0.0,0.0,0.0,0.0,0.0,0.0,0.0,0.0,0.0,0.0,0.0,0.0,0.0,0.0,0.0,0.0,-0.0548,-0.1912,-0.3227,-0.4489,-0.5182,-0.5325,0.0,0.0,0.0,0.0,0.0,0.0,0.0,0.0,0.0,0.0,0.0,0.0,0.0,0.0,0.0,0.0,0.0,0.0,0.0,0.0,0.0,0.0,0.0,0.0,0.0,0.0,0.0,0.0,0.0,0.0,0.0,0.0,0.0,0.0,0.0,0.0,0.0,0.0,0.0,0.0,0.0,0.0,0.0,0.0,0.0,0.0,0.0,0.0,0.0,0.0,0.0,0.0,0.0,0.0,0.0,0.0,0.0,0.0,0.0,0.0,0.0,0.0,0.0,0.0,0.0,0.0,0.0,0.0,0.0,0.0,0.0,0.0,0.0,0.0,0.0,0.0,0.0,0.0,0.0,0.0,0.0,0.0,0.0,0.0,0.0,0.0,0.0,0.0,0.0,0.0,0.0,0.0,0.0,0.0,0.0,0.0,0.0,0.0,0.0,0.0,0.0,0.0,0.0,0.0,0.0,0.0,0.0,0.0,0.0,-0.0393,-0.2012,-0.3465,-0.4737,-0.5484,-0.5556,0.0,0.0,0.0,0.0,0.0,0.0,0.0,0.0,0.0,0.0,0.0,0.0,0.0,0.0,0.0,0.0,0.0,0.0,0.0,0.0,0.0,0.0,0.0,0.0,0.0,0.0,0.0,0.0,0.0,0.0,0.0,0.0,0.0,0.0,0.0,0.0,0.0,0.0,0.0,0.0,0.0,0.0,0.0,0.0,0.0,0.0,0.0,0.0,0.0,0.0,0.0,0.0,0.0,0.0,0.0,0.0,0.0,0.0,0.0,0.0,0.0,0.0,0.0,0.0,0.0,0.0,0.0,0.0,0.0,0.0,0.0,0.0,0.0,0.0,0.0,0.0,0.0,0.0,0.0,0.0,0.0,0.0,0.0,0.0,0.0,0.0,0.0,0.0,0.0,0.0,0.0,0.0,0.0,0.0,0.0,0.0,0.0,0.0,0.0,0.0,0.0,0.0,0.0,0.0,0.0,0.0,0.0,0.0,0.1558,-0.0324,-0.1908,-0.3321,-0.4548,-0.5354,-0.5485,0.0,0.0,0.0,0.0,0.0,0.0,0.0,0.0,0.0,0.0,0.0,0.0,0.0,0.0,0.0,0.0,0.0,0.0,0.0,0.0,0.0,0.0,0.0,0.0,0.0,0.0,0.0,0.0,0.0,0.0,0.0,0.0,0.0,0.0,0.0,0.0,0.0,0.0,0.0,0.0,0.0,0.0,0.0,0.0,0.0,0.0,0.0,0.0,0.0,0.0,0.0,0.0,0.0,0.0,0.0,0.0,0.0,0.0,0.0,0.0,0.0,0.0,0.0,0.0,0.0,0.0,0.0,0.0,0.0,0.0,0.0,0.0,0.0,0.0,0.0,0.0,0.0,0.0,0.0,0.0,0.0,0.0,0.0,0.0,0.0,0.0,0.0,0.0,0.0,0.0,0.0,0.0,0.0,0.0,0.0,0.0,0.0,0.0,0.0,0.0,0.0,0.0,0.0,0.0,0.0,0.0,0.0,0.0,0.1626,-0.0163,-0.1617,-0.2872,-0.3954,-0.4948,-0.5164,0.0,0.0,0.0,0.0,0.0,0.0,0.0,0.0,0.0,0.0,0.0,0.0,0.0,0.0,0.0,0.0,0.0,0.0,0.0,0.0,0.0,0.0,0.0,0.0,0.0,0.0,0.0,0.0,0.0,0.0,0.0,0.0,0.0,0.0,0.0,0.0,0.0,0.0,0.0,0.0,0.0,0.0,0.0,0.0,0.0,0.0,0.0,0.0,0.0,0.0,0.0,0.0,0.0,0.0,0.0,0.0,0.0,0.0,0.0,0.0,0.0,0.0,0.0,0.0,0.0,0.0,0.0,0.0,0.0,0.0,0.0,0.0,0.0,0.0,0.0,0.0,0.0,0.0,0.0,0.0,0.0,0.0,0.0,0.0,0.0,0.0,0.0,0.0,0.0,0.0,0.0,0.0,0.0,0.0,0.0,0.0,0.0,0.0,0.0,0.0,0.0,0.0,0.0,0.0,0.0,0.0,0.0,0.0,0.1631,0.0375,-0.0958,-0.2137,-0.3114,-0.4483,-0.4927,0.0,0.0,0.0,0.0,0.0,0.0,0.0,0.0,0.0,0.0,0.0,0.0,0.0,0.0,0.0,0.0,0.0,0.0,0.0,0.0,0.0,0.0,0.0,0.0,0.0,0.0,0.0,0.0,0.0,0.0,0.0,0.0,0.0,0.0,0.0,0.0,0.0,0.0,0.0,0.0,0.0,0.0,0.0,0.0,0.0,0.0,0.0,0.0,-0.3319,0.0,0.0,0.0,0.0,0.0,0.0,0.0,0.0,0.0,0.0,0.0,0.0,0.0,0.0,0.0,0.0,0.0,0.0,0.0,0.0,0.0,0.0,0.0,0.0,0.0,0.0,0.0,0.0,0.0,0.0,0.0,0.0,0.0,0.0,0.0,0.0,0.0,0.0,0.0,0.0,0.0,0.0,0.0,0.0,0.0,0.0,0.0,0.0,0.0,0.0,0.0,0.0,0.0,0.0,0.0,0.0,0.0,0.0,0.0,0.1771,0.0596,-0.0529,-0.148,-0.2371,-0.3313,-0.3828,0.0,0.0,0.0,0.0,0.0,0.0,0.0,0.0,0.0,0.0,0.0,0.0,0.0,0.0,0.0,0.0,0.0,0.0,0.0,0.0,0.0,0.0,0.0,0.0,0.0,0.0,0.0,0.0,0.0,0.0,0.0,0.0,0.0,0.0,0.0,0.0,0.0,0.0,0.0,0.0,0.0,0.0,0.0,0.0,0.0,0.0,0.0,0.0,0.0,0.0,0.0,0.0,0.0,0.0,0.0,0.0,0.0,0.0,0.0,0.0,0.0,0.0,0.0,0.0,0.0,0.0,0.0,0.0,0.0,0.0,0.0,0.0,0.0,0.0,0.0,0.0,0.0,0.0,0.0,0.0,0.0,0.0,0.0,0.0,0.0,0.0,0.0,0.0,0.0,0.0,0.0,0.0,0.0,0.0,0.0,0.0,0.0,0.0,0.0,0.0,0.0,0.0,0.0,0.0,0.0,0.0,0.0,0.3084,0.1949,0.0693,-0.0222,-0.0985,-0.1606,-0.1927,-0.2388,-0.3049,0.0,0.0,0.0,0.0,0.0,0.0,0.0,0.0,0.0,0.0,0.0,0.0,0.0,0.0,0.0,0.0,0.0,0.0,0.0,0.0,0.0,0.0,0.0,0.0,0.0,0.0,0.0,0.0,0.0,0.0,0.0,0.0,0.0,0.0,0.0,0.0,0.0,0.0,0.8017,0.5482,0.0,0.0,0.0,0.0,0.0,0.0,0.0,0.0,-0.3653,0.0,0.0,0.0,0.0,0.0,0.0,0.0,0.0,0.0,0.0,0.0,0.0,0.0,0.0,0.0,0.0,0.0,0.0,0.0,0.0,0.0,0.0,0.0,0.0,0.0,0.0,0.0,0.0,0.0,0.0,0.0,0.0,0.0,0.0,0.0,0.0,0.0,0.0,0.0,0.0,0.0,0.0,0.0,0.0,0.0,0.0,0.0,0.0,0.0,0.0,0.0,0.0,0.0,0.0,0.0,0.0,0.4102,0.2931,0.1906,0.0954,0.0044,-0.0578,-0.0873,-0.1089,-0.1346,-0.1655,0.0,0.0,0.0,0.0,0.0,0.0,0.0,0.0,0.0,0.0,0.0,0.0,0.0,0.0,0.0,0.0,0.0,0.0,0.0,0.0,0.0,0.0,0.0,0.0,0.0,0.0,0.0,0.0,0.0,0.0,0.0,0.0,0.0,0.0,0.0,0.0,0.0,0.0,0.0,0.4882,0.3205,0.0,0.0,0.0,0.0,0.0,0.0,0.0,0.0,-0.3588,0.0,0.0,0.0,0.0,0.0,0.0,0.0,0.0,0.0,0.0,0.0,0.0,0.0,0.0,0.0,0.0,0.0,0.0,0.0,0.0,0.0,0.0,0.0,0.0,0.0,0.0,0.0,0.0,0.0,0.0,0.0,0.0,0.0,0.0,0.0,0.0,0.0,0.0,0.0,0.0,0.0,0.0,0.0,0.0,0.0,0.0,0.0,0.0,0.0,0.0,0.0,0.0,0.0,0.0,0.0,0.4524,0.3362,0.2393,0.1562,0.0833,0.0306,0.0,-0.0123,-0.0311,0.0,0.0,0.0,0.0,0.0,0.0,0.0,0.0,0.0,0.0,0.0,0.0,0.0,0.0,0.0,0.0,0.0,0.0,0.0,0.0,0.0,0.0,0.0,0.0,0.0,0.0,0.0,0.0,0.0,0.0,0.0,0.0,0.0,0.0,0.0,0.0,0.0,0.0,0.0,0.0,0.4902,0.3323,0.1816,0.0,0.0,0.0,0.0,0.0,0.0,-0.4084,-0.3921,0.0,0.0,0.0,0.0,0.0,0.0,0.0,0.0,0.0,0.0,0.0,0.0,0.0,0.0,0.0,0.0,0.0,0.0,0.0,0.0,0.0,0.0,0.0,0.0,0.0,0.0,0.0,0.0,0.0,0.0,0.0,0.0,0.0,0.0,0.0,0.0,0.0,0.0,0.0,0.0,0.0,0.0,0.0,0.0,0.0,0.0,0.0,0.0,0.0,0.0,0.0,0.0,0.0,0.0,0.0,0.4913,0.3857,0.2952,0.2241,0.1683,0.1239,0.0878,0.0799,0.0608,0.0,0.0,0.0,0.0,0.0,0.0,0.0,0.0,0.0,0.0,0.0,0.0,0.0,0.0,0.0,0.0,0.0,0.0,0.0,0.0,0.0,0.0,0.0,0.0,0.0,0.0,0.0,0.0,0.0,0.0,0.0,0.0,0.0,0.0,0.0,0.0,0.0,0.0,0.0,0.0,0.0,0.3317,0.167,0.004,0.0,0.0,0.0,0.0,-0.4367,-0.4335,0.0,0.0,0.0,0.0,0.0,0.0,0.0,0.0,0.0,0.0,0.0,0.0,0.0,0.0,0.0,0.0,0.0,0.0,0.0,0.0,0.0,0.0,0.0,0.0,0.0,0.0,0.0,0.0,0.0,0.0,0.0,0.0,0.0,0.0,0.0,0.0,0.0,0.0,0.0,0.0,0.0,0.0,0.0,0.0,0.0,0.0,0.0,0.0,0.0,0.0,0.0,0.0,0.0,0.0,0.0,0.0,0.5009,0.4153,0.3331,0.2566,0.2108,0.1795,0.1755,0.1521,0.1359,0.0,0.0,0.0,0.0,0.0,0.0,0.0,0.0,0.0,0.0,0.0,0.0,0.0,0.0,0.0,0.0,0.0,0.0,0.0,0.0,0.0,0.0,0.0,0.0,0.0,0.0,0.0,0.0,0.0,0.0,0.0,0.0,0.0,0.0,0.0,0.0,0.0,0.0,0.0,0.0,0.0,0.3013,0.1447,-0.0172,-0.1588,0.0,0.0,-0.3747,-0.4033,-0.3949,0.0,0.0,0.0,0.0,0.0,0.0,0.0,0.0,0.0,0.0,0.0,0.0,0.0,0.0,0.0,0.0,0.0,0.0,0.0,0.0,0.0,0.0,0.0,0.0,0.0,0.0,0.0,0.0,0.0,0.0,0.0,0.0,0.0,0.0,0.0,0.0,0.0,0.0,0.0,0.0,0.0,0.0,0.0,0.0,0.0,0.0,0.0,0.0,0.0,0.0,0.0,0.0,0.0,0.0,0.0,0.6449,0.5802,0.507,0.4396,0.3862,0.354,0.3258,0.2986,0.2773,0.2443,0.0,0.0,0.0,0.0,0.0,0.0,0.0,0.0,0.0,0.0,0.0,0.0,0.0,0.0,0.0,0.0,0.0,0.0,0.0,0.0,0.0,0.0,0.0,0.0,0.0,0.0,0.0,0.0,0.0,0.0,0.0,0.0,0.0,0.0,0.0,0.0,0.0,0.0,0.0,0.0,0.0,0.0,0.1398,-0.0218,0.0,0.0,0.0,-0.3428,-0.3844,0.0,0.0,0.0,0.0,0.0,0.0,0.0,0.0,0.0,0.0,0.0,0.0,0.0,0.0,0.0,0.0,0.0,0.0,0.0,0.0,0.0,0.0,0.0,0.0,0.0,0.0,0.0,0.0,0.0,0.0,0.0,0.0,0.0,0.0,0.0,0.0,0.0,0.0,0.0,0.0,0.0,0.0,0.0,0.0,0.0,0.0,0.0,0.0,0.0,0.0,0.0,0.0,0.0,0.0,0.0,0.0,0.0,0.6519,0.5837,0.534,0.4935,0.4738,0.4465,0.4112,0.3845,0.0,0.0,0.0,0.0,0.0,0.0,0.0,0.0,0.0,0.0,0.0,0.0,0.0,0.0,0.0,0.0,0.0,0.0,0.0,0.0,0.0,0.0,0.0,0.0,0.0,0.0,0.0,0.8336,0.0,0.0,0.0,0.0,0.0,0.0,0.0,0.0,0.0,0.0,0.0,0.0,0.0,0.0,0.2627,0.1338,-0.0178,-0.1377,0.0,0.0,-0.2887,-0.3235,-0.2949,-0.2693,0.0,0.0,0.0,0.0,0.0,0.0,0.0,0.0,0.0,0.0,0.0,0.0,0.0,0.0,0.0,0.0,0.0,0.0,0.0,0.0,0.0,0.0,0.0,0.0,0.0,0.0,0.0,0.0,0.0,0.0,0.0,0.0,0.0,0.0,0.0,0.0,0.0,0.0,0.0,0.0,0.0,0.0,0.0,0.0,0.0,0.0,0.0,0.0,0.0,0.0,0.0,0.0,0.0,0.0,0.0,0.6777,0.6184,0.5685,0.5293,0.5096,0.4935,0.4921,0.4548,0.4232,0.0,0.0,0.0,0.0,0.0,0.0,0.0,0.0,0.0,0.0,0.0,0.0,0.0,0.0,0.0,0.0,0.0,0.0,0.0,0.0,0.0,0.0,0.0,0.0,0.0,0.0,0.0,0.0,0.0,0.0,0.0,0.0,0.0,0.0,0.0,0.0,0.0,0.0,0.0,0.0,0.0,0.2478,0.1187,0.0,-0.0922,0.0,0.0,-0.188,-0.1924,-0.1858,-0.1709,-0.1464,0.0,0.0,0.0,0.0,0.0,0.0,0.0,0.0,0.0,0.0,0.0,0.0,0.0,0.0,0.0,0.0,0.0,0.0,0.0,0.0,0.0,0.0,0.0,0.0,0.0,0.0,0.0,0.0,0.0,0.0,0.0,0.0,0.0,0.0,0.0,0.0,0.0,0.0,0.0,0.0,0.0,0.0,0.0,0.0,0.0,0.0,0.0,0.0,0.0,0.0,0.0,0.0,0.0,0.7458,0.7162,0.6851,0.6637,0.6483,0.6405,0.6367,0.6367,0.6122,0.5679,0.0,0.0,0.0,0.0,0.0,0.0,0.0,0.0,0.0,0.0,0.0,0.0,0.0,0.0,0.0,0.0,0.0,0.0,0.0,0.0,0.0,0.0,0.0,0.0,0.0,0.0,0.0,0.0,0.9471,0.9511,0.9451,0.0,0.0,0.0,0.0,0.0,0.0,0.0,0.0,0.0,0.0,0.2032,0.1143,0.0137,0.0,0.0,-0.1091,-0.1166,-0.1346,-0.1213,-0.1086,-0.1102,-0.0722,0.0,0.0,0.0,0.0,0.0,0.0,0.0,0.0,0.0,0.0,0.0,0.0,0.0,0.0,0.0,0.0,0.0,0.0,0.0,0.0,0.0,0.0,0.0,0.0,0.0,0.0,0.0,0.0,0.0,0.0,0.0,0.0,0.0,0.0,0.0,0.0,0.0,0.0,0.0,0.0,0.0,0.0,0.0,0.0,0.0,0.0,0.0,0.0,0.0,0.0,0.0,0.0,0.7726,0.7584,0.753,0.7454,0.7373,0.7446,0.7484,0.748,0.7347,0.6948,0.0,0.0,0.0,0.0,0.0,0.0,0.0,0.0,0.0,0.0,0.0,0.0,0.0,0.0,0.0,0.0,0.0,0.0,0.0,0.0,0.0,0.0,0.0,0.0,0.0,0.0,0.0,0.0,0.9633,0.9603,0.9603,0.0,0.0,0.0,0.0,0.0,0.0,0.0,0.0,0.0,0.0,0.1954,0.1226,0.0453,-0.0135,-0.032,-0.0317,-0.0313,-0.0444,-0.0388,-0.0334,-0.0408,0.0,0.0,0.0,0.0,0.0,0.0,0.0,0.0,0.0,0.0,0.0,0.0,0.0,0.0,0.0,0.0,0.0,0.0,0.0,0.0,0.0,0.0,0.0,0.0,0.0,0.0,0.0,0.0,0.0,0.0,0.9191,0.0,0.0,0.0,0.0,0.0,0.0,0.0,0.0,0.0,0.0,0.0,0.0,0.0,0.0,0.0,0.0,0.0,0.0,0.0,0.0,0.0,0.0,0.8004,0.8004,0.8049,0.7987,0.7821,0.797,0.8118,0.8114,0.7979,0.7799,0.758,0.0,0.0,0.0,0.0,0.0,0.0,0.0,0.0,0.0,0.0,0.0,0.0,0.0,0.0,0.0,0.0,0.0,0.0,0.0,0.0,0.0,0.0,0.0,0.0,0.0,0.0,0.9934,0.9701,0.9616,0.0,0.0,0.0,0.0,0.0,0.0,0.0,0.0,0.0,0.0,0.3287,0.2359,0.1521,0.0987,0.0672,0.0673,0.0672,0.0712,0.0915,0.0768,0.071,0.0,0.0,0.0,0.0,0.0,0.0,0.0,0.0,0.0,0.0,0.0,0.0,0.0,0.0,0.0,0.0,0.0,0.0,0.0,0.0,0.0,0.0,0.0,0.0,0.0,0.0,0.0,1.0746,1.0916,0.0,0.0,0.0,0.0,0.0,0.0,0.0,0.0,0.0,0.0,0.0,1.0741,1.1004,0.0,0.0,0.0,0.0,0.0,0.0,0.0,0.0,0.0,0.0,0.0,0.0,0.7965,0.8186,0.8421,0.867,0.897,0.9193,0.9415,0.9679,0.9648,0.9348,0.8816,0.0,0.0,0.0,0.0,0.0,0.0,0.0,0.0,0.0,0.0,0.0,0.0,0.0,0.0,0.0,0.0,0.0,0.0,0.0,0.0,0.0,0.0,0.0,0.0,0.0,1.0425,0.0,0.0,0.0,0.0,0.0,0.0,0.0,0.0,0.0,0.0,0.0,0.5445,0.4431,0.3411,0.2611,0.2106,0.1801,0.153,0.0,0.0,0.0,0.0,0.0,0.0,0.0,0.0,0.0,0.0,0.0,0.0,0.0,0.0,0.0,0.0,0.0,0.0,0.0,0.0,0.0,0.0,0.0,0.0,0.0,0.0,0.0,0.0,0.0,0.0,0.0,0.0,0.0,1.2587,0.0,1.2198,0.0,0.0,0.0,0.0,0.0,0.0,0.0,0.0,1.2823,1.2798,1.2317,1.263,1.2447,0.0,1.1739,1.1107,0.0,0.0,0.0,0.0,0.0,0.0,0.0,0.0,0.8179,0.8448,0.8867,0.9349,0.9803,1.0143,1.0443,1.07,1.07,1.0466,0.9907,0.9263,0.8909,0.0,0.0,0.0,0.0,0.0,0.0,0.0,0.0,0.0,0.0,0.0,0.0,0.0,0.0,0.0,0.0,0.0,0.0,0.0,0.0,0.0,0.0,0.0,1.0749,0.0,0.0,0.0,0.0,0.0,0.0,0.0,0.0,0.0,0.77,0.6681,0.5689,0.4937,0.4051,0.3322,0.2954,0.0,0.0,0.0,0.0,0.0,0.0,0.0,0.2388,0.2364,0.2271,0.2014,0.1523,0.1017,0.0604,0.0523,0.0,0.0,0.0,0.0,0.0,0.0,0.0,0.0,0.0,-0.0301,-0.0713,0.0,0.0,0.0,0.0,0.0,0.0,0.0,0.0,1.4811,1.5103,0.0,1.4289,0.0,0.0,0.0,0.0,0.0,1.2649,0.0,0.0,1.4014,1.403,1.3867,1.4117,1.3788,1.307,1.2991,1.2726,1.2152,1.0876,0.0,0.0,0.0,0.0,0.0,0.0,0.8574,0.875,0.9501,0.9997,1.0255,1.0812,1.1111,1.1149,1.1149,1.1027,1.0863,1.0611,1.0293,0.9886,0.9811,0.0,0.0,0.0,0.0,0.0,0.0,0.0,0.0,0.0,0.0,0.0,0.0,0.0,0.0,0.0,0.0,0.0,0.0,0.0,0.0,1.0888,0.0,0.0,0.0,0.0,0.0,0.0,0.0,0.0,0.0,0.0,0.7781,0.7008,0.6287,0.5673,0.0,0.0,0.0,0.0,0.3445,0.3285,0.3273,0.3333,0.3509,0.3519,0.3501,0.3637,0.0,0.0,0.2275,0.1602,0.1055,0.0801,0.0591,0.0335,0.0082,0.0,0.0,0.0,0.0,0.0,0.0,-0.0319,-0.0673,0.9607,0.0,0.0,0.0,0.0,1.3315,1.465,1.5659,1.6631,1.7074,1.7146,1.6472,0.0,0.0,0.0,0.0,0.0,0.0,1.4837,1.5028,1.5579,1.5489,1.4879,1.4953,1.4666,1.4091,1.3711,1.33,1.2985,1.2462,1.1627,1.052,0.0,0.0,0.0,0.0,0.8871,0.914,0.9946,1.0556,1.1037,1.1521,1.1818,1.1929,1.1818,1.1705,1.1665,1.1293,1.1008,1.0868,1.0398,0.0,0.0,0.0,0.0,0.0,0.0,0.0,0.0,0.0,0.0,0.0,0.0,0.0,0.0,0.0,0.0,0.0,0.0,0.0,1.1505,1.1605,1.1658,0.0,0.0,0.0,0.0,0.0,0.0,0.0,0.0,0.0,0.8484,0.7455,0.6539,0.0,0.0,0.5323,0.5086,0.5031,0.4863,0.4587,0.474,0.0,0.0,0.4802,0.4841,0.4758,0.4292,0.3784,0.3258,0.2598,0.1982,0.1542,0.119,0.0791,0.0393,0.013,0.0,0.0,0.0,0.0,0.0,-0.0207,-0.0455,1.1269,1.0362,1.0551,1.1141,1.2204,1.4334,1.6024,1.7309,1.8594,1.9263,1.9359,1.8779,1.8398,1.819,1.7464,0.0,0.0,0.0,1.651,1.6703,1.6617,1.6346,1.5871,1.5573,1.5151,1.4653,1.4213,1.389,1.3614,1.3372,1.2808,1.1961,0.0,0.0,0.955,0.9373,0.9349,0.9572,1.0307,1.0962,1.1403,1.1861,1.2194,1.2305,1.2194,1.2114,1.2114,1.1913,1.1768,1.165,1.1438,1.1314,0.0,0.0,0.0,0.0,0.0,0.0,0.0,0.0,0.0,0.0,0.0,1.283,1.2682,0.0,0.0,0.0,1.143,1.1667,1.2331,1.2328,0.0,0.0,0.0,0.0,0.0,0.0,0.0,1.0568,0.9909,0.9408,0.9135,0.8261,0.7429,0.6821,0.6465,0.6207,0.6042,0.0,0.5806,0.551,0.5618,0.566,0.5532,0.5661,0.5738,0.5597,0.5186,0.4696,0.421,0.3628,0.3045,0.2465,0.1973,0.1479,0.0897,0.0577,0.0308,0.0,0.0,0.0,0.0,-0.0173,-0.0389,1.3198,1.2356,1.1731,1.1963,1.2975,1.5333,1.7237,1.8789,2.0508,2.1377,2.1436,2.0949,2.0495,2.0098,1.9335,0.0,1.9132,1.8322,1.8134,1.8382,1.7357,1.6877,1.6777,1.6024,1.5388,1.4927,1.4633,1.4349,1.4075,1.3773,1.3531,1.3254,1.1978,1.0949,1.0207,1.0045,0.9977,0.9977,1.0739,1.1242,1.1484,1.2003,1.2298,1.2335,1.2335,1.2342,1.2342,1.2526,1.2549,1.2316,1.2636,1.2558,1.1983,0.0,0.0,0.0,0.0,0.0,0.0,0.0,0.0,0.0,0.0,0.0,0.0,0.0,0.0,0.0,1.2533,0.0,1.3259,1.3104,0.0,0.0,0.0,1.2827,1.2419,1.2511,1.2348,1.1615,0.0,0.0,0.9782,0.9332,0.8754,0.7959,0.7496,0.7048,0.6698,0.6516,0.634,0.6228,0.6158,0.6196,0.6182,0.6269,0.6294,0.6183,0.5944,0.563,0.5142,0.4683,0.4156,0.3438,0.2945,0.2359,0.1649,0.1334,0.0982,0.0267,0.0,0.0,0.0,-0.0177,-0.0354,1.4826,1.3998,1.363,1.3418,1.3505,1.5695,1.7647,1.9314,2.1133,2.2055,2.2362,2.2,2.1564,2.1135,2.0803,2.0615,2.0567,2.0232,1.98,1.9384,1.8894,1.8145,1.7171,1.6409,1.5749,1.5109,1.466,1.4311,1.4124,1.4015,1.3706,1.324,1.2746,1.1967,1.09,1.061,1.0509,1.0509,1.0996,1.1527,1.2077,1.2231,1.2378,1.2526,1.2526,1.2599,1.2746,1.2973,1.3091,1.3194,1.3169,1.3111,1.296,1.279,0.0,0.0,0.0,0.0,0.0,0.0,0.0,0.0,0.0,1.4894,1.5432,0.0,1.4231,0.0,1.394,1.391,1.4159,1.4131,0.0,0.0,1.386,1.3861,1.3739,1.3642,1.3383,1.2824,1.231,1.1722,1.1069,1.0563,1.0002,0.9244,0.8444,0.779,0.7362,0.7274,0.7129,0.691,0.685,0.686,0.6857,0.6886,0.6835,0.6653,0.6571,0.6393,0.5902,0.552,0.4983,0.4322,0.3834,0.3285,0.2476,0.2134,0.1752,0.1112,0.065,0.0262,0.0043,-0.0043,0.0,1.624,1.5334,1.4756,1.4431,1.4287,1.6099,1.7799,1.9387,2.1237,2.226,2.2701,2.2648,2.2442,2.22,2.1997,2.1916,2.182,2.1524,2.1029,2.0447,1.9844,1.8954,1.7859,1.688,1.6094,1.5411,1.4818,1.444,1.4243,1.4166,1.3854,1.3373,1.3154,1.2492,1.1474,1.1117,1.0915,1.0756,1.1301,1.1903,1.2549,1.2562,1.2574,1.2625,1.2647,1.2692,1.2813,1.3053,1.3306,1.3482,1.3924,1.407,1.3883,1.4102,1.411,0.0,0.0,0.0,0.0,0.0,0.0,0.0,0.0,0.0,0.0,0.0,1.5699,1.5566,1.5483,1.5447,1.5459,1.5563,1.5466,1.5078,1.5153,1.514,1.4789,1.4754,1.4501,1.391,1.3518,1.3026,1.2327,1.1792,1.1238,1.0449,0.9724,0.8894,0.8028,0.7808,0.772,0.7496,0.7452,0.7408,0.7323,0.7187,0.7054,0.6969,0.6922,0.6773,0.6402,0.6158,0.5789,0.5137,0.4737,0.4277,0.3524,0.3064,0.2598,0.1871,0.1297,0.0759,0.0253,0.0,0.0,1.7608,1.6505,1.5618,1.5258,1.5267,1.6504,1.7848,1.928,2.1066,2.2199,2.2781,2.2992,2.3101,2.3091,2.2925,2.2838,2.2794,2.2407,2.1933,2.1388,2.0498,1.9563,1.8635,1.7442,1.6476,1.5824,1.5151,1.4692,1.4433,1.4237,1.3963,1.3553,1.3293,1.2766,1.1975,1.1615,1.1294,1.1018,1.1715,1.2339,1.2966,1.301,1.2984,1.2863,1.2875,1.287,1.2931,1.3253,1.3522,1.3772,1.4816,1.5204,1.4858,1.5673,1.5929,0.0,1.5598,0.0,0.0,0.0,0.0,0.0,0.0,0.0,0.0,1.7632,1.7644,1.7219,1.7239,1.7221,1.7042,1.7242,1.7145,1.6572,1.6671,1.6518,1.5737,1.5819,1.5689,1.4975,1.4641,1.4186,1.3492,1.296,1.2344,1.1586,1.102,1.0241,0.8938,0.8504,0.8288,0.8072,0.7965,0.7793,0.7552,0.729,0.7152,0.7115,0.7061,0.6994,0.6655,0.657,0.6395,0.5791,0.549,0.5144,0.4534,0.4031,0.3471,0.2597,0.2064,0.1426,0.058,0.0166,0.0042,1.9228,1.7923,1.7107,1.6525,1.6149,1.6975,1.8109,1.9445,2.0908,2.2135,2.2997,2.3086,2.3101,2.3101,2.3047,2.3047,2.3047,2.2969,2.2423,2.1444,2.1136,2.0241,1.8928,1.8121,1.7326,1.6525,1.5824,1.5193,1.465,1.4447,1.3966,1.3307,1.3233,1.2835,1.2167,0.0,0.0,0.0,1.2636,1.3099,1.3382,1.355,1.3694,1.3814,1.3761,0.0,1.4013,1.4526,1.4892,1.5052,1.5868,0.0,0.0,0.0,0.0,0.0,0.0,0.0,0.0,0.0,0.0,0.0,2.0014,1.9974,1.938,1.9551,1.9687,1.963,1.9471,1.9326,1.9375,1.9229,1.8799,1.8018,1.7922,1.7651,1.6835,1.6756,1.6548,1.6001,1.5471,1.5009,1.4405,1.3717,1.3088,1.2533,1.2057,1.1499,1.0799,0.9763,0.9038,0.8759,0.843,0.8029,0.764,0.7548,0.7396,0.7115,0.7028,0.694,0.6746,0.66,0.6444,0.6118,0.594,0.5635,0.5201,0.4762,0.4295,0.3634,0.2844,0.1977,0.0795,0.0398,0.0199,2.0621,0.0,1.8206,1.7439,0.0,1.7704,1.8622,1.9721,2.0902,2.2246,2.3634,2.3493,2.3537,2.3634,2.3406,2.3319,2.3276,2.3135,2.258,2.17,2.1473,2.0655,1.9429,1.8776,1.8095,1.7326,1.6558,1.5858,1.5193,1.4908,1.4427,1.3742,1.3591,1.3209,1.2726,1.3011,1.3095,1.2966,1.3427,1.3846,1.4158,1.441,1.451,1.4555,0.0,0.0,0.0,0.0,0.0,0.0,0.0,0.0,0.0,0.0,0.0,1.8002,1.8508,1.9032,1.945,1.9962,2.043,2.0859,2.1393,2.1428,2.0756,2.0943,2.1123,2.1137,2.1078,2.0953,2.0699,2.0434,1.995,1.9241,1.9059,1.8682,1.8008,1.7667,1.7387,1.6962,1.6355,1.5787,1.5349,1.452,1.3883,1.3442,1.2924,1.2395,1.1957,1.0914,1.0005,0.9456,0.8899,0.8496,0.8288,0.8016,0.7806,0.7518,0.7353,0.7159,0.6808,0.669,0.6537,0.6311,0.6149,0.5983,0.567,0.5362,0.4973,0.4348,0.3645,0.2824,0.1766,0.0982,0.0393,2.2131,2.0457,1.922,1.8329,1.7747,1.8425,1.9384,2.052,0.0,0.0,0.0,2.4143,2.4143,2.4272,2.3884,2.3624,2.3537,2.3276,2.2738,2.1894,2.169,2.0981,1.996,1.9429,1.8825,1.8167,1.7335,1.6558,1.5899,1.5458,1.5007,1.4448,1.4139,1.3856,1.3623,1.4052,1.4225,1.4092,1.4354,1.4741,1.5191,1.5465,1.5542,1.5514,1.5635,1.5673,1.568,1.6043,1.6314,1.6435,1.7456,1.805,1.8079,1.8939,1.9434,1.9558,1.9912,2.0342,2.0811,2.1211,2.1609,2.208,2.2422,2.2374,2.174,2.2077,2.2302,2.2272,2.2359,2.2224,2.1796,2.1453,2.1004,2.0406,2.0193,1.9764,1.9136,1.8665,1.828,1.7864,1.7174,1.6562,1.6139,1.525,1.457,1.4262,1.3636,1.301,1.2591,1.1645,1.0742,1.0071,0.956,0.9171,0.8976,0.8671,0.8329,0.8007,0.7817,0.7506,0.7038,0.6878,0.6749,0.6447,0.6377,0.6257,0.6018,0.5789,0.5479,0.4935,0.4387,0.3724,0.2901,0.1844,0.0942,2.4303,2.2285,2.0599,1.9334,1.858,1.9079,2.0559,2.2658,2.3226,2.3983,2.4818,2.4946,2.4903,2.4786,2.4466,2.4122,2.3754,2.3537,2.2867,0.0,2.1875,2.1254,2.0244,1.9902,1.9469,1.8834,1.8175,1.7399,1.6607,1.6162,1.5584,1.4995,1.4834,1.4875,1.4977,1.5617,1.5948,1.5922,1.5694,1.5865,1.6451,1.683,1.7189,1.7468,1.7486,1.7515,1.753,1.7827,1.8056,1.8091,1.8731,1.9075,1.9085,1.9524,1.999,2.041,2.081,2.124,2.167,2.21,2.2519,2.2877,2.2974,2.2814,2.244,2.288,2.3216,2.3202,2.3158,2.3139,2.2998,2.2735,2.2263,2.1682,2.1444,2.1026,2.019,1.9812,1.9315,1.8587,1.796,1.7332,1.6619,1.5814,1.5223,1.4887,1.4097,1.3295,1.2618,1.1878,1.118,1.0581,1.0331,1.0073,0.9653,0.9302,0.8947,0.8408,0.8203,0.7866,0.7328,0.72,0.7029,0.6648,0.6563,0.6486,0.6293,0.6022,0.5783,0.547,0.4957,0.4414,0.3857,0.3041,0.2113,2.634,2.4146,2.2232,2.0838,2.0022,2.084,2.2258,2.4082,2.5052,2.5537,2.5779,2.5863,2.5863,2.5737,2.5263,2.4807,2.4391,2.3642,2.2862,2.205,2.1681,2.1151,2.0498,2.0216,1.9902,1.946,1.8825,1.8215,1.7578,1.7066,1.6569,1.6104,1.6061,1.6131,1.6363,1.6896,1.7268,1.7487,1.6864,1.6792,1.7297,1.7603,1.7941,1.8322,1.8429,1.8499,1.8499,1.8742,1.8877,1.8877,1.9358,1.9629,1.9639,2.0029,2.0469,2.0908,2.1348,2.1777,2.2187,2.2617,2.2896,2.3081,2.3101,2.3023,2.2828,2.3329,2.3599,2.3609,2.3475,2.335,2.335,2.2933,2.2472,2.2205,2.2016,2.1717,2.1329,2.0952,2.0426,1.9664,1.8985,1.8273,1.754,1.6672,1.5965,1.552,1.4457,1.3459,1.2998,1.246,1.1883,1.1298,1.0968,1.0726,1.0423,1.0143,0.9803,0.9425,0.9013,0.8594,0.8097,0.7868,0.7526,0.7176,0.7026,0.6868,0.6679,0.6447,0.6182,0.5835,0.5448,0.4934,0.4425,0.3689,0.2687,2.8513,2.6179,2.4004,2.2507,2.1622,2.2546,2.3846,2.5168,2.6472,2.704,2.701,2.6981,2.6887,2.6723,2.6144,2.5622,2.501,2.3927,2.3029,2.2308,2.1587,2.1045,2.0683,2.0459,2.0225,1.9942,1.9439,1.8953,1.8505,1.7991,1.7627,1.7415,1.7374,1.7437,1.7628,1.8013,1.836,1.8535,1.8005,1.7854,1.8214,1.8432,1.8695,1.9124,1.9283,1.9358,1.9358,1.9506,1.9617,1.9627,1.9883,2.0059,2.0068,2.0429,2.085,2.1251,2.1763,2.2286,2.2745,2.3079,2.3222,2.3276,2.3276,2.3266,2.3295,2.358,2.3742,2.3643,2.3409,2.332,2.3246,2.2926,2.2564,2.2564,2.2397,2.2239,2.222,2.1826,2.1253,2.0549,1.989,1.9157,1.8437,1.7622,1.6742,1.5858,1.4697,1.3816,1.3468,1.3033,1.2581,1.2149,1.1659,1.1279,1.1223,1.0925,1.0625,1.0438,0.9916,0.9463,0.9046,0.867,0.8289,0.7902,0.7599,0.7407,0.7173,0.6904,0.6612,0.6289,0.5898,0.5427,0.4798,0.4169,0.3167,3.097,2.8512,2.5977,2.4181,2.3112,2.3693,2.4798,2.613,2.7232,2.8051,2.8474,2.8379,2.8075,2.7649,2.7203,2.6558,2.5777,2.4617,2.3629,2.2798,2.191,2.1273,2.0887,2.0654,2.0459,2.0264,1.9942,1.9587,1.9222,1.8944,1.8754,1.8576,1.8718,1.8701,1.862,1.8965,1.9099,1.895,1.9073,1.9238,1.9533,1.9664,1.9962,2.043,2.0439,2.0449,2.04,2.0488,2.0478,2.0488,2.0507,2.0537,2.0537,2.075,2.1055,2.1481,2.2079,2.2802,2.3584,2.3681,2.3754,2.3744,2.3744,2.3754,2.3754,2.3794,2.364,2.3354,2.3169,2.3188,2.3149,2.3076,2.3013,2.3003,2.2838,2.2759,2.2668,2.2163,2.1551,2.0917,2.0389,1.9824,1.9053,1.8359,1.7451,1.6089,1.5229,1.4453,1.3902,1.3492,1.32,1.2949,1.2459,1.1898,1.1706,1.1477,1.1223,1.1037,1.0669,1.0255,0.9879,0.962,0.9279,0.878,0.8475,0.8208,0.777,0.74,0.71,0.6809,0.6426,0.595,0.5242,0.4697,0.3831,3.2973,3.06,2.7931,2.5987,2.4931,2.5349,2.6081,2.7051,2.7971,2.87,2.9157,2.9221,2.8934,2.8383,2.7966,2.7441,2.6748,2.5238,2.4239,2.3554,2.2311,2.1444,2.1071,2.0858,2.0654,2.0498,2.0255,2.0059,1.9863,1.9518,1.932,1.924,1.932,1.9474,1.9627,1.9821,1.988,1.9945,2.0049,2.0137,2.0187,2.0021,2.0117,2.0556,2.0615,2.0615,2.0615,2.0615,2.0615,2.0615,2.0615,2.0644,2.078,2.0867,2.1173,2.1849,2.2768,2.3554,2.4157,2.4209,2.4219,2.4219,2.4348,2.4476,2.4433,2.4562,2.4466,2.4176,2.3787,2.3537,2.3527,2.3406,2.3319,2.3319,2.3144,2.2969,2.296,2.2505,2.1963,2.1355,2.0854,2.0365,1.9576,1.8725,1.779,1.6745,1.5963,1.5153,1.4561,1.4186,1.397,1.3695,1.3222,1.2746,1.2342,1.1966,1.1744,1.1595,1.1298,1.0931,1.0775,1.0475,1.0137,0.9647,0.9425,0.9025,0.8445,0.8087,0.7727,0.736,0.6731,0.6188,0.5641,0.5287,0.4634,3.4627,3.2392,2.9515,2.7514,2.6441,2.6942,2.7395,2.7841,2.8633,2.9145,2.9419,2.9611,2.9404,2.8882,2.8526,2.8087,2.7446,2.5893,2.488,2.4248,2.2801,2.1806,2.1292,2.1022,2.078,2.0605,2.045,2.0372,2.0333,2.0059,1.9872,1.9872,1.9872,2.0029,2.0342,2.0372,2.045,2.0566,2.0615,2.0615,2.0566,2.0254,2.0244,2.0576,2.0615,2.0615,2.0615,2.0615,2.0615,2.0615,2.0615,2.0683,2.0906,2.0984,2.1524,2.2586,2.3469,2.4241,2.484,2.4882,2.4935,2.4967,2.5147,2.5274,2.5359,2.5496,2.5485,2.5316,2.4765,2.4423,2.4003,2.3797,2.3721,2.3677,2.346,2.3309,2.3299,2.2857,2.2323,2.1814,2.1298,2.0769,2.0099,1.9146,1.8221,1.7637,1.6739,1.5912,1.5401,1.5073,1.4824,1.4525,1.4093,1.3513,1.2893,1.2489,1.2298,1.2114,1.1855,1.1632,1.1558,1.1223,1.0962,1.0513,1.0368,1.0017,0.9422,0.8952,0.8384,0.7776,0.718,0.6667,0.6361,0.5962,0.5564,3.5856,3.3843,3.0538,2.8621,2.7852,2.8307,2.8479,2.8519,2.9079,2.938,2.938,2.9419,2.9275,2.9013,2.8764,2.8407,2.7758,2.6634,2.5639,2.4741,2.3442,2.2366,2.1484,2.1089,2.078,2.0605,2.0566,2.0566,2.0566,2.0527,2.0566,2.0527,2.0498,2.0527,2.0576,2.0566,2.0566,2.0605,2.0615,2.0615,2.0605,2.0576,2.0556,2.0605,2.0615,2.0615,2.0615,2.0615,2.0615,2.0615,2.0615,2.0693,2.0906,2.1292,2.2299,2.3784,2.4245,2.4821,2.5701,2.5853,2.5915,2.6071,2.6185,2.6227,2.6393,2.6487,2.6487,2.6445,2.6227,2.5684,2.4797,2.4433,2.4239,2.4196,2.3937,2.3797,2.3787,2.3054,2.2582,2.2321,2.1759,2.1092,2.0605,1.9814,1.9016,1.8339,1.7466,1.6691,1.6298,1.5939,1.5692,1.5382,1.4903,1.425,1.3397,1.3003,1.282,1.2599,1.2372,1.2187,1.2003,1.1781,1.1595,1.1372,1.1149,1.0818,1.0363,0.9755,0.9046,0.8428,0.7899,0.7428,0.7199,0.6708,0.628,3.5149,3.2754,3.1178,3.0162,2.9592,2.9515,2.9472,2.9447,2.9411,2.938,2.938,2.9275,2.8961,2.8498,2.8263,2.8195,2.8183,2.7091,2.624,2.5571,2.416,2.2998,2.2144,2.1462,2.0935,2.0644,2.0615,2.0615,2.0615,2.0615,2.0615,2.0615,2.0615,2.0615,2.0615,2.0615,2.0615,2.0615,2.0615,2.0615,2.0615,2.0615,2.0615,2.0615,2.0615,2.0615,2.0615,2.0615,2.0615,2.0615,2.0615,2.0731,2.1158,2.2153,2.3409,2.4807,2.532,2.5914,2.6632,2.6869,2.6951,2.7062,2.7307,2.747,2.7592,2.7684,2.7725,2.7603,2.7522,2.7133,2.6434,2.5611,2.5041,2.4988,2.4733,2.4509,2.4311,2.3618,2.2971,2.2959,2.2338,2.1535,2.0855,2.0239,1.9597,1.8831,1.8081,1.7474,1.7072,1.6821,1.6568,1.6228,1.5798,1.5365,1.4974,1.3977,1.3397,1.3112,1.2893,1.2783,1.2599,1.2409,1.2187,1.2003,1.1818,1.137,1.0867,1.0071,0.9433,0.9094,0.8528,0.8236,0.8069,0.7521,0.7097,3.4538,3.2381,3.1869,3.1392,3.0874,3.0683,3.0428,3.0128,2.9787,2.9514,2.9221,2.8922,2.8447,2.7886,2.7539,2.7487,2.7701,2.7105,2.6502,2.5886,2.4724,2.3624,2.2617,2.1916,2.1351,2.086,2.0664,2.0615,2.0615,2.0615,2.0615,2.0615,2.0615,2.0615,2.0615,2.0615,2.0615,2.0615,2.0615,2.0615,2.0615,2.0615,2.0615,2.0615,2.0615,2.0615,2.0615,2.0615,2.0615,2.0615,2.0615,2.0858,2.1543,2.285,2.4172,2.5454,2.608,2.672,2.7418,2.7736,2.7846,2.7914,2.8207,2.8419,2.8498,2.8618,2.8618,2.8498,2.8419,2.8247,2.7834,2.7062,2.6362,2.5988,2.558,2.5252,2.5039,2.4245,2.3722,2.3413,2.2911,2.2147,2.1376,2.0793,2.0088,1.9268,1.864,1.812,1.7691,1.752,1.7314,1.695,1.6612,1.6324,1.6009,1.5259,1.4402,1.4006,1.3586,1.3441,1.3222,1.3039,1.2813,1.2636,1.228,1.1843,1.119,1.0389,0.9942,0.9644,0.9338,0.9017,0.8689,0.8333,0.7944,3.4193,3.281,3.2723,3.2265,3.1705,3.1739,3.127,3.0465,3.0291,2.9705,2.8907,2.8407,2.7874,2.7214,2.6775,2.6434,2.6393,2.6618,2.6352,2.5566,2.5028,2.4057,2.2849,2.2504,2.1959,2.1221,2.0791,2.0635,2.0674,2.0635,2.0615,2.0615,2.0615,2.0635,2.0635,2.0674,2.0664,2.0723,2.0752,2.0703,2.0625,2.0713,2.0742,2.0703,2.0713,2.0723,2.0683,2.0635,2.0625,2.0654,2.0654,2.1114,2.2177,2.3265,2.4421,2.5704,2.6456,2.7256,2.8056,2.8379,2.8566,2.8685,2.8791,2.8922,2.9052,2.9091,2.9091,2.9052,2.8934,2.8791,2.8764,2.8486,2.7926,2.7097,2.6528,2.6049,2.5555,2.4995,2.441,2.3806,2.3446,2.3003,2.2255,2.1574,2.0775,1.9854,1.9199,1.864,1.8202,1.8066,1.7837,1.7564,1.7279,1.7063,1.6821,1.6517,1.5683,1.4966,1.4482,1.4129,1.3912,1.3688,1.3506,1.331,1.2863,1.241,1.1882,1.112,1.0604,1.0295,1.0015,0.976,0.9466,0.9107,0.8786,3.414,3.3489,3.3145,3.2852,3.2554,3.2264,3.1705,3.1041,3.053,2.9754,2.8825,2.8183,2.7499,2.6775,2.629,2.5874,2.558,2.5843,2.5797,2.5445,2.4906,2.4177,2.335,2.2746,2.2217,2.1662,2.124,2.1025,2.0967,2.0732,2.0615,2.0615,2.0625,2.0772,2.1016,2.1035,2.1152,2.1445,2.1515,2.1515,2.1475,2.1515,2.1475,2.1475,2.1475,2.1475,2.1445,2.0938,2.0732,2.1016,2.1035,2.1619,2.2931,2.3823,2.499,2.64,2.7146,2.7794,2.8518,2.891,2.9157,2.9223,2.9365,2.9495,2.9546,2.9585,2.9546,2.9585,2.9495,2.9404,2.9236,2.9184,2.8764,2.8099,2.7592,2.7088,2.6472,2.5735,2.5024,2.4497,2.4396,2.3918,2.2889,2.2217,2.1563,2.0267,1.9712,1.9297,1.8865,1.864,1.8438,1.811,1.7896,1.7691,1.7407,1.7166,1.6629,1.5956,1.5436,1.4982,1.4697,1.4446,1.423,1.3899,1.3437,1.2972,1.2456,1.1872,1.1294,1.0958,1.0706,1.0485,1.0263,0.9945,0.9588,3.4508,3.4097,3.3553,3.3283,3.3159,3.2781,3.2298,3.1621,3.0838,2.997,2.9052,2.8014,2.7174,2.6528,2.6021,2.5633,2.5327,2.5496,2.5633,2.5663,2.5185,2.4545,2.3812,2.3017,2.2536,2.2197,2.1721,2.1475,2.1465,2.1201,2.1094,2.1104,2.1094,2.1191,2.1455,2.1484,2.1631,2.1865,2.1916,2.1936,2.1885,2.1936,2.1936,2.1926,2.1926,2.1936,2.1846,2.1368,2.1182,2.1455,2.157,2.2272,2.3336,2.4106,2.5173,2.6521,2.7406,2.8131,2.8843,2.9275,2.956,2.956,2.9702,2.9779,2.9779,2.9753,2.965,2.965,2.9534,2.9495,2.9419,2.938,2.9236,2.9025,2.8474,2.7901,2.7195,2.6207,2.5516,2.5194,2.5194,2.4516,2.361,2.292,2.2281,2.0935,2.0291,1.9901,1.9495,1.9208,1.8908,1.864,1.8405,1.8158,1.7954,1.7716,1.7476,1.695,1.6429,1.6009,1.5648,1.5374,1.5152,1.4611,1.4169,1.3658,1.3132,1.2398,1.1763,1.1584,1.1397,1.1178,1.0958,1.0643,1.0326,3.5203,3.4675,3.3999,3.3598,3.3441,3.336,3.2878,3.211,3.1261,3.0392,2.9383,2.8128,2.7108,2.6498,2.601,2.5706,2.558,2.5611,2.5904,2.6113,2.5861,2.5347,2.448,2.3515,2.3078,2.2914,2.2328,2.2016,2.2028,2.192,2.1926,2.1891,2.1871,2.1926,2.1987,2.1965,2.1995,2.207,2.2041,2.2041,2.2041,2.2021,2.2021,2.2041,2.2051,2.206,2.206,2.1992,2.1934,2.1982,2.2285,2.2732,2.3307,2.4036,2.5147,2.6445,2.7313,2.8223,2.8973,2.9495,2.974,2.974,2.9779,2.9779,2.974,2.9521,2.9392,2.9353,2.9197,2.9118,2.9263,2.9341,2.9419,2.9588,2.8885,2.8149,2.7284,2.6262,2.581,2.5818,2.5709,2.5241,2.4235,2.3654,2.2775,2.1795,2.1076,2.0549,2.0074,1.9781,1.9429,1.9164,1.8965,1.8664,1.8462,1.8236,1.7988,1.7716,1.7235,1.6881,1.6464,1.6184,1.6017,1.5496,1.494,1.4396,1.3844,1.3179,1.2569,1.2266,1.2081,1.1864,1.1615,1.1334,1.1115,3.6631,3.6102,3.476,3.3979,3.3641,3.3471,3.2954,3.2198,3.1784,3.0831,2.9687,2.885,2.7859,2.6832,2.6467,2.6155,2.6113,2.6196,2.6487,2.6857,2.6857,2.6113,2.5073,2.4255,2.3841,2.377,2.3227,2.2848,2.2828,2.263,2.248,2.242,2.25,2.2537,2.2589,2.2658,2.2699,2.2764,2.276,2.2773,2.2773,2.2773,2.276,2.2803,2.2783,2.2773,2.275,2.2803,2.2656,2.2402,2.2711,2.3152,2.366,2.4361,2.5316,2.6434,2.7499,2.8367,2.9013,2.9534,2.9779,2.9779,2.9779,2.9714,2.9521,2.9287,2.9118,2.9,2.8764,2.8736,2.8922,2.9055,2.9153,2.9063,2.8524,2.7829,2.7163,2.6471,2.6119,2.6292,2.628,2.5803,2.5135,2.4439,2.3745,2.2739,2.195,2.1356,2.0848,2.0495,2.0183,1.9857,1.9594,1.9264,1.8965,1.8741,1.8549,1.8337,1.7988,1.7647,1.7201,1.6786,1.6656,1.6454,1.5882,1.536,1.4813,1.423,1.3697,1.3124,1.2797,1.2582,1.2328,1.2081,1.1856,3.8325,3.7351,3.5862,3.469,3.3865,3.3598,3.3153,3.2566,3.2062,3.1442,3.0469,2.9506,2.8621,2.7765,2.7177,2.6928,2.6876,2.701,2.7336,2.7794,2.7805,2.6981,2.5893,2.5158,2.4828,2.4551,2.4143,2.3893,2.3757,2.3481,2.3431,2.3441,2.341,2.3437,2.3458,2.3308,2.3236,2.327,2.3188,2.3101,2.3101,2.3188,2.3266,2.3266,2.3319,2.3396,2.3396,2.3396,2.3181,2.2914,2.3095,2.3493,2.398,2.4647,2.5538,2.6622,2.7644,2.8459,2.9052,2.9534,2.9779,2.974,2.9714,2.9521,2.9275,2.8961,2.8645,2.8383,2.8115,2.8115,2.8347,2.8621,2.863,2.8425,2.7901,2.7465,2.7128,2.6654,2.6411,2.6452,2.6461,2.6239,2.5574,2.4975,2.4265,2.3386,2.2532,2.2039,2.16,2.1285,2.0924,2.0571,2.028,1.9977,1.9649,1.9386,1.9098,1.8898,1.8573,1.8259,1.7818,1.7373,1.721,1.7067,1.6708,1.6269,1.5718,1.5163,1.4626,1.4096,1.3665,1.3324,1.3103,1.2873,1.2658,4.0167,3.86,3.703,3.5563,3.4289,3.3849,3.3458,3.2998,3.2366,3.1995,3.1517,3.0236,2.955,2.9094,2.8234,2.7847,2.7985,2.7898,2.8223,2.8554,2.8526,2.7914,2.6887,2.6268,2.5821,2.5432,2.5158,2.4893,2.4745,2.4671,2.466,2.4661,2.465,2.452,2.4329,2.4102,2.3787,2.357,2.3363,2.3276,2.3319,2.3493,2.3624,2.3711,2.3917,2.396,2.396,2.3917,2.3714,2.3256,2.345,2.3764,2.4196,2.4871,2.5748,2.6798,2.7736,2.8498,2.9052,2.9495,2.9779,2.974,2.956,2.9314,2.904,2.8566,2.8075,2.7742,2.7336,2.7377,2.7711,2.8029,2.8058,2.7854,2.749,2.7295,2.7153,2.6788,2.6487,2.6487,2.6487,2.6223,2.5728,2.5103,2.4474,2.3954,2.3111,2.2476,2.2071,2.1726,2.1431,2.121,2.0955,2.0732,2.0366,2.0031,1.9737,1.9441,1.9098,1.8764,1.8307,1.7944,1.7759,1.7527,1.7278,1.6944,1.6534,1.6016,1.5494,1.4979,1.4482,1.4191,1.3937,1.37,1.3442,4.1351,3.9822,3.7717,3.6124,3.4999,3.4075,3.3484,3.3081,3.2912,3.2459,3.1916,3.1437,3.0854,3.0131,2.9458,2.9181,2.9101,2.8799,2.8764,2.9,2.9197,2.891,2.8143,2.7418,2.6816,2.6487,2.6113,2.5893,2.5852,2.5841,2.5852,2.5852,2.581,2.5611,2.5242,2.4861,2.4444,2.4067,2.3807,2.3657,2.3711,2.3927,2.4143,2.4337,2.468,2.4775,2.469,2.4647,2.4519,2.4209,2.3993,2.41,2.454,2.5115,2.5957,2.691,2.7857,2.8618,2.9091,2.9507,2.9779,2.974,2.956,2.9263,2.8882,2.8263,2.7672,2.7156,2.6693,2.6723,2.7209,2.7431,2.7515,2.7458,2.7271,2.6976,2.6741,2.6575,2.6499,2.6487,2.6487,2.6449,2.6251,2.5523,2.4913,2.4384,2.3661,2.2907,2.2476,2.209,2.1851,2.16,2.14,2.1146,2.0976,2.0645,2.0323,2.0063,1.9726,1.9429,1.8977,1.8543,1.8395,1.8192,1.7915,1.76,1.7211,1.6915,1.6408,1.5873,1.5333,1.5032,1.4781,1.4532,1.4282,4.1957,4.009,3.8241,3.6748,3.547,3.4422,3.3748,3.3451,3.3212,3.2875,3.2489,3.2197,3.1687,3.1139,3.0569,3.02,2.9884,2.9507,2.9339,2.9468,2.9534,2.9404,2.9106,2.8542,2.8035,2.7563,2.7267,2.7092,2.6999,2.6958,2.6958,2.6928,2.6887,2.6558,2.6155,2.5653,2.5147,2.469,2.4305,2.4122,2.4176,2.4476,2.4903,2.5263,2.56,2.5737,2.5527,2.5527,2.5443,2.5263,2.5052,2.4903,2.5084,2.5706,2.6498,2.7307,2.8127,2.8803,2.9209,2.9585,2.9779,2.9779,2.956,2.9197,2.8752,2.8103,2.7377,2.6787,2.6343,2.6155,2.6659,2.6966,2.7052,2.7159,2.7077,2.6868,2.6581,2.6487,2.6465,2.6408,2.6327,2.6292,2.6027,2.5521,2.5111,2.4496,2.3527,2.2818,2.2662,2.2324,2.2066,2.1862,2.1726,2.1557,2.1463,2.1198,2.088,2.0635,2.041,2.015,1.9802,1.9408,1.9065,1.8721,1.8385,1.822,1.7868,1.7586,1.7314,1.6834,1.6391,1.5957,1.5671,1.5569,1.5296,4.199,3.9928,3.8528,3.7157,3.5843,3.4793,3.4167,3.3796,3.342,3.3169,3.3006,3.2541,3.2289,3.1988,3.1485,3.0966,3.0408,3.0088,2.9902,2.9727,2.974,2.9624,2.9443,2.9275,2.904,2.8498,2.8247,2.8075,2.7931,2.7971,2.7891,2.7903,2.7794,2.747,2.7062,2.6475,2.5946,2.5443,2.5052,2.4882,2.4882,2.5232,2.5737,2.634,2.6723,2.6723,2.6558,2.6464,2.6434,2.6393,2.6434,2.6227,2.6196,2.6498,2.7237,2.781,2.8486,2.8961,2.9302,2.9611,2.9779,2.9779,2.9548,2.9223,2.8752,2.8075,2.7336,2.6569,2.6041,2.5717,2.608,2.6511,2.6737,2.6888,2.6993,2.6873,2.6694,2.6562,2.6443,2.627,2.6154,2.6084,2.573,2.5277,2.4931,2.4478,2.3538,2.2786,2.2611,2.2341,2.1942,2.18,2.1632,2.1726,2.1651,2.1537,2.1253,2.1178,2.0967,2.0828,2.0592,2.0258,1.9835,1.9164,1.8787,1.8657,1.8516,1.8268,1.7968,1.769,1.7367,1.6884,1.6711,1.6624,1.6297,4.1293,3.9806,3.8341,3.7174,3.6193,3.5321,3.4559,3.3979,3.3796,3.3495,3.3136,3.3011,3.2893,3.2767,3.2298,3.1521,3.0924,3.0585,3.0321,3.0031,2.9969,2.9891,2.9916,2.9941,2.9749,2.9429,2.9165,2.8925,2.8685,2.8633,2.8633,2.8621,2.8554,2.8315,2.7926,2.747,2.6899,2.6404,2.606,2.5924,2.5966,2.6227,2.6682,2.7406,2.7794,2.7794,2.7568,2.7528,2.7458,2.7307,2.7458,2.758,2.7592,2.7522,2.7765,2.8207,2.8776,2.9197,2.9496,2.965,2.9779,2.974,2.956,2.9263,2.8791,2.8143,2.7418,2.6517,2.579,2.538,2.5622,2.6176,2.6726,2.7003,2.7144,2.7139,2.7039,2.6753,2.6421,2.6201,2.6015,2.5793,2.538,2.4968,2.4555,2.4073,2.3247,2.2531,2.2174,2.1816,2.1412,2.1383,2.14,2.1588,2.1788,2.1706,2.1549,2.16,2.1506,2.1443,2.123,2.1071,2.0613,2.0031,1.9507,1.9199,1.9048,1.8897,1.8674,1.8393,1.8082,1.7792,1.7614,1.7468,1.7278,4.0218,3.9081,3.787,3.7052,3.6412,3.5654,3.4929,3.4324,3.4022,3.3683,3.3366,3.3283,3.3398,3.3505,3.3369,3.2718,3.2039,3.1392,3.1124,3.0844,3.07,3.0739,3.0781,3.0794,3.0977,3.1016,3.082,3.0061,2.9388,2.9339,2.93,2.9287,2.9197,2.8949,2.8645,2.8207,2.7805,2.74,2.7133,2.704,2.704,2.7296,2.7822,2.8223,2.8593,2.8605,2.8383,2.8303,2.8263,2.8195,2.8263,2.8435,2.8566,2.8697,2.8724,2.8882,2.9209,2.9599,2.9819,2.996,2.9934,2.9934,2.9728,2.9482,2.9079,2.8474,2.7592,2.6434,2.5695,2.5242,2.5369,2.5988,2.6526,2.692,2.7098,2.7189,2.7071,2.6734,2.6427,2.6131,2.591,2.5583,2.5064,2.4612,2.4172,2.3551,2.2905,2.2363,2.1789,2.133,2.0914,2.083,2.088,2.1115,2.1368,2.1474,2.1549,2.1706,2.1882,2.1819,2.1851,2.1651,2.1451,2.108,2.0526,1.9987,1.9726,1.964,1.937,1.9133,1.8898,1.8686,1.8473,1.8295,1.8131,3.9166,3.8206,3.742,3.6922,3.6552,3.594,3.5328,3.4758,3.4363,3.3971,3.3564,3.3598,3.3865,3.4118,3.4124,3.3851,3.3211,3.2408,3.2015,3.1716,3.1569,3.1673,3.186,3.1994,3.2052,3.2253,3.2371,3.1758,3.0494,3.0251,3.006,2.9792,2.9599,2.938,2.9118,2.8803,2.8578,2.8327,2.8155,2.8011,2.8103,2.8435,2.8736,2.8922,2.9131,2.9131,2.891,2.887,2.887,2.887,2.891,2.9,2.9326,2.9702,2.9882,2.9819,2.9921,3.019,3.0381,3.0343,3.0241,3.0152,2.9972,2.9728,2.9275,2.8593,2.7672,2.631,2.5569,2.5327,2.5411,2.5832,2.6349,2.6834,2.7064,2.7115,2.7087,2.6841,2.6414,2.6119,2.5793,2.5407,2.4921,2.437,2.3927,2.3358,2.2689,2.2048,2.1496,2.09,2.051,2.0336,2.0334,2.0571,2.0796,2.1051,2.121,2.1431,2.1745,2.1932,2.2111,2.2247,2.2037,2.1827,2.1471,2.0965,2.0677,2.0399,2.0224,1.9998,1.9803,1.9597,1.9382,1.9275,1.9168,3.8472,3.7585,3.7261,3.6828,3.6439,3.6317,3.5793,3.5046,3.4952,3.4594,3.4034,3.4189,3.4426,3.4675,3.4729,3.4277,3.3719,3.3307,3.2817,3.2397,3.2226,3.2307,3.2419,3.254,3.2975,3.3344,3.3408,3.2554,3.1811,3.1539,3.0932,3.0368,3.0163,2.9856,2.9543,2.9411,2.9118,2.8816,2.8761,2.8773,2.8876,2.9217,2.9413,2.953,2.9635,2.9686,2.9518,2.9429,2.938,2.9341,2.9341,2.9548,2.9921,3.019,3.0634,3.081,3.0823,3.0685,3.0898,3.0798,3.0609,3.0444,3.019,2.987,2.9314,2.8542,2.762,2.661,2.5904,2.5496,2.5549,2.5812,2.6412,2.6858,2.7138,2.7306,2.7372,2.7039,2.6589,2.6201,2.5945,2.5371,2.4838,2.4261,2.3728,2.3121,2.2487,2.1898,2.1246,2.0706,2.0014,1.9766,1.9781,1.9987,2.0118,2.041,2.0752,2.104,2.1482,2.1901,2.2161,2.234,2.2598,2.2359,2.2099,2.1858,2.1534,2.1282,2.1115,2.0892,2.0688,2.0495,2.0301,2.0204,2.0138,3.8594,3.7459,3.7049,3.6687,3.6417,3.6417,3.5894,3.525,3.5207,3.4976,3.4596,3.4812,3.5263,3.5696,3.5817,3.552,3.4982,3.4565,3.4065,3.3489,3.3396,3.3491,3.3788,3.4085,3.4446,3.4828,3.5051,3.4977,3.3943,3.2919,3.2098,3.1591,3.1009,3.066,3.0258,3.0152,2.9995,3.0015,3.0229,3.0458,3.0563,3.0738,3.0923,3.0911,3.0696,3.0557,3.0429,3.0087,2.9985,2.9973,2.9973,3.005,3.0305,3.0596,3.0998,3.1479,3.1653,3.1666,3.1593,3.1347,3.1123,3.081,3.0482,2.9947,2.9314,2.8712,2.7862,2.6798,2.6332,2.5957,2.5759,2.5884,2.6487,2.6984,2.7301,2.7446,2.7533,2.7217,2.6847,2.6482,2.6109,2.5667,2.5218,2.4743,2.4202,2.3514,2.2956,2.2426,2.1589,2.0743,1.9973,1.917,1.9231,1.9363,1.9495,1.9693,2.0107,2.0495,2.104,2.1482,2.1994,2.2285,2.2525,2.283,2.2775,2.2549,2.2322,2.2087,2.1808,2.1694,2.1569,2.142,2.127,2.1112,2.0983,3.9131,3.7907,3.7201,3.6722,3.6452,3.6405,3.5928,3.5238,3.543,3.5353,3.5216,3.5669,3.6389,3.6861,3.69,3.6559,3.6163,3.575,3.5223,3.4812,3.4688,3.4746,3.5021,3.5494,3.6055,3.6624,3.6782,3.6648,3.6042,3.5063,3.3986,3.2975,3.2111,3.1602,3.1313,3.1115,3.0996,3.1101,3.1512,3.1786,3.1944,3.2064,3.2157,3.2107,3.19,3.1681,3.1617,3.1358,3.1151,3.1164,3.1074,3.1164,3.128,3.1702,3.2131,3.2573,3.2837,3.2899,3.265,3.2327,3.1767,3.1259,3.0697,2.9947,2.9314,2.8922,2.8395,2.7237,2.6757,2.6343,2.6104,2.6218,2.6734,2.7227,2.7577,2.7676,2.7742,2.7591,2.7377,2.704,2.6734,2.6395,2.5926,2.543,2.4755,2.3973,2.3408,2.2934,2.2063,2.1089,2.0186,1.9391,1.9026,1.9073,1.9008,1.9175,1.9528,1.9911,2.0452,2.1028,2.1514,2.2056,2.2451,2.2787,2.315,2.3288,2.3113,2.2805,2.2543,2.25,2.2427,2.2372,2.2237,2.2051,2.1834,4.0039,3.9069,3.7952,3.7155,3.6662,3.6487,3.6008,3.5455,3.5815,3.587,3.5939,3.6822,3.7596,3.7901,3.7672,3.7327,3.69,3.6284,3.579,3.5467,3.5358,3.5588,3.5951,3.6508,3.7056,3.7495,3.7787,3.7933,3.7875,3.7154,3.5575,3.3887,3.3315,3.2765,3.2369,3.2183,3.222,3.2326,3.2615,3.2696,3.2815,3.2869,3.2896,3.2883,3.2909,3.2961,3.2961,3.2828,3.2709,3.2709,3.2553,3.2527,3.2668,3.3016,3.346,3.3978,3.4105,3.4148,3.4015,3.3074,3.2155,3.1482,3.0735,2.9947,2.938,2.8988,2.8435,2.7794,2.729,2.685,2.6685,2.6768,2.7185,2.7567,2.7968,2.8123,2.8225,2.82,2.7967,2.7632,2.7328,2.7031,2.6791,2.6298,2.5558,2.4767,2.4156,2.367,2.2626,2.1623,2.0685,1.9852,1.9225,1.8923,1.866,1.8808,1.9098,1.9386,1.9857,2.0441,2.0996,2.1577,2.2192,2.2744,2.3108,2.3497,2.3881,2.3691,2.3514,2.3407,2.3318,2.322,2.3148,2.2985,2.2707,4.0859,4.0039,3.9024,3.7985,3.6909,3.6888,3.6376,3.5799,3.6358,3.6837,3.7067,3.7825,3.8315,3.8464,3.8412,3.8037,3.7582,3.7337,3.6663,3.6282,3.6217,3.6429,3.6822,3.725,3.7749,3.8142,3.8427,3.856,3.8509,3.8254,3.7652,3.6248,3.4883,3.4018,3.3582,3.3369,3.3486,3.3816,3.4044,3.4272,3.4339,3.45,3.4607,3.4766,3.4361,3.4502,3.4498,3.4183,3.3998,3.3894,3.3792,3.3846,3.3964,3.4271,3.4726,3.5296,3.5315,3.5332,3.4923,3.3811,3.2552,3.1418,3.0697,3.0062,2.9535,2.9145,2.8673,2.8167,2.7748,2.7423,2.7074,2.7267,2.7649,2.8016,2.8349,2.8562,2.8672,2.87,2.8533,2.821,2.7921,2.7646,2.7425,2.7216,2.6389,2.5558,2.4969,2.4329,2.3429,2.2482,2.1633,2.0724,2.0086,1.9188,1.8826,1.8755,1.8694,1.8954,1.9309,1.989,2.0549,2.1187,2.1839,2.2457,2.3168,2.3691,2.4102,2.4463,2.4434,2.4218,2.4118,2.4076,2.3975,2.3888,2.3607,4.1646,4.0944,4.0083,3.8832,3.7513,3.7328,3.6877,3.6405,3.6957,3.7577,3.8104,3.8553,3.887,3.9017,3.9038,3.8819,3.8412,3.806,3.7567,3.726,3.7106,3.7289,3.7519,3.7886,3.8352,3.8649,3.887,3.898,3.898,3.8775,3.8339,3.7656,3.6725,3.5767,3.5019,3.4754,3.4848,3.5265,3.5575,3.5831,3.583,3.6016,3.6162,3.6304,3.61,3.6116,3.6133,3.5933,3.5699,3.5505,3.5377,3.5284,3.5346,3.5521,3.5859,3.6262,3.649,3.638,3.5816,3.42,3.2665,3.1542,3.0848,3.0254,2.9741,2.9353,2.891,2.8498,2.8231,2.7978,2.758,2.7862,2.8183,2.8569,2.8834,2.9066,2.9172,2.9176,2.9049,2.8804,2.8615,2.8582,2.8464,2.8258,2.748,2.6609,2.5871,2.5367,2.4846,2.3909,2.296,2.2011,2.1083,2.007,1.9124,1.9042,1.8909,1.8674,1.9031,1.9518,2.0128,2.0816,2.1639,2.2433,2.316,2.3842,2.4436,2.4935,2.502,2.495,2.4921,2.4908,2.4851,2.4738,2.4509,4.2456,4.166,4.0944,3.9763,3.8336,3.7913,3.7578,3.7307,3.7623,3.8048,3.8602,3.9106,3.946,3.961,3.9646,3.9508,3.9292,3.8841,3.842,3.8211,3.8023,3.8052,3.824,3.8538,3.876,3.9053,3.9177,3.9265,3.9337,3.9119,3.8907,3.8671,3.7945,3.7296,3.6635,3.636,3.6427,3.6626,3.6665,3.6783,3.69,3.7095,3.7173,3.7285,3.7405,3.7458,3.7462,3.7457,3.7275,3.7191,3.7006,3.6968,3.7111,3.7206,3.75,3.7912,3.7697,3.7644,3.754,3.4562,3.2899,3.1924,3.1345,3.0674,3.0139,2.9664,2.9302,2.8934,2.8764,2.8566,2.8474,2.8514,2.8752,2.8988,2.9263,2.9445,2.9539,2.963,2.9454,2.9399,2.9604,2.9689,2.9596,2.9327,2.8564,2.7764,2.6867,2.6305,2.6009,2.5318,2.4371,2.3294,2.2274,2.1125,2.0183,1.9442,1.9103,1.8771,1.8879,1.9488,2.0052,2.0712,2.1537,2.2402,2.3165,2.3901,2.4751,2.5564,2.5633,2.5743,2.577,2.577,2.5715,2.5578,2.5314,4.318,4.2511,4.199,4.1099,3.9984,3.9131,3.8572,3.8333,3.857,3.8976,3.9318,3.9561,3.9696,3.991,4.0126,4.0181,4.0095,4.0025,3.9657,3.9139,3.895,3.8855,3.8907,3.8907,3.9104,3.9265,3.9388,3.9388,3.9388,3.9301,3.9192,3.8958,3.8686,3.815,3.7529,3.7285,3.7414,3.7505,3.762,3.7734,3.7787,3.7863,3.7976,3.8089,3.824,3.8389,3.8523,3.8523,3.8486,3.8389,3.8127,3.8165,3.824,3.8217,3.8404,3.876,3.8669,3.8534,3.7895,3.6013,3.4373,3.3197,3.2153,3.143,3.0636,3.0126,2.9767,2.9559,2.9427,2.9207,2.8922,2.9028,2.9223,2.9302,2.947,2.965,2.9755,2.9871,2.9897,2.9958,3.0128,3.04,3.0416,3.0671,3.0129,2.9362,2.8518,2.7596,2.7126,2.6557,2.5775,2.4647,2.3536,2.2317,2.1285,2.0537,1.9894,1.9579,1.9527,1.9776,2.0289,2.0938,2.1548,2.2517,2.3253,2.4005,2.4936,2.5784,2.634,2.6568,2.6486,2.6433,2.6312,2.619,2.6055,4.4013,4.3364,4.2936,4.2304,4.145,4.0372,3.9709,3.9508,3.9845,4.005,3.9943,4.0064,4.0142,4.0288,4.0543,4.0836,4.0836,4.0734,4.0562,3.9995,3.9687,3.9487,3.9307,3.9265,3.925,3.9388,3.9403,3.9388,3.9388,3.9388,3.9316,3.9192,3.9068,3.876,3.8375,3.8263,3.8173,3.8225,3.8285,3.8337,3.8427,3.8538,3.8649,3.8811,3.8958,3.9104,3.9162,3.9199,3.9162,3.9031,3.8958,3.8958,3.8958,3.8995,3.9141,3.9415,3.96,3.939,3.8671,3.8098,3.6548,3.5161,3.3772,3.2631,3.1831,3.1538,3.0958,3.0597,3.0315,2.9982,2.9777,2.9868,2.9818,2.9908,2.9767,2.9946,2.9856,2.9998,3.0254,3.0353,3.0771,3.103,3.1481,3.1694,3.1759,3.0992,3.0241,2.9316,2.8373,2.7696,2.71,2.6034,2.4869,2.3688,2.2575,2.1596,2.0969,2.0405,2.04,2.0517,2.1046,2.1765,2.2195,2.2638,2.3538,2.44,2.5215,2.5975,2.6669,2.701,2.7037,2.6971,2.6907,2.6762,2.6642,4.4946,4.422,4.3819,4.3324,4.2592,4.1576,4.0996,4.0807,4.1393,4.1095,4.0241,4.0766,4.0761,4.0632,4.095,4.1256,4.1489,4.1256,4.1021,4.0681,4.0246,3.9965,3.9691,3.9571,3.9619,3.9523,3.9649,3.9918,3.9538,3.9582,3.9568,3.9463,3.9375,3.9207,3.9031,3.8907,3.8797,3.876,3.8797,3.8833,3.8848,3.9141,3.925,3.9409,3.9625,3.9839,3.9945,3.9965,3.998,3.991,3.9839,3.9874,3.9889,3.9839,3.9985,4.0196,4.042,4.017,3.9919,3.9456,3.8835,3.7331,3.581,3.4623,3.3666,3.3133,3.2588,3.2133,3.1848,3.1318,3.0944,3.079,3.0675,3.0471,3.019,3.01,2.9985,3.0126,3.0394,3.0784,3.1429,3.1973,3.2834,3.3187,3.3148,3.2754,3.205,3.1317,3.0293,2.8931,2.8285,2.7472,2.6304,2.5101,2.4003,2.2996,2.2262,2.1747,2.1481,2.1535,2.2103,2.2581,2.2974,2.3431,2.4029,2.4861,2.5944,2.6661,2.7193,2.7453,2.7787,2.7469,2.7384,2.7248,2.7141,4.5953,4.5258,4.4999,4.4472,4.3717,4.2941,4.2368,4.1974,4.1951,4.1694,4.1445,4.112,4.1168,4.1236,4.139,4.1683,4.1817,4.1851,4.1621,4.1239,4.067,4.0257,4.0056,4.0055,4.0074,4.0262,4.0472,4.0651,4.0666,4.0427,4.0113,4.0098,3.9694,3.9508,3.9367,3.9265,3.9228,3.9192,3.9192,3.9192,3.925,3.9481,3.9661,3.991,4.0211,4.042,4.0558,4.0665,4.0681,4.0624,4.0646,4.0665,4.0524,4.0597,4.0752,4.0938,4.0938,4.082,4.0786,4.0478,3.9958,3.9425,3.8292,3.6705,3.5494,3.4681,3.4272,3.3843,3.3582,3.3198,3.2664,3.2366,3.1995,3.1625,3.1201,3.0739,3.0586,3.0572,3.09,3.1505,3.2114,3.296,3.3856,3.4393,3.4354,3.4211,3.383,3.311,3.2123,3.0746,2.9467,2.8684,2.7723,2.6523,2.5503,2.4472,2.3773,2.3128,2.284,2.2689,2.3167,2.3566,2.3827,2.4261,2.4867,2.5817,2.6891,2.7414,2.7777,2.8449,2.8758,2.8297,2.7897,2.7808,2.7714,4.6862,4.6269,4.5985,4.5348,4.4465,4.3903,4.3384,4.2911,4.2634,4.2415,4.2136,4.1942,4.1839,4.1929,4.2188,4.2365,4.2377,4.2279,4.2002,4.1321,4.1009,4.0694,4.0546,4.0648,4.0763,4.0965,4.1115,4.1257,4.1324,4.107,4.0726,4.0337,3.9918,3.9679,3.9463,3.9388,3.9388,3.9388,3.9388,3.946,3.9589,3.9753,4.0036,4.0316,4.0699,4.1005,4.1207,4.1358,4.1517,4.1671,4.1852,4.1818,4.1689,4.1696,4.1606,4.1737,4.1754,4.1688,4.1638,4.1374,4.1057,4.0703,4.0309,3.9254,3.7956,3.7019,3.6274,3.5667,3.547,3.5181,3.4617,3.4046,3.3485,3.2921,3.2254,3.1555,3.136,3.1191,3.1633,3.2259,3.2981,3.3796,3.4524,3.5136,3.546,3.5185,3.5047,3.4764,3.3735,3.2377,3.098,2.9842,2.8943,2.7964,2.701,2.6121,2.5241,2.4589,2.4105,2.4073,2.4377,2.4673,2.5031,2.5347,2.5714,2.6576,2.7363,2.7924,2.8379,2.9047,2.9563,2.9285,2.885,2.8544,2.8434,4.7671,4.7152,4.6791,4.5981,4.5024,4.4572,4.4151,4.3754,4.3497,4.3054,4.2638,4.278,4.2665,4.2523,4.2825,4.2931,4.2853,4.271,4.2354,4.1411,4.1395,4.1208,4.1146,4.134,4.1437,4.1512,4.1639,4.1938,4.1669,4.1474,4.116,4.0516,4.0352,4.0023,3.9463,3.946,3.9556,3.9751,3.9742,3.9784,3.9783,4.0021,4.0424,4.0851,4.1323,4.1769,4.1964,4.2221,4.2607,4.3057,4.3394,4.3411,4.3283,4.2912,4.275,4.2588,4.2651,4.2554,4.2444,4.2206,4.1964,4.1737,4.1474,4.0932,3.9922,3.8942,3.8117,3.7688,3.7477,3.7244,3.6744,3.6063,3.5461,3.4701,3.3898,3.3111,3.26,3.2477,3.2654,3.3283,3.3939,3.471,3.5219,3.5816,3.6291,3.6026,3.6164,3.6156,3.5502,3.4182,3.2953,3.156,3.0684,2.9897,2.8862,2.7947,2.6823,2.6105,2.5669,2.5455,2.5748,2.6055,2.6294,2.6528,2.669,2.701,2.7635,2.839,2.9146,2.963,3.0048,3.0162,2.9943,2.9698,2.9475,4.8324,4.7869,4.7253,4.648,4.5749,4.5295,4.4827,4.4381,4.4166,4.3711,4.3133,4.2853,4.2796,4.2901,4.3009,4.3078,4.3079,4.3055,4.2841,4.2357,4.2042,4.1748,4.167,4.1956,4.2111,4.2351,4.2521,4.2662,4.2581,4.2267,4.1826,4.1197,4.0823,4.0224,3.9736,3.9733,3.9932,4.039,4.0544,4.0368,4.0137,4.0327,4.065,4.129,4.1866,4.2509,4.2921,4.3655,4.3915,4.4258,4.4892,4.5105,4.5169,4.4511,4.4198,4.4066,4.3687,4.3443,4.327,4.3023,4.2726,4.2507,4.2269,4.2029,4.1492,4.0687,4.0093,3.9751,3.9455,3.9174,3.8797,3.8085,3.7399,3.6483,3.5569,3.4745,3.3977,3.3924,3.3876,3.4404,3.5037,3.5527,3.6005,3.6399,3.6873,3.7243,3.7604,3.7649,3.7305,3.6341,3.5477,3.4176,3.2931,3.1982,3.0888,2.9763,2.8654,2.8048,2.7678,2.7458,2.7223,2.7331,2.7522,2.7544,2.7706,2.7989,2.8513,2.9464,3.0104,3.0464,3.0925,3.1228,3.1546,3.1451,3.1072,4.8923,4.8562,4.7885,4.7169,4.6499,4.6147,4.566,4.5142,4.488,4.4427,4.3849,4.3438,4.3257,4.3319,4.34,4.3193,4.321,4.3273,4.2855,4.2544,4.2511,4.2319,4.2356,4.2524,4.2725,4.2925,4.3105,4.3215,4.32,4.303,4.2462,4.1918,4.131,4.0837,4.0474,4.0535,4.0755,4.1377,4.1626,4.152,4.1112,4.133,4.1575,4.2148,4.2816,4.34,4.4033,4.4818,4.5441,4.574,4.63,4.64,4.6283,4.5751,4.5466,4.52,4.4817,4.4314,4.4158,4.386,4.3454,4.327,4.3082,4.2836,4.2803,4.2078,4.1656,4.1302,4.1019,4.0725,4.0371,3.9787,3.9273,3.8546,3.7451,3.6446,3.599,3.5808,3.5832,3.6054,3.6479,3.6628,3.7048,3.7296,3.7677,3.7994,3.8439,3.8782,3.8493,3.8175,3.7405,3.6562,3.5167,3.3789,3.2463,3.1468,3.0543,3.003,2.9667,2.9271,2.8942,2.8725,2.8677,2.8733,2.8811,2.8929,2.9569,3.0283,3.0866,3.1239,3.1848,3.2435,3.2739,3.2956,3.2727,4.9441,4.9152,4.8608,4.7983,4.7321,4.7067,4.6569,4.5985,4.566,4.5221,4.467,4.4289,4.4026,4.391,4.4035,4.3701,4.351,4.3516,4.3028,4.2765,4.2743,4.2726,4.2851,4.3024,4.312,4.317,4.3275,4.3305,4.3275,4.3165,4.2974,4.2642,4.2304,4.1926,4.1906,4.1887,4.1909,4.253,4.2911,4.3225,4.3055,4.2805,4.2886,4.3344,4.4023,4.4542,4.5158,4.5871,4.679,4.7189,4.7457,4.7575,4.7373,4.6921,4.6653,4.6317,4.5811,4.5492,4.5265,4.4795,4.436,4.4051,4.3892,4.3754,4.3724,4.3416,4.2974,4.2726,4.2412,4.2077,4.1738,4.1377,4.0894,4.0309,3.9161,3.8192,3.7936,3.7662,3.7674,3.776,3.792,3.8025,3.8211,3.8438,3.8715,3.8962,3.9144,3.9415,3.9508,3.9172,3.8652,3.7959,3.7002,3.5603,3.4288,3.3269,3.2452,3.1963,3.1557,3.1055,3.063,3.0397,3.0174,2.9974,3.0031,2.9998,3.0158,3.0703,3.1291,3.1879,3.2492,3.3049,3.3465,3.3728,3.4119,4.9762,4.9428,4.9273,4.8937,4.8401,4.8081,4.7622,4.705,4.6566,4.5965,4.5384,4.5046,4.4534,4.3714,4.3949,4.3844,4.3699,4.3761,4.3721,4.3497,4.3322,4.3256,4.3214,4.3195,4.326,4.3305,4.3305,4.3305,4.3305,4.3275,4.3124,4.2771,4.2879,4.268,4.2581,4.2731,4.3239,4.3885,4.4437,4.4814,4.5047,4.4708,4.4193,4.4643,4.5314,4.5765,4.6301,4.7083,4.7545,4.7946,4.8287,4.8489,4.8307,4.7919,4.7649,4.7349,4.6823,4.6503,4.6191,4.5866,4.5505,4.5073,4.4867,4.4495,4.4361,4.3998,4.3747,4.3671,4.3386,4.3066,4.2756,4.249,4.2078,4.1482,4.0565,3.9987,3.9577,3.9401,3.9314,3.9468,3.9679,3.9806,3.9959,4.0234,4.0545,4.0663,4.0477,4.0702,4.0577,4.0242,3.983,3.9196,3.852,3.7778,3.6634,3.5353,3.4498,3.3947,3.3417,3.2887,3.2435,3.2031,3.1804,3.1582,3.1123,3.0902,3.1128,3.1323,3.1722,3.2327,3.2942,3.3513,3.3975,3.4316,3.4586]}]]